GFSWCAN_700_spd_000.txt.gz
Wind_Speed
36 35 33 37 38 37 35 33 32 30 27 24 22 20 19 17 15 14 12 12 12 14 11 19 17 15 14 12 15 15 15 17 16 15 11 11 9 10 11 7 6 6 5 5 5 6 8 9 9 14 16 21 33 29
40 34 32 32 34 36 36 35 33 31 29 26 23 21 19 19 18 16 15 13 12 12 9 14 18 18 18 18 15 16 10 12 12 10 13 10 11 11 13 8 7 10 13 10 10 10 10 22 23 29 32 29 33 30
37 33 34 31 31 32 36 36 35 33 31 28 25 22 21 20 20 19 16 15 14 13 12 13 16 17 17 19 17 16 17 13 17 18 15 14 15 14 18 18 16 16 15 18 19 25 21 23 26 30 30 29 30 32
31 32 29 32 31 31 31 33 34 34 33 31 28 25 23 22 22 21 20 18 18 16 17 16 13 17 15 17 18 19 20 18 21 19 20 22 24 20 24 22 19 21 19 24 23 25 23 28 34 31 33 28 31 23
13 20 33 30 32 32 29 28 29 31 31 31 30 28 26 25 24 24 22 21 20 20 13 17 20 18 18 18 19 20 20 20 21 21 23 24 25 23 28 29 32 27 29 25 26 23 27 30 32 33 31 34 29 20
11 13 16 28 33 29 31 30 26 26 27 28 29 29 29 28 26 26 26 26 24 24 23 24 21 19 20 23 23 21 21 21 23 24 25 24 26 23 22 29 34 28 21 25 29 33 35 30 29 31 27 22 21 25
7 8 8 10 20 30 37 29 26 28 26 25 26 27 27 29 29 30 30 27 27 26 26 25 22 27 23 23 25 24 25 24 22 23 27 26 26 26 32 38 35 31 29 20 31 32 30 28 26 19 18 21 25 20
5 4 5 7 12 21 27 33 36 31 27 28 27 25 25 27 29 30 28 27 23 25 27 26 19 20 22 27 29 28 30 29 30 31 33 32 28 26 32 35 34 32 24 30 32 25 25 23 17 20 22 22 22 22
10 8 6 4 4 9 17 27 33 34 32 29 28 27 27 29 30 28 27 27 29 28 23 30 29 24 26 29 27 26 28 30 31 35 35 33 37 34 36 31 32 23 29 30 26 25 19 20 18 18 21 23 26 31
15 14 11 10 7 5 7 13 23 30 33 32 30 29 32 33 27 27 27 29 32 34 39 40 33 30 28 24 22 24 27 24 23 33 30 35 46 44 39 38 38 36 31 27 25 21 20 20 18 21 24 28 31 33
17 16 15 13 11 9 7 8 10 19 28 34 34 34 34 32 27 28 26 25 30 37 38 45 45 39 35 29 25 22 21 12 19 26 23 27 38 36 28 25 24 24 24 22 22 22 19 18 22 26 29 31 32 35
15 15 14 13 12 10 7 7 10 13 20 25 32 34 30 21 18 22 21 24 28 27 36 34 33 38 37 35 30 25 27 15 16 23 14 22 25 21 18 12 11 12 17 19 19 17 19 23 27 29 31 31 33 35
12 12 11 11 10 10 10 10 9 12 18 23 31 33 24 19 19 9 15 15 25 36 36 38 35 29 28 30 26 20 14 15 22 14 10 15 16 11 9 8 12 15 15 14 15 20 24 26 29 30 31 32 35 37
12 12 11 9 6 6 7 9 9 11 15 17 11 12 12 7 10 14 19 19 23 23 32 29 21 19 27 26 23 10 13 10 8 7 7 8 11 11 10 9 11 12 11 15 21 23 26 28 30 30 31 34 36 37
11 12 11 9 7 6 5 5 6 7 8 9 7 6 8 9 8 10 15 19 18 21 18 19 24 27 23 15 10 10 7 6 7 5 8 6 5 7 7 10 13 14 19 21 24 28 30 30 30 32 33 35 35 35
14 13 12 11 8 7 6 7 6 8 6 5 5 3 4 5 7 9 9 9 9 13 17 16 11 6 4 5 6 6 4 4 3 5 11 9 11 11 12 12 15 19 22 25 28 31 30 30 32 34 34 33 33 32
9 14 14 15 12 9 7 7 5 6 2 3 6 6 5 5 6 7 7 5 6 5 5 4 4 3 1 0 2 1 5 11 12 13 14 12 12 12 14 17 21 23 26 29 28 28 30 31 33 34 33 32 31 29
11 15 17 15 17 13 10 9 11 6 5 6 5 4 1 2 5 5 4 4 4 6 8 4 3 2 1 3 7 10 12 13 14 14 16 17 17 18 20 23 26 29 27 27 28 29 30 31 31 31 31 29 29 29
16 14 16 16 15 16 14 15 13 10 13 14 12 8 6 6 8 8 8 7 6 6 7 6 5 5 9 13 17 18 18 18 18 18 19 20 21 24 25 26 25 25 26 27 29 30 30 29 28 29 28 28 29 31
16 16 18 14 16 18 13 12 13 14 8 11 10 10 9 9 9 10 11 12 12 13 14 15 16 15 16 16 17 18 21 22 22 21 22 23 24 25 23 23 25 26 28 28 28 29 28 29 31 30 31 34 34 35
18 17 18 15 14 19 18 13 10 13 12 13 12 13 13 13 14 14 16 15 17 17 15 15 14 15 19 22 23 22 21 20 21 23 24 23 22 23 25 26 27 28 27 27 27 29 30 31 32 34 34 34 35 35
18 17 17 19 18 21 22 17 12 12 11 10 12 14 14 15 15 15 13 17 19 14 13 15 17 18 17 18 19 19 20 21 21 21 22 23 24 25 26 27 28 29 29 30 30 33 35 36 34 33 33 35 35 34
19 21 20 18 19 23 15 21 18 13 12 12 12 14 15 14 12 11 15 13 10 10 13 15 17 15 15 17 16 17 19 21 21 22 23 24 25 27 28 27 29 32 34 35 36 36 35 31 32 35 37 38 36 35
21 22 22 11 17 15 20 22 21 18 16 13 12 12 12 10 10 12 15 12 13 14 14 15 15 15 15 15 15 16 19 20 22 24 24 25 28 29 31 36 38 40 40 39 39 39 39 38 38 38 38 38 36 35
24 22 12 18 16 18 20 18 22 21 19 15 14 14 11 10 11 13 14 14 15 16 14 12 12 12 11 13 14 15 22 25 25 27 28 31 35 39 43 46 45 42 43 43 42 41 39 39 38 38 37 35 33 33
11 8 13 14 20 20 19 17 14 16 14 14 13 13 11 12 11 7 10 13 15 14 13 12 12 15 17 21 22 24 27 29 32 36 38 42 45 46 46 44 41 39 38 37 38 40 38 36 36 35 34 31 29 28
7 6 13 16 14 13 12 15 15 14 13 14 15 12 11 6 6 11 14 13 13 14 16 17 21 23 25 27 29 32 37 39 40 41 40 38 37 37 36 38 38 38 35 33 33 35 35 34 33 33 33 32 30 29
7 8 10 10 10 9 8 9 10 9 10 11 11 9 5 6 10 13 13 13 15 19 22 25 28 28 33 36 39 40 38 36 36 35 34 36 37 36 34 35 36 37 36 34 34 34 34 34 34 34 33 31 30 31
9 10 9 7 6 6 6 7 8 10 9 8 7 8 13 15 16 18 21 22 24 26 28 31 33 34 37 36 35 38 36 34 33 34 34 34 33 33 33 33 33 33 33 32 32 34 34 34 34 34 32 31 29 28
6 4 4 5 5 6 6 7 8 10 11 12 14 16 20 23 24 24 25 26 27 29 31 34 35 33 34 34 31 31 33 33 36 38 38 38 37 36 35 35 33 32 32 31 29 28 28 28 28 28 26 25 24 25
1 3 4 6 8 9 11 13 15 16 18 20 22 23 25 26 27 28 29 31 32 31 32 32 32 30 27 26 28 31 35 38 39 39 40 40 39 38 36 35 34 33 31 30 28 26 24 24 23 23 22 21 21 21
7 7 8 8 11 11 14 15 17 18 19 19 21 23 26 27 28 27 27 27 26 25 24 22 21 23 27 31 35 38 39 40 39 39 39 39 39 38 37 35 32 31 30 28 26 24 22 22 22 22 21 20 21 21
6 6 6 7 10 13 15 17 21 24 24 23 23 22 23 23 25 23 21 21 21 21 21 24 27 32 34 35 34 33 33 34 34 33 33 34 35 35 35 34 33 31 28 28 28 27 24 23 23 23 22 22 22 22

GFSWCAN_700_spd_003.txt.gz
Wind_Speed
39 38 39 39 38 36 33 32 30 28 24 22 21 19 18 18 16 14 12 11 11 9 9 19 17 18 17 16 19 16 16 16 15 15 13 13 10 12 12 13 11 11 7 9 8 7 9 6 13 16 22 30 26 29
37 35 36 38 37 35 34 32 31 30 26 23 21 20 19 18 17 16 14 11 9 9 8 17 19 16 16 15 12 13 14 13 13 11 16 12 12 14 18 15 16 14 16 12 13 10 19 20 20 29 31 31 30 31
35 32 32 33 36 35 34 32 31 30 28 25 22 21 20 19 19 17 15 13 11 9 9 12 16 15 16 16 17 16 16 16 17 17 16 15 15 15 19 20 19 15 17 20 17 17 15 23 28 29 31 33 33 31
33 30 31 29 32 34 34 33 31 29 28 27 25 23 22 20 19 18 16 15 15 13 13 11 11 13 14 16 18 17 17 17 17 17 18 19 21 19 23 23 24 22 23 27 31 26 24 29 33 34 33 35 32 34
33 31 31 29 29 29 33 34 33 31 29 28 27 25 24 22 20 19 19 19 17 17 8 13 15 15 16 17 17 18 19 19 19 20 22 23 23 24 29 31 33 26 27 28 33 33 30 31 30 31 34 35 35 36
16 31 31 30 30 28 28 28 31 32 31 30 29 28 26 25 24 22 23 22 21 20 20 21 19 16 17 20 20 18 19 21 22 23 23 24 25 24 24 32 33 25 23 22 27 29 31 33 35 33 32 34 33 23
13 13 15 29 27 30 27 26 27 28 30 31 31 30 28 27 27 27 25 24 24 24 24 24 25 26 22 22 22 22 24 25 24 27 27 24 23 24 33 39 33 30 27 27 29 30 32 32 33 31 31 27 19 23
15 12 10 11 22 27 27 27 29 25 23 25 26 27 29 29 29 28 27 26 25 24 26 27 17 21 23 24 24 24 27 26 27 29 32 30 30 31 38 42 37 34 31 32 32 31 28 35 27 31 20 20 25 26
9 10 11 11 9 14 23 27 29 26 22 25 24 24 24 26 25 25 26 26 27 27 24 30 28 22 25 25 23 24 25 28 31 35 36 34 38 38 40 35 32 32 34 33 30 27 34 26 25 20 24 23 25 26
5 4 4 5 7 8 11 17 24 29 33 32 25 23 25 24 23 23 23 25 29 32 35 38 32 28 26 24 22 23 26 26 26 32 33 35 44 42 39 36 36 35 35 33 25 28 28 25 21 21 21 23 26 29
9 8 6 5 5 5 6 8 12 21 27 31 33 32 28 24 22 23 20 20 24 31 35 41 40 38 35 31 29 26 22 16 21 25 26 29 42 40 31 27 29 28 29 28 28 25 21 18 18 18 21 25 29 31
12 12 11 9 9 9 7 6 7 8 15 20 22 25 25 22 20 13 18 21 24 22 30 25 27 32 37 36 32 27 30 20 16 21 16 25 30 27 21 15 17 23 25 21 16 19 15 13 16 21 25 28 30 31
11 10 10 10 10 10 10 7 6 8 14 18 25 20 14 15 13 13 19 21 16 27 23 23 26 27 27 28 25 23 15 18 23 19 18 21 19 17 14 14 15 13 12 12 15 12 14 18 23 26 28 29 29 31
10 9 8 6 6 7 8 9 9 9 11 16 11 8 11 7 10 14 15 18 18 17 20 26 26 17 22 25 22 10 13 12 10 8 8 13 14 14 13 7 4 4 8 10 13 17 23 24 26 28 28 29 31 33
7 8 7 6 5 5 4 4 5 7 9 9 7 6 10 10 9 9 14 18 17 19 18 16 19 21 22 17 12 10 6 6 6 5 8 9 9 7 5 5 4 5 10 15 18 21 25 27 29 28 28 29 30 32
6 6 6 6 5 4 4 3 2 3 6 7 7 5 3 4 6 8 11 14 16 13 12 17 18 7 9 5 5 5 4 3 4 1 3 5 4 9 11 9 10 12 14 19 23 25 29 28 28 28 29 29 30 32
5 7 5 5 5 4 3 1 1 3 5 4 4 7 3 2 2 5 6 4 4 9 12 7 4 5 3 3 4 5 2 4 6 9 12 13 12 8 9 11 15 19 22 24 27 27 26 27 29 31 31 30 30 30
5 6 8 8 7 6 6 6 5 3 3 0 2 6 1 2 5 7 6 6 6 8 9 9 6 7 4 4 4 5 7 10 11 12 10 10 11 14 15 17 20 23 25 24 24 26 28 30 30 30 31 29 30 28
10 9 10 12 12 10 11 10 10 7 8 8 8 10 9 10 10 11 11 11 10 8 7 4 3 3 3 3 7 10 11 10 10 12 14 16 17 19 20 21 21 22 23 24 26 27 29 30 31 30 29 28 30 31
13 12 12 13 13 13 11 10 11 11 9 7 6 9 9 11 12 14 14 13 12 11 11 7 6 8 9 9 12 14 15 17 17 17 18 19 21 23 23 22 22 23 25 26 27 29 30 30 29 29 30 32 33 32
14 14 14 13 13 10 13 11 9 8 10 10 10 14 13 15 15 14 15 14 16 18 14 14 12 12 16 17 18 20 20 19 18 20 21 22 21 21 22 23 24 25 27 27 27 27 28 29 31 32 32 31 31 32
15 14 14 14 14 14 18 18 15 15 13 13 13 15 15 14 14 14 14 17 18 13 13 12 14 16 15 17 17 16 18 20 21 21 21 22 23 23 24 25 27 28 26 26 30 32 33 33 33 33 35 35 36 36
15 16 15 13 14 17 17 16 19 17 13 12 12 12 12 15 15 14 15 13 11 12 14 15 15 14 16 19 18 18 21 21 20 21 22 23 24 26 28 28 29 32 35 36 38 39 38 39 40 41 41 40 38 37
13 14 14 13 15 17 14 19 19 21 20 15 13 15 15 12 12 12 14 12 14 13 14 15 15 16 15 16 20 21 21 21 21 21 23 25 26 28 31 34 37 40 44 44 42 40 38 38 37 38 37 37 36 35
12 14 14 15 17 18 25 20 23 25 24 20 19 18 12 11 11 13 14 14 12 13 14 16 16 16 16 18 18 17 19 21 22 24 28 31 35 38 40 41 42 41 38 36 35 35 35 34 32 34 34 34 34 32
14 10 13 18 16 15 18 20 24 25 22 22 19 17 15 14 12 8 12 12 10 11 10 11 13 14 13 15 18 21 23 25 28 32 36 39 39 39 40 40 39 37 36 36 36 36 35 34 33 33 33 32 32 32
12 9 15 22 17 19 18 20 21 22 20 18 18 17 11 8 9 11 12 12 11 11 12 13 15 16 20 22 26 30 32 34 36 38 37 38 39 38 37 37 38 37 37 36 35 34 35 34 33 32 31 31 32 33
11 11 13 16 16 14 9 12 12 10 9 10 10 10 7 8 9 10 9 10 11 14 16 19 21 24 27 30 34 35 36 37 36 35 36 37 35 34 36 37 38 39 39 39 37 35 34 33 32 32 31 32 33 33
5 6 6 5 4 5 5 6 7 9 9 8 8 10 10 10 9 11 13 16 19 21 23 24 26 29 31 34 38 38 36 36 35 31 30 32 35 37 39 40 40 41 40 39 37 36 34 32 30 30 29 28 29 29
7 5 5 6 6 5 4 4 4 5 6 7 9 11 13 14 16 19 22 22 23 24 27 30 31 33 34 34 35 36 34 31 32 35 39 42 43 43 42 41 39 39 38 38 36 34 33 30 29 27 25 25 25 26
1 1 2 3 5 5 6 7 9 10 11 12 15 18 21 23 24 25 26 27 28 29 30 30 30 29 29 27 26 28 31 37 40 40 39 38 38 38 37 36 36 36 35 35 34 33 31 29 28 27 25 23 22 21
6 7 7 7 9 10 11 12 13 15 16 17 20 23 23 23 25 27 26 24 24 24 23 22 22 23 25 28 33 37 37 32 31 33 32 31 30 30 32 33 34 32 31 30 29 28 26 26 26 25 23 22 20 18
6 6 7 7 9 10 12 14 16 18 19 20 20 19 19 20 21 20 20 18 18 20 21 22 24 28 33 34 31 27 27 28 29 28 28 29 29 29 27 26 27 28 30 30 28 25 24 23 23 22 20 19 19 19

GFSWCAN_700_spd_006.txt.gz
Wind_Speed
45 43 42 40 38 37 36 33 31 29 27 26 24 24 25 23 20 19 17 15 14 13 18 21 19 19 18 17 15 17 19 18 17 16 15 14 13 15 15 15 14 14 12 14 13 10 11 12 18 19 20 23 24 23
38 38 38 39 38 36 35 33 30 28 26 25 24 23 22 21 20 18 17 15 14 14 14 17 16 17 17 16 15 17 16 14 11 11 15 12 13 14 19 19 20 19 23 18 16 11 15 20 25 23 23 25 27 27
36 36 38 38 37 35 33 31 29 27 25 24 23 22 22 21 20 18 16 15 14 12 11 16 18 17 15 14 13 13 14 15 15 16 17 15 16 17 19 20 23 23 22 22 25 28 25 25 26 24 27 28 29 30
35 35 35 36 35 33 32 30 29 27 26 24 23 23 22 21 20 19 18 16 14 13 13 15 17 18 17 15 15 15 15 14 14 15 17 19 21 18 22 23 22 21 21 24 28 28 28 26 26 31 34 30 31 31
35 32 33 34 34 32 31 29 28 27 26 25 24 23 22 22 21 20 18 17 15 14 7 14 14 15 16 16 16 16 17 17 18 19 22 21 22 24 28 29 31 27 27 28 32 28 32 34 34 31 30 33 35 38
35 32 31 32 32 33 32 30 28 27 27 26 25 24 24 23 22 20 19 18 17 17 16 16 14 15 17 18 17 17 19 21 22 23 24 25 24 24 24 33 31 23 22 23 27 28 31 29 28 30 33 35 36 33
36 32 30 30 29 29 31 31 29 29 28 26 26 26 25 24 22 22 20 19 19 19 19 20 21 22 20 19 18 20 21 23 24 27 28 27 26 29 35 38 32 30 30 30 30 31 32 31 30 31 33 36 35 27
21 29 34 34 29 28 28 28 29 30 29 28 28 27 26 26 25 25 24 23 21 20 22 21 14 20 21 21 21 22 24 23 26 28 31 29 31 32 40 38 35 32 31 30 29 29 29 28 31 32 37 32 22 20
20 17 18 27 30 25 28 24 24 24 25 26 27 26 27 26 26 25 25 25 26 27 26 29 27 24 25 23 22 23 23 26 29 34 35 34 37 39 41 38 37 36 35 32 30 30 30 31 33 37 22 15 18 21
19 18 16 15 16 25 25 24 24 25 25 22 20 21 23 23 23 23 24 25 29 31 32 33 31 27 25 23 23 23 25 25 24 30 29 35 45 43 40 36 36 32 30 29 30 30 32 36 36 13 12 18 21 20
12 13 12 12 11 12 15 23 27 27 27 25 23 23 21 20 20 20 19 16 19 23 30 35 34 32 29 28 26 27 25 21 25 26 27 32 43 39 35 33 31 28 25 26 26 25 28 19 13 11 16 16 22 26
7 6 6 7 8 9 9 11 16 22 25 25 27 27 24 22 17 13 16 16 15 17 21 20 22 25 30 30 31 29 31 22 17 26 23 28 33 28 25 23 22 24 24 24 28 24 14 13 10 8 15 20 26 31
10 8 6 6 7 9 9 8 9 12 15 13 15 15 10 12 12 12 15 11 16 24 17 17 18 18 20 21 23 18 15 18 23 17 18 22 23 18 13 16 19 23 22 15 7 8 8 6 12 20 25 29 32 29
10 9 8 7 8 9 10 9 8 9 16 18 15 14 11 8 10 12 15 17 22 21 20 22 22 18 20 18 18 9 13 11 8 7 8 16 12 15 14 12 9 3 3 7 7 9 13 16 21 26 29 29 27 28
10 10 10 9 8 8 9 9 9 9 9 9 7 6 10 9 8 7 10 12 14 15 13 11 16 19 16 12 8 10 6 6 6 4 6 8 9 10 3 1 4 5 6 7 9 12 17 24 27 28 27 26 27 28
9 8 9 10 10 9 8 8 7 8 9 8 7 5 5 6 8 9 11 12 13 12 12 11 15 11 14 9 6 6 3 3 5 8 9 6 3 5 5 6 4 5 9 13 16 20 25 28 28 26 25 27 28 29
9 9 10 10 9 7 6 6 7 6 6 5 6 7 5 4 5 5 6 6 4 4 7 7 6 9 5 4 4 4 4 4 4 5 5 4 6 6 4 9 12 12 15 19 24 27 27 26 26 27 29 28 30 30
4 4 4 5 6 7 6 6 6 4 6 6 4 5 5 5 4 4 5 4 6 8 9 9 7 8 4 4 4 6 4 10 8 9 11 11 12 13 11 11 15 20 23 24 24 24 25 27 28 29 30 32 32 32
2 3 3 3 4 5 5 5 6 5 8 7 6 8 9 8 8 8 10 10 10 10 9 7 6 5 7 6 6 7 9 9 9 8 10 12 13 15 17 19 20 21 22 23 24 25 26 28 30 31 32 33 34 34
7 9 9 8 7 8 7 7 8 9 8 9 10 12 15 14 13 13 14 14 14 13 11 7 7 7 6 6 6 8 10 10 11 13 14 15 17 18 20 21 21 22 22 24 25 27 29 30 29 32 35 36 37 36
8 9 11 12 11 11 11 8 9 7 9 11 10 10 11 11 12 16 15 15 15 15 11 10 12 14 14 14 13 12 13 14 14 15 16 17 19 20 20 22 24 25 27 28 30 30 31 34 37 39 40 40 38 38
10 12 11 10 11 12 14 14 12 14 13 11 11 11 15 16 16 15 15 15 15 13 14 14 15 14 14 14 14 14 16 18 18 19 21 22 22 22 22 24 27 28 29 31 35 38 41 42 43 44 43 42 41 42
11 12 13 12 11 10 11 13 11 15 15 13 13 14 14 14 13 12 14 13 13 14 14 13 14 13 14 16 18 18 20 21 20 19 19 19 21 22 25 27 30 34 37 39 41 42 41 41 40 39 38 37 38 37
11 12 13 8 9 12 13 13 18 18 16 17 16 15 14 13 13 14 16 15 14 12 13 13 14 17 18 19 20 20 20 18 16 16 20 23 26 28 31 35 37 40 40 40 41 41 40 40 39 38 38 38 37 36
12 10 7 10 12 13 16 16 18 18 18 18 19 19 17 13 13 15 14 15 13 13 14 16 17 17 18 19 18 16 15 16 19 23 27 30 33 36 39 41 40 40 42 42 41 40 38 38 37 37 37 36 36 35
6 6 8 11 12 13 14 20 22 25 26 23 22 25 20 16 15 10 14 14 15 15 14 16 15 13 14 15 16 17 20 22 25 29 33 37 40 41 41 42 41 40 40 41 41 42 42 41 40 39 36 35 35 33
11 12 11 14 16 15 15 19 20 19 22 24 24 24 18 11 10 13 14 14 12 11 12 12 12 14 15 17 20 24 27 29 32 37 39 41 41 41 41 41 42 42 43 46 48 49 48 46 43 40 37 36 35 33
12 13 13 14 13 14 16 11 12 14 12 10 12 9 6 7 9 11 10 10 10 10 10 12 15 19 22 24 26 29 32 34 38 39 38 38 37 37 38 40 44 48 49 49 48 47 46 44 41 38 35 34 33 32
8 8 4 6 7 6 3 1 2 3 3 4 6 8 11 12 11 9 9 10 13 16 19 21 21 23 25 28 31 33 34 33 32 31 32 33 34 38 42 44 44 42 41 40 38 39 39 37 36 35 32 31 31 30
2 1 1 1 3 4 5 4 4 5 6 6 7 9 10 10 12 14 15 19 21 22 23 24 26 29 31 31 31 31 30 29 31 34 37 40 39 37 36 35 33 32 33 34 32 31 30 30 30 29 28 28 27 27
3 4 5 6 6 6 6 7 8 8 9 11 13 15 16 18 20 22 22 21 22 25 25 25 25 25 24 24 25 28 31 35 38 37 33 31 32 31 30 29 30 29 28 29 31 32 32 30 28 26 25 24 24 23
9 9 9 9 10 10 10 10 11 11 12 13 16 17 18 19 20 22 20 19 20 22 22 20 19 21 24 26 30 34 34 31 31 30 30 29 27 26 27 28 29 29 30 32 32 33 34 30 26 24 23 22 21 20
9 7 7 8 9 10 12 14 15 16 17 19 21 22 22 20 19 18 17 17 18 18 20 21 22 25 28 31 29 28 31 32 31 30 29 27 26 27 29 31 31 30 30 31 31 30 30 28 25 21 19 19 19 18

GFSWCAN_700_spd_009.txt.gz
Wind_Speed
48 48 47 45 42 38 38 36 33 30 30 30 30 32 42 37 28 19 17 16 18 21 21 22 21 19 18 16 15 15 17 19 20 17 17 17 12 14 16 19 16 14 11 15 17 14 14 19 20 20 18 16 23 24
48 47 45 42 41 40 37 36 33 30 29 32 31 31 30 28 24 20 19 18 18 18 17 20 18 17 15 15 14 13 14 13 13 12 17 14 13 14 17 20 20 21 22 18 18 16 18 16 12 23 24 26 28 26
47 46 42 41 41 39 35 34 32 30 29 27 31 31 29 27 25 23 20 19 17 17 15 19 19 17 18 17 16 16 16 18 17 15 15 15 17 17 18 19 22 24 21 26 27 28 27 27 30 30 31 31 26 30
45 43 41 41 41 39 35 33 31 30 29 28 27 25 25 26 24 23 21 19 18 16 14 19 19 19 18 17 15 15 14 15 16 17 18 19 20 17 20 22 21 22 23 26 29 27 30 32 31 29 28 29 35 33
47 44 36 37 40 37 33 32 31 29 27 27 27 26 25 24 23 22 20 18 17 16 13 16 18 19 19 18 17 16 16 16 17 18 19 20 21 23 27 28 29 28 27 28 31 25 27 29 28 30 34 34 31 31
42 35 35 31 35 33 32 31 31 31 30 28 26 25 24 23 23 22 21 20 18 16 13 13 16 18 18 16 16 16 17 18 20 21 22 24 24 25 24 30 29 24 23 23 28 26 30 32 32 31 30 30 31 32
35 34 32 33 32 30 29 29 29 29 28 27 26 24 24 23 23 22 21 19 19 18 17 17 16 17 16 16 16 17 17 19 21 24 27 27 28 30 35 37 25 26 29 30 29 29 31 28 30 30 31 31 31 31
34 32 32 31 31 31 31 29 28 27 27 26 26 25 23 22 22 21 20 18 17 19 19 17 11 16 17 18 18 19 21 22 26 28 29 28 31 33 40 33 30 31 30 30 30 31 32 30 31 32 32 34 34 38
34 29 28 29 29 29 30 29 29 29 28 26 25 25 25 24 24 22 21 21 21 22 20 22 23 21 21 20 20 20 22 25 28 32 31 32 37 40 40 38 37 35 35 35 33 34 33 31 32 31 33 38 40 23
30 33 36 28 27 27 26 28 27 28 27 26 26 26 25 25 23 23 23 24 26 28 28 27 26 24 23 22 21 21 24 24 25 28 29 34 42 40 38 37 36 33 31 30 31 31 31 32 32 32 37 36 19 19
22 20 27 35 26 23 21 24 22 22 21 22 23 24 23 21 23 23 21 17 18 24 27 32 30 28 26 25 23 21 19 17 23 24 26 30 35 33 34 33 32 30 27 26 27 28 29 27 31 25 16 19 11 12
18 17 18 17 17 21 27 25 22 22 22 22 21 19 19 17 13 12 12 12 12 13 14 14 17 22 27 26 24 22 21 13 13 18 19 25 30 30 28 28 27 28 27 25 26 25 28 28 21 13 7 8 14 20
13 12 12 12 13 13 13 14 19 24 25 24 24 21 14 14 15 12 13 9 13 16 16 16 13 14 15 14 12 12 11 15 21 16 17 23 28 26 27 23 19 22 20 18 15 15 16 12 5 12 16 18 23 28
11 10 10 10 10 10 10 10 10 16 15 16 18 14 13 7 10 14 16 20 22 20 17 15 14 8 11 10 12 7 10 10 8 7 7 16 13 10 9 10 12 11 9 7 3 5 8 13 16 17 21 27 31 31
8 7 8 8 9 10 11 10 9 9 17 12 9 7 12 11 11 10 13 14 15 17 15 13 15 18 15 11 7 8 5 5 6 5 6 6 10 10 8 6 4 7 12 12 13 12 14 16 19 25 29 31 30 28
10 9 9 9 9 9 9 10 11 12 13 10 8 6 6 9 10 10 9 8 9 11 11 11 10 7 12 8 7 8 5 6 7 9 11 9 7 5 6 7 2 3 8 10 12 15 17 21 27 29 27 27 29 30
13 12 10 9 8 8 8 7 8 10 8 7 8 10 8 8 7 6 6 8 8 8 9 9 7 9 5 5 5 5 7 9 8 10 12 13 10 6 6 7 10 13 13 13 16 21 25 26 26 26 28 29 31 32
10 9 8 8 8 9 8 8 7 4 5 5 6 7 7 8 8 8 8 6 5 5 6 8 7 9 5 4 6 6 7 7 8 7 8 8 11 13 12 10 12 15 19 21 22 23 25 26 28 30 32 33 33 34
5 4 3 3 3 4 5 5 5 6 8 8 7 6 6 7 7 7 8 8 8 8 9 8 6 8 11 11 11 11 9 8 9 9 8 8 10 12 14 17 19 21 22 23 24 25 27 29 30 32 34 36 38 40
2 3 4 5 6 6 6 6 8 7 8 10 12 13 13 14 13 14 14 13 13 13 12 12 11 10 9 9 8 10 12 12 11 12 12 14 15 17 19 20 21 21 21 22 24 27 29 31 32 35 38 41 44 45
8 8 9 9 9 9 9 9 10 9 13 16 14 15 16 16 17 15 14 14 15 16 14 11 9 11 12 13 14 14 13 14 14 14 15 17 18 18 18 19 20 21 23 26 28 30 33 37 40 42 42 42 42 43
9 9 11 11 11 11 10 10 10 11 12 11 11 14 15 15 15 16 16 17 18 16 14 13 14 15 15 16 16 15 16 14 13 14 14 14 16 17 18 19 21 24 27 31 35 38 40 42 43 44 45 44 44 43
9 9 10 10 9 6 7 8 10 12 13 14 13 16 16 15 16 17 19 19 17 14 14 14 15 15 15 14 15 16 16 16 15 15 15 15 17 19 22 25 29 32 35 38 41 42 43 44 45 45 45 44 43 43
9 8 9 7 5 7 9 10 12 14 16 16 15 17 15 14 13 13 15 17 16 12 12 12 13 14 15 16 17 16 16 16 15 15 16 18 21 25 29 32 36 40 42 44 45 45 45 45 45 44 44 45 45 45
8 6 4 6 7 8 11 14 12 11 16 15 17 16 16 14 12 13 16 15 12 12 13 14 15 15 16 17 16 16 15 15 16 18 21 24 27 31 34 39 43 45 45 44 44 44 45 46 47 50 51 50 48 45
2 1 2 5 8 8 8 10 11 11 11 16 20 22 23 22 20 10 15 15 16 17 17 17 16 15 15 13 13 14 16 19 22 26 29 32 35 39 42 43 43 42 42 43 45 48 50 51 50 49 47 44 42 40
3 4 7 13 15 16 17 14 14 16 17 16 19 20 20 10 8 12 13 13 13 11 11 12 13 13 14 14 15 18 20 24 28 31 34 37 40 42 42 42 42 42 45 48 49 48 47 45 44 44 42 40 38 35
9 16 15 16 16 11 11 13 14 12 9 9 11 11 6 7 7 7 6 6 7 9 11 12 12 14 18 20 23 26 28 30 33 36 38 38 37 37 39 41 44 44 43 42 41 39 38 37 36 37 37 36 34 31
11 11 8 6 7 10 7 3 2 3 5 5 6 6 7 8 8 7 6 7 8 10 13 16 20 23 25 25 27 29 32 34 35 34 33 33 35 38 39 37 36 35 34 32 33 33 33 35 36 37 38 36 33 30
1 2 3 4 5 5 6 6 6 6 6 7 8 8 9 9 9 11 12 14 16 19 22 24 25 26 27 29 30 29 27 26 27 30 34 36 35 34 33 33 31 30 30 31 31 30 32 34 34 35 36 32 29 26
6 7 9 9 10 9 9 10 10 11 12 13 13 14 14 15 17 18 20 21 24 25 26 27 27 27 26 25 24 25 27 31 33 32 31 32 34 33 31 30 28 29 31 33 32 31 33 33 33 32 32 28 25 23
13 13 13 13 12 12 12 12 12 13 14 16 17 17 16 17 20 22 22 21 21 21 21 21 20 20 22 22 25 29 32 30 30 33 35 35 32 30 28 27 28 30 32 31 30 31 31 31 30 28 27 25 22 20
14 12 11 9 9 11 12 14 16 18 19 20 22 23 23 21 20 18 16 15 16 18 20 20 20 22 26 28 29 27 29 32 33 32 31 28 25 24 24 26 28 29 29 30 31 30 30 29 28 26 24 22 20 19

GFSWCAN_700_spd_015.txt.gz
Wind_Speed
64 47 51 52 50 45 43 41 39 39 37 37 37 38 40 43 43 39 31 24 21 20 16 19 26 32 31 27 22 21 20 19 15 15 13 12 9 11 11 14 13 12 7 8 8 7 8 8 9 11 15 23 22 20
51 49 51 44 42 41 40 38 35 33 32 32 34 36 39 41 40 36 33 22 19 16 16 24 28 23 24 24 22 20 19 13 15 13 14 10 12 13 15 15 16 15 16 12 11 11 17 23 24 22 23 22 21 24
53 50 47 46 43 40 37 34 31 31 31 31 31 33 36 38 40 42 36 24 19 16 17 25 24 23 22 19 18 19 18 17 16 14 14 13 15 15 15 14 16 18 16 21 23 23 22 23 24 23 23 24 24 27
48 46 43 41 39 36 33 32 31 30 29 26 28 33 36 40 41 33 28 22 19 18 20 24 24 23 22 20 18 17 17 15 14 15 16 18 19 16 16 17 15 18 20 25 27 25 22 18 19 21 23 24 25 27
43 41 40 39 36 33 31 31 30 29 27 26 28 33 36 32 25 28 20 17 16 17 19 25 22 20 19 19 18 18 17 17 16 17 18 18 19 20 21 20 20 22 21 21 22 19 22 22 23 25 27 27 28 29
42 40 36 35 33 30 28 29 28 26 28 28 32 35 33 32 26 23 18 16 17 19 12 23 21 21 19 18 18 17 17 17 16 17 18 19 20 20 14 14 20 21 22 22 24 24 24 24 24 26 28 29 31 32
36 35 34 33 32 31 28 25 29 29 30 29 28 30 32 33 27 23 22 21 19 19 12 17 19 20 19 19 18 17 17 16 16 17 19 20 20 22 25 26 22 24 24 23 24 26 27 27 30 31 32 31 31 30
32 30 30 31 32 33 26 28 25 24 25 27 25 23 26 25 24 23 20 20 20 18 17 13 10 17 19 18 18 17 17 17 19 21 22 23 24 25 26 21 24 26 26 28 29 30 33 34 33 32 32 30 27 26
29 27 29 24 36 30 22 27 23 23 21 22 22 24 22 20 21 20 19 17 17 18 15 14 14 14 13 14 15 17 18 22 23 24 24 25 28 23 23 27 29 31 32 33 33 31 30 29 29 30 30 30 27 22
26 21 15 11 32 32 26 23 23 21 20 19 17 18 18 18 16 16 16 16 16 17 18 15 13 14 13 14 16 17 19 19 17 21 21 23 28 26 27 29 30 30 28 27 26 26 26 27 30 30 25 27 26 24
25 19 16 12 13 30 27 25 24 22 19 17 17 17 15 17 15 14 13 12 12 12 14 18 18 17 18 20 20 18 15 13 15 17 18 16 18 24 25 26 28 27 26 25 25 27 30 26 22 21 23 18 16 13
23 20 17 16 14 10 25 24 23 24 20 16 16 15 15 14 12 12 12 11 8 11 14 16 19 22 25 25 23 18 17 11 10 12 11 10 21 24 24 23 22 25 26 26 24 21 21 19 17 16 12 11 10 16
22 22 21 19 17 15 13 14 15 17 19 18 17 16 11 12 12 9 10 11 16 20 16 17 19 20 19 19 15 11 9 10 12 9 8 15 18 19 21 22 18 16 15 11 9 6 5 5 10 16 17 18 19 19
18 22 23 22 21 19 18 17 17 18 20 21 16 16 11 8 9 16 18 19 19 16 17 17 15 11 13 10 10 6 10 9 7 7 11 16 14 13 13 11 9 9 7 7 6 7 9 10 11 12 13 16 17 17
12 13 13 11 13 17 20 18 16 17 20 15 10 9 12 12 10 7 11 16 18 15 12 12 14 13 10 8 7 9 6 6 7 9 11 10 11 9 8 9 9 10 9 7 7 8 9 10 13 15 16 17 18 20
9 9 9 9 11 11 10 10 11 14 17 10 8 5 7 9 9 10 10 10 11 11 13 13 12 8 11 7 8 9 5 6 6 7 7 8 8 9 10 10 10 10 10 10 11 10 12 14 15 17 20 21 23 25
9 9 9 8 8 8 9 10 10 13 6 2 4 5 6 6 7 8 8 9 11 12 14 10 7 8 6 6 8 8 8 10 11 9 5 5 6 8 10 11 12 11 9 9 12 14 16 18 19 20 22 24 26 29
15 14 12 9 8 8 8 8 7 5 5 4 3 4 5 6 7 7 6 6 8 10 12 12 9 9 5 4 5 7 7 8 6 4 5 7 9 11 10 7 8 9 11 14 15 17 18 19 22 25 27 29 32 35
12 11 10 9 9 8 9 8 6 4 5 4 4 4 5 5 6 6 6 7 7 8 8 8 7 7 9 11 11 10 8 7 7 7 8 9 9 10 11 11 12 13 15 16 17 18 21 23 26 29 33 36 38 40
5 5 4 3 2 2 2 2 2 1 2 2 2 3 4 4 5 5 6 6 6 6 7 8 10 10 10 10 9 9 10 10 10 12 12 12 12 14 14 14 15 17 18 18 19 21 23 26 30 34 38 41 44 46
5 5 5 4 4 2 1 2 2 2 3 6 7 8 10 11 12 12 13 13 13 13 10 11 12 12 12 12 11 10 11 12 14 15 15 16 16 15 16 18 19 19 19 19 21 24 29 33 37 41 44 46 47 48
8 9 9 7 6 3 1 2 3 5 6 7 9 11 12 12 12 12 12 13 15 13 11 10 11 12 12 12 13 15 16 17 16 16 16 15 16 19 20 19 19 19 21 23 27 31 36 40 43 45 47 47 48 50
11 11 10 8 4 3 5 4 4 5 5 6 8 9 9 10 10 11 11 10 11 12 13 14 14 13 13 13 18 18 16 15 18 13 15 18 19 19 20 20 21 23 27 30 34 38 41 43 45 46 47 48 45 43
10 8 7 5 6 5 5 4 4 4 5 8 8 8 9 8 7 7 8 8 8 9 10 10 10 14 17 20 21 17 11 11 16 20 21 20 19 19 20 22 25 28 31 36 39 41 42 44 45 45 42 39 38 38
4 3 5 7 5 6 8 8 8 6 6 8 8 9 7 7 7 10 12 12 10 10 9 9 8 8 10 13 15 17 19 20 22 22 20 18 17 19 23 26 31 34 37 38 39 40 42 42 41 38 36 35 35 34
3 4 4 4 4 4 5 6 5 7 9 8 5 9 13 10 6 6 11 12 11 9 8 9 11 10 11 14 16 17 18 17 16 17 18 20 23 27 30 32 34 37 38 40 41 41 39 38 36 33 32 34 33 33
4 3 2 3 4 5 4 5 6 6 6 4 5 8 7 3 3 6 11 12 9 8 9 10 11 12 12 11 12 13 13 15 18 21 24 26 28 30 33 34 35 37 40 41 39 37 36 35 32 31 32 33 32 34
3 1 3 4 3 1 2 5 6 4 4 4 5 5 4 4 6 9 9 9 8 7 9 11 11 12 12 13 14 17 20 22 24 26 28 30 32 33 34 36 39 39 37 37 37 37 34 31 30 31 32 31 32 32
7 7 5 4 5 5 4 4 3 4 6 7 7 7 8 8 9 9 9 9 9 10 12 14 16 18 20 23 26 26 28 29 28 28 28 30 32 35 37 35 33 34 35 34 33 30 28 29 30 30 31 31 31 31
4 4 5 5 5 5 5 7 8 8 9 10 11 12 12 13 13 14 14 14 15 17 18 20 22 24 25 26 26 26 26 26 27 28 30 32 33 31 30 30 31 31 29 27 26 27 28 28 29 30 30 30 30 30
5 8 9 10 10 10 11 12 13 14 13 14 14 14 14 15 16 17 18 19 20 21 22 22 22 22 21 21 21 23 24 26 28 31 30 29 29 29 30 30 29 29 28 28 27 25 25 26 27 28 28 28 28 27
11 13 15 15 14 13 13 12 13 13 14 15 16 16 16 17 19 21 18 18 18 18 18 18 18 19 21 23 22 25 27 28 29 28 29 30 30 30 30 29 29 28 27 26 24 25 26 27 28 28 28 27 26 26
14 13 13 12 11 11 11 13 16 18 17 17 17 16 14 13 13 13 14 14 15 17 18 19 20 21 22 24 25 26 27 28 30 31 30 29 28 28 27 27 27 27 26 25 25 26 27 28 28 27 26 26 25 24

GFSWCAN_700_spd_018.txt.gz
Wind_Speed
25 34 46 47 50 56 59 51 52 53 52 53 53 53 51 49 47 44 40 32 26 22 21 17 29 28 35 33 30 24 21 20 18 16 14 11 9 11 12 12 9 8 5 6 7 6 6 3 6 8 13 22 23 19
50 51 55 61 58 48 49 50 48 47 47 48 49 49 48 47 45 42 37 32 28 24 17 17 22 24 30 34 29 24 23 17 19 15 14 8 11 9 11 7 11 11 11 8 7 7 13 19 17 17 21 24 24 24
51 68 52 50 49 50 47 44 43 43 43 43 44 44 45 45 45 40 34 26 23 20 17 21 22 22 27 29 28 26 22 22 17 17 15 12 12 10 12 12 14 15 12 17 18 17 17 21 21 21 21 22 21 23
52 52 51 48 45 43 42 40 39 38 38 38 39 40 41 44 42 39 34 27 24 23 17 24 26 23 23 28 26 25 22 19 17 16 16 16 16 13 14 14 13 16 18 20 21 19 18 18 20 21 22 25 26 27
50 47 44 42 40 38 36 35 34 34 35 35 36 39 42 42 42 39 38 26 20 20 16 25 27 24 24 23 19 18 18 18 18 17 17 18 18 17 17 16 16 15 16 14 15 16 21 21 22 24 24 25 26 28
43 41 39 38 36 34 33 33 33 33 34 35 36 37 39 42 40 39 34 30 23 15 16 28 27 26 24 23 22 20 19 18 18 17 16 16 17 16 10 12 15 17 17 21 22 21 22 22 23 24 26 28 30 32
38 37 35 34 33 32 30 30 30 29 31 34 35 36 38 38 30 38 24 21 19 15 11 21 24 25 24 23 22 20 19 18 17 16 18 17 16 16 18 18 19 19 21 23 24 22 23 24 26 28 31 31 31 30
36 36 34 28 31 29 31 31 30 29 31 33 37 38 36 35 27 26 21 20 19 17 14 13 15 23 23 22 21 20 19 18 19 19 19 19 19 20 18 19 21 21 21 25 26 27 27 31 31 28 28 28 27 28
31 31 33 30 28 23 31 30 32 32 30 33 33 34 34 31 25 20 17 22 22 18 16 13 14 13 21 20 19 19 19 19 20 22 22 22 23 21 20 21 23 24 25 28 29 29 26 24 25 25 27 30 27 24
26 23 22 23 27 26 35 27 22 32 31 34 33 33 32 27 23 19 18 22 22 20 17 15 16 16 13 17 17 18 18 16 15 20 20 24 29 25 26 27 26 25 24 22 22 21 22 24 25 27 22 20 19 17
20 17 15 10 21 25 29 26 20 34 26 20 24 23 24 21 20 18 15 16 12 13 17 17 15 15 17 17 17 15 14 11 13 16 18 18 23 24 24 24 22 19 20 19 19 20 21 19 16 14 12 12 10 9
18 16 15 15 21 28 30 24 24 22 23 22 20 20 23 18 12 9 11 12 9 12 13 18 19 18 18 19 20 17 17 10 9 16 12 12 26 25 24 22 18 16 15 13 12 11 11 9 7 6 5 6 7 10
14 13 13 13 14 21 21 25 25 24 22 20 21 18 11 10 8 9 12 12 13 12 14 17 22 26 26 25 18 10 8 11 13 9 10 19 22 20 17 17 14 11 10 10 9 8 7 7 9 10 10 10 11 11
14 13 12 12 14 13 12 17 22 23 21 19 15 11 10 6 9 14 17 17 16 16 18 19 21 19 20 16 12 7 9 7 6 7 14 19 15 13 12 10 9 8 8 7 7 7 7 7 8 9 10 11 12 13
15 16 15 16 14 14 14 12 13 14 13 9 7 7 11 10 10 12 15 16 16 16 16 16 17 17 13 10 7 8 5 7 8 9 11 7 7 8 10 10 9 8 9 9 9 9 10 11 12 12 12 14 15 18
15 15 14 13 9 13 16 17 17 17 19 10 8 8 11 15 14 13 13 16 17 17 17 17 14 7 12 8 8 9 6 6 5 5 4 4 6 8 9 9 9 10 10 10 10 11 12 13 13 14 16 18 21 23
12 10 11 11 11 10 9 7 11 16 8 7 9 10 9 11 12 12 12 12 12 12 14 10 8 8 6 6 8 8 7 9 9 7 2 2 4 7 9 11 12 12 13 13 12 12 13 15 16 17 19 21 24 27
13 12 10 10 10 9 10 10 10 6 8 10 11 11 10 10 10 10 10 10 11 12 14 11 7 8 5 4 6 6 5 4 4 2 2 4 6 9 11 13 12 11 12 13 14 15 16 17 19 21 23 26 30 34
17 16 15 14 13 10 11 9 6 7 9 9 9 9 8 9 8 7 7 7 7 7 7 7 5 5 7 8 7 7 7 7 6 6 7 9 11 12 13 14 14 14 15 16 17 17 18 19 21 24 28 32 36 39
9 9 8 7 6 6 6 7 8 7 7 8 7 7 6 5 5 6 6 6 6 5 6 6 8 7 7 8 8 9 9 8 9 9 10 12 13 14 16 16 16 16 18 19 18 20 21 23 26 30 34 39 42 45
7 6 5 3 3 2 3 3 3 4 5 3 2 2 3 4 5 6 8 9 10 10 11 12 13 13 12 11 11 11 12 12 13 14 15 16 16 17 16 16 15 19 22 21 22 22 24 28 32 36 40 43 45 47
7 6 6 4 3 1 2 2 2 2 2 1 2 4 4 5 5 5 5 5 5 6 7 8 9 12 12 11 11 11 14 14 14 15 16 17 17 14 15 18 23 24 23 23 24 26 30 34 38 41 43 45 45 45
8 7 5 3 2 3 4 2 3 3 3 4 5 4 3 3 3 3 0 1 5 8 10 12 12 12 13 11 13 18 18 16 17 17 18 17 15 17 18 20 21 22 23 25 28 32 35 39 41 43 43 43 42 40
8 4 4 4 5 5 5 6 6 6 6 6 6 5 6 5 3 3 1 3 3 4 6 8 10 10 14 15 14 14 17 17 14 10 13 14 15 16 17 18 20 22 26 29 33 37 39 41 41 41 40 38 37 35
3 4 6 7 8 9 8 7 6 5 4 5 7 5 4 3 3 4 6 6 7 7 7 7 8 8 10 11 10 9 10 11 13 14 15 15 15 17 19 22 25 29 32 34 37 38 39 39 39 37 36 36 34 32
4 4 4 6 6 5 3 2 2 3 4 4 2 3 6 3 1 2 6 8 8 8 8 7 7 7 7 8 10 13 14 15 15 15 16 17 20 22 25 28 30 33 34 35 36 37 37 35 35 35 34 33 30 31
5 6 5 4 2 1 2 3 2 4 4 3 3 4 3 1 1 3 6 7 7 5 4 6 8 9 11 11 12 12 14 15 16 18 21 23 25 27 29 31 32 33 35 36 35 33 33 35 34 31 29 29 29 30
4 4 2 2 3 3 3 3 4 3 2 2 3 2 2 2 4 7 8 7 8 7 7 8 9 11 12 13 14 15 17 20 23 25 27 27 27 28 29 31 34 34 32 31 31 32 32 31 29 28 28 28 28 29
11 10 8 7 6 4 2 2 1 2 4 6 7 7 7 8 9 10 10 10 11 11 12 13 14 17 19 20 22 23 25 25 24 24 25 26 29 31 33 33 31 30 30 31 31 31 30 29 28 27 26 27 28 28
6 5 3 3 3 4 5 7 8 9 10 11 11 12 12 13 14 15 14 15 15 16 17 18 19 20 21 21 21 21 21 22 24 26 28 30 32 32 31 30 30 30 30 30 30 30 29 28 27 26 27 28 29 29
4 5 6 7 8 9 11 12 14 14 14 15 15 16 16 16 16 16 16 17 18 19 19 19 20 20 20 20 20 22 23 25 27 29 30 30 30 30 30 31 30 30 30 29 28 27 26 25 25 26 28 28 28 27
8 9 10 10 10 10 10 10 12 13 13 15 16 17 17 17 18 19 16 15 16 17 17 17 17 18 19 20 22 24 26 27 27 29 31 31 30 30 29 29 29 29 28 27 27 26 25 25 26 27 27 26 26 25
12 12 12 10 9 8 9 11 13 15 15 15 15 15 14 13 12 12 13 14 15 16 17 17 18 19 20 21 23 24 27 30 30 29 30 30 31 30 30 30 29 29 28 27 26 26 26 26 26 26 25 25 24 23

GFSWCAN_700_spd_021.txt.gz
Wind_Speed
37 36 35 34 34 36 33 30 37 59 41 59 67 66 68 67 62 44 42 35 26 21 25 31 23 26 26 25 28 26 22 21 20 17 16 10 10 11 9 8 7 7 6 7 8 6 7 9 4 2 7 16 23 24
31 34 34 34 31 35 43 39 46 42 57 65 60 65 64 64 55 44 37 37 30 21 24 23 26 28 27 25 23 26 21 20 20 13 14 12 11 9 13 6 11 6 10 6 7 3 10 11 17 15 22 24 24 24
25 26 36 42 34 29 35 46 65 58 56 62 62 63 59 58 52 44 35 30 32 25 18 22 23 28 26 33 34 27 28 24 19 18 15 13 10 10 11 12 10 12 12 13 13 6 9 12 22 20 18 19 20 22
38 44 42 46 50 52 53 51 57 59 58 60 60 58 56 55 48 37 34 35 28 26 24 20 21 26 27 29 35 29 28 22 20 18 19 19 15 13 15 14 12 11 12 12 14 17 13 10 9 17 22 23 25 25
43 48 49 49 46 45 50 51 50 52 53 53 54 53 52 50 45 35 32 28 25 24 23 21 24 23 23 28 30 28 26 24 21 21 19 19 18 17 17 16 14 16 12 14 10 13 19 17 24 27 26 26 25 26
47 46 45 44 45 44 43 44 46 47 48 48 48 49 49 47 43 35 35 30 27 27 16 22 28 29 22 26 29 27 25 23 22 23 21 20 17 16 12 15 15 18 20 19 18 21 23 24 28 26 26 26 28 32
42 41 40 38 37 37 38 40 41 42 42 43 44 45 46 45 42 37 21 28 29 20 11 17 25 29 25 25 25 24 22 22 24 23 22 18 16 18 18 15 15 18 21 24 24 23 24 21 25 25 28 31 30 28
40 37 35 39 35 34 34 36 37 38 39 41 42 42 43 45 39 33 23 24 25 18 13 13 16 29 30 29 26 23 24 23 22 21 20 19 18 20 17 19 21 22 24 28 26 25 24 25 27 26 24 25 25 26
34 39 33 33 36 33 31 32 34 37 38 39 38 40 41 43 37 35 28 27 25 11 8 10 19 22 28 27 27 25 24 23 19 22 21 21 22 15 20 21 23 25 27 28 28 28 28 25 23 22 23 25 24 21
27 33 30 25 33 34 33 35 34 35 38 40 42 44 40 40 36 28 33 23 17 13 10 10 17 16 24 26 23 22 22 21 15 22 23 25 26 25 25 27 29 29 29 28 26 22 21 21 21 21 18 15 14 14
21 17 18 23 23 30 34 34 34 35 38 44 44 38 37 34 31 16 11 15 12 15 16 15 15 14 15 21 24 20 14 11 12 16 18 15 23 23 25 28 28 26 22 20 19 19 17 16 14 13 13 12 11 11
14 12 14 16 17 24 33 36 36 39 34 32 35 31 29 20 7 5 11 11 9 13 13 20 18 17 18 18 17 18 14 9 8 13 13 13 23 21 24 25 24 20 16 14 12 10 9 10 10 10 10 10 11 13
16 16 14 11 13 17 23 27 35 27 27 28 31 21 14 8 7 9 11 11 11 16 19 18 21 21 18 18 17 11 9 12 12 10 12 21 21 21 18 18 17 14 11 8 8 8 8 9 10 11 13 13 13 14
9 10 12 12 15 25 25 29 30 32 30 25 16 14 8 6 8 9 16 15 14 13 14 15 17 19 21 19 14 6 10 8 7 8 13 20 16 16 15 13 10 8 7 7 8 9 10 12 13 14 14 15 16 16
4 8 9 11 13 14 18 23 24 24 25 17 9 8 10 9 12 13 14 15 17 19 19 21 22 22 16 10 8 9 6 6 8 10 14 11 10 10 10 10 9 8 8 10 11 12 14 15 15 16 16 16 17 18
11 5 6 9 8 12 13 14 14 16 14 8 6 9 14 13 13 14 15 16 15 14 15 16 15 9 11 8 9 9 6 7 9 10 9 8 8 10 11 10 11 10 11 13 14 15 15 15 16 16 17 18 20 21
16 14 16 14 11 10 12 13 14 16 8 6 9 10 11 12 12 11 10 11 13 12 12 10 7 9 7 7 8 9 9 11 9 6 4 4 6 10 12 12 12 14 15 16 16 16 15 16 17 18 19 21 22 24
8 9 11 10 10 8 8 7 9 8 14 15 13 10 8 8 8 7 6 7 9 10 11 9 6 7 5 4 4 6 6 4 3 5 4 6 9 11 13 14 14 15 16 15 15 16 18 18 19 20 21 23 25 29
19 18 16 12 10 9 10 8 6 10 11 11 11 9 8 8 8 7 7 6 6 7 8 5 2 3 3 3 3 6 6 6 5 6 6 7 9 11 13 15 15 15 16 17 18 19 20 21 22 23 25 27 31 35
12 12 11 10 9 7 8 10 11 10 13 13 11 9 7 6 6 6 6 6 5 5 5 4 3 4 5 5 6 6 7 7 8 9 9 9 9 12 14 15 17 18 19 19 19 21 23 24 24 26 29 33 36 41
10 9 7 7 5 5 6 6 8 10 11 9 8 6 4 4 4 4 5 5 6 5 4 6 8 9 10 10 10 9 9 10 11 11 13 14 15 16 16 16 18 19 20 20 23 24 25 26 28 31 34 38 42 45
6 5 4 4 3 4 5 5 7 7 8 6 5 3 3 3 2 3 4 6 7 7 9 10 11 12 13 12 12 11 11 12 13 14 16 15 17 18 18 20 20 20 20 23 27 27 27 28 31 35 39 42 45 45
6 5 3 1 2 4 5 4 5 4 5 4 3 3 2 2 2 2 3 3 4 6 8 10 11 13 14 14 14 13 13 16 21 23 19 17 19 22 22 19 19 21 23 25 25 27 29 32 36 40 42 44 44 44
8 4 3 2 4 5 5 6 7 6 7 6 7 7 6 5 5 4 4 2 1 4 6 7 8 10 10 11 13 13 12 14 16 17 15 13 11 14 17 19 21 22 24 26 28 31 35 38 41 42 42 42 41 39
3 4 3 5 6 9 9 9 8 7 8 8 6 4 2 2 1 1 0 1 3 6 7 8 9 9 9 9 9 8 6 6 8 11 12 14 15 15 16 18 21 24 28 31 34 36 39 39 40 40 38 37 36 34
3 5 4 6 8 5 4 4 3 4 5 5 2 1 1 1 2 2 2 4 5 6 6 6 6 6 5 6 7 9 12 13 13 13 13 15 17 19 22 25 29 31 31 33 35 36 38 37 34 33 33 33 32 31
7 8 9 7 5 3 4 3 3 3 4 2 0 1 1 1 3 3 3 6 6 6 6 6 8 9 10 10 10 11 12 13 15 17 19 21 24 27 28 29 30 32 34 35 36 34 32 31 31 32 32 32 31 30
8 7 5 5 5 5 4 4 3 2 2 1 1 2 2 2 3 7 9 9 9 9 10 10 11 12 13 14 14 16 17 19 22 24 26 26 26 26 28 30 31 33 34 32 31 31 31 31 32 32 31 30 29 28
13 11 9 8 6 4 3 2 1 2 4 6 7 8 9 10 11 12 12 13 14 14 15 15 16 17 18 19 20 21 22 22 23 23 24 26 29 31 31 33 33 33 33 32 32 32 32 32 31 30 29 28 27 28
8 5 4 3 3 3 5 6 8 10 12 12 13 14 14 15 16 16 17 17 17 17 17 18 19 19 20 20 19 19 19 19 21 24 27 29 31 32 33 33 33 33 33 32 32 32 31 30 30 29 28 27 27 28
4 5 5 7 8 9 11 12 13 14 14 14 14 16 16 17 17 17 18 18 18 19 19 18 17 17 17 18 19 20 21 23 25 27 28 30 32 32 32 32 32 32 32 32 31 31 30 29 29 28 27 28 28 28
9 10 11 12 13 13 13 12 12 13 13 14 15 17 18 19 19 19 17 15 14 14 14 15 16 18 19 19 20 22 24 26 27 30 32 32 33 33 33 33 33 33 32 31 31 30 29 28 28 27 27 27 27 26
11 12 13 11 11 11 11 11 13 15 15 15 16 16 16 15 14 11 11 11 12 14 16 17 18 18 19 22 23 24 28 31 33 34 34 34 34 34 34 34 33 32 31 30 29 28 28 27 27 26 26 26 25 25

GFSWCAN_700_spd_024.txt.gz
Wind_Speed
38 37 43 38 36 38 39 38 42 46 44 53 53 52 63 64 74 64 49 32 18 34 32 44 37 41 25 28 30 29 27 24 21 15 15 10 10 13 9 6 6 6 7 9 12 7 7 10 6 4 9 9 15 24
34 41 40 34 34 35 34 38 41 43 46 41 51 65 55 80 71 57 41 41 19 21 40 45 44 41 30 26 24 29 28 21 20 16 12 12 11 12 14 7 11 8 10 7 8 1 8 7 11 13 16 20 23 22
37 33 30 28 28 31 31 31 34 39 37 41 58 65 79 78 66 46 34 48 23 30 39 35 32 35 33 30 25 26 25 17 19 20 14 12 10 12 12 12 10 11 13 13 14 9 5 8 14 13 9 15 17 20
29 25 25 26 30 33 37 39 37 37 45 53 49 74 75 76 59 33 20 11 18 32 30 30 31 31 29 33 31 26 27 23 20 17 13 16 13 11 12 9 11 11 12 8 10 12 12 9 13 16 20 23 24 24
27 29 29 22 25 34 33 41 44 52 49 59 73 73 67 48 46 22 23 20 15 16 18 23 26 24 28 29 27 31 27 24 22 19 19 19 17 16 13 13 14 14 12 14 12 14 18 21 26 25 27 28 28 25
35 32 27 31 42 43 40 38 48 57 61 73 63 67 61 46 34 25 25 25 24 19 7 24 25 24 25 28 27 32 29 23 22 23 23 23 20 17 12 15 15 19 18 18 20 22 23 25 26 28 28 27 26 27
34 37 39 43 48 52 54 60 62 52 56 60 66 64 55 45 31 28 20 25 21 19 15 19 16 25 27 29 31 30 29 29 27 27 24 23 22 20 19 17 19 17 20 22 20 21 27 27 29 27 25 27 30 29
37 37 40 41 44 44 48 47 52 54 56 55 56 53 45 41 32 21 17 20 23 18 20 9 11 27 29 28 29 32 30 29 28 24 24 25 22 21 19 20 22 21 24 24 25 25 28 27 26 26 28 27 25 25
35 33 34 39 41 39 39 40 42 44 44 46 47 48 41 35 30 22 16 15 18 25 20 9 16 25 32 29 30 28 29 26 23 26 24 22 22 16 18 22 23 23 27 28 27 28 28 26 27 26 23 23 23 22
44 31 32 34 35 37 39 39 40 41 42 42 42 45 41 34 31 26 19 15 15 22 6 8 18 22 32 30 29 28 24 19 16 21 22 25 25 24 23 24 26 27 29 29 29 27 26 25 22 22 22 18 15 15
38 41 35 32 33 35 36 36 38 39 40 42 42 42 30 38 25 22 11 10 8 13 7 9 21 18 25 33 32 26 16 16 11 15 18 18 24 23 25 26 29 30 30 28 25 23 21 20 20 15 12 12 12 12
26 29 40 35 32 33 30 30 36 41 42 40 40 36 31 30 12 11 10 9 9 11 12 15 17 16 17 21 17 22 13 10 8 13 14 10 19 18 21 24 27 27 26 22 20 17 15 11 11 12 11 11 12 13
20 16 18 32 41 38 34 36 33 38 38 35 29 26 16 16 11 8 9 10 7 15 21 22 20 18 16 18 14 10 10 12 11 9 9 16 15 18 22 23 23 23 19 15 13 11 10 11 11 11 11 12 13 14
16 14 9 9 20 37 33 34 34 40 35 25 21 15 8 11 10 9 18 18 13 16 18 19 19 17 15 15 9 7 10 7 8 8 14 15 15 16 18 19 18 16 14 11 10 10 10 9 10 11 13 15 17 18
10 11 11 8 14 20 28 26 34 31 28 21 11 8 10 9 15 12 14 13 11 8 12 14 15 13 11 8 7 7 6 7 7 9 11 12 13 14 13 13 9 10 10 10 10 10 10 12 13 15 17 18 19 20
14 12 12 12 12 12 17 26 29 30 22 7 5 13 15 14 15 12 13 14 15 15 14 14 14 8 11 7 8 7 5 5 8 12 12 11 9 8 12 9 9 10 11 10 11 12 13 15 17 18 18 19 21 22
19 10 12 8 8 10 12 15 17 14 6 7 10 11 10 12 11 11 11 12 13 14 13 8 7 7 5 5 5 6 6 9 10 10 8 5 4 6 8 11 11 12 12 12 14 15 16 17 18 19 20 20 23 24
13 16 17 16 15 10 8 8 10 5 15 17 14 11 9 9 9 7 6 7 7 8 8 7 6 7 5 5 3 2 2 2 1 2 3 2 9 13 11 11 12 13 14 15 15 16 17 18 20 20 21 22 25 27
21 17 14 12 11 8 11 13 11 13 17 16 12 9 7 7 5 4 4 2 3 4 6 7 4 6 6 6 4 2 2 4 3 1 4 6 8 10 13 13 12 14 16 16 17 19 18 20 20 22 23 26 27 30
15 14 13 12 10 8 9 11 10 10 12 10 8 6 3 3 3 3 5 6 6 6 6 5 7 6 5 5 4 4 5 5 5 6 6 8 10 12 12 13 16 16 17 18 20 21 22 22 23 25 27 29 30 33
11 11 9 9 7 7 9 9 11 13 14 11 9 7 6 5 5 6 5 4 4 5 10 8 6 5 5 6 6 7 7 8 8 8 9 11 13 14 15 15 15 18 20 21 21 23 23 24 28 29 29 31 34 39
10 9 8 8 6 8 8 8 11 9 9 9 7 5 4 3 3 3 4 4 4 4 4 4 6 7 8 10 10 11 10 10 11 12 14 17 20 23 23 23 15 20 25 24 22 21 23 27 29 30 33 36 41 44
8 7 6 6 5 5 7 6 6 5 5 6 5 4 4 3 3 3 2 2 2 1 3 5 8 10 11 11 12 13 13 13 13 14 17 20 18 18 18 20 22 21 18 18 20 24 27 29 32 35 39 41 43 44
8 6 5 4 4 5 5 5 6 5 5 5 5 6 5 5 4 4 6 4 2 1 3 5 7 8 9 10 10 11 12 13 13 14 15 17 13 11 11 13 16 18 19 22 25 28 31 35 37 39 41 41 41 38
4 4 4 5 5 7 7 8 8 8 9 8 7 5 3 2 2 3 2 1 1 4 5 7 8 9 10 10 9 8 7 6 6 7 10 12 15 16 16 17 19 21 23 27 30 34 36 37 38 39 38 36 36 35
5 4 4 6 8 6 6 6 5 6 6 4 3 2 2 1 1 2 1 2 3 5 6 7 7 7 7 8 8 9 11 12 13 13 14 15 16 17 19 22 26 26 29 31 33 34 36 37 37 36 35 34 34 34
8 9 11 10 8 7 7 6 5 4 3 2 2 2 2 2 2 2 2 5 7 8 9 9 10 11 11 12 12 13 13 14 14 16 17 19 21 23 25 27 28 30 32 34 36 36 35 35 34 33 33 33 33 32
11 9 8 7 7 7 8 7 5 3 3 2 2 2 1 2 3 6 8 10 11 12 13 13 14 15 16 16 17 17 18 19 20 21 23 24 24 23 25 28 30 32 33 33 34 34 34 34 33 33 33 32 31 30
15 12 9 8 6 5 5 4 2 1 3 5 7 8 8 10 11 12 14 15 16 16 17 18 19 19 20 20 21 21 21 22 22 22 23 25 29 30 29 30 31 32 33 33 33 33 33 33 32 32 31 30 30 29
8 6 5 4 4 4 5 6 7 9 11 12 12 13 13 14 15 16 17 18 18 19 19 19 20 20 21 21 20 19 20 20 21 23 25 26 28 30 32 34 35 35 35 34 34 34 33 33 32 32 31 30 29 28
6 7 7 7 9 10 11 12 13 13 13 12 13 14 14 15 16 16 17 18 19 19 20 19 18 17 17 17 18 20 20 20 22 25 26 29 33 35 36 37 37 36 36 36 35 35 34 32 31 30 29 28 28 27
9 11 12 12 14 13 13 12 12 13 15 14 14 15 16 17 17 17 15 14 13 12 13 13 15 16 17 18 19 21 23 25 27 31 35 37 37 38 38 37 37 37 36 35 34 33 32 31 29 29 28 27 27 26
9 10 10 11 12 12 11 11 12 14 15 15 16 15 13 12 11 10 9 9 11 12 14 15 16 17 20 23 24 25 28 33 37 39 39 38 37 37 37 37 36 35 34 33 32 31 30 29 28 28 27 27 26 26

GFSWCAN_700_spd_027.txt.gz
Wind_Speed
36 37 36 39 36 32 30 33 31 31 41 38 49 49 46 70 57 62 58 57 38 16 29 36 38 51 43 41 39 35 36 33 32 25 21 13 11 18 12 12 10 10 11 14 14 8 9 12 13 13 12 14 11 12
34 34 37 38 35 34 35 32 31 34 46 44 49 49 48 73 65 63 55 51 26 28 35 40 49 41 43 41 36 36 36 33 27 25 17 18 12 21 19 12 12 10 11 11 7 4 6 7 10 11 12 12 19 23
30 31 40 36 35 35 34 31 32 35 37 46 48 46 48 72 59 68 50 35 22 31 32 40 52 44 39 33 27 31 40 30 28 27 21 17 15 17 18 21 13 17 11 12 9 6 8 5 15 18 19 21 22 18
31 39 38 35 35 35 32 32 36 39 42 40 39 39 45 79 58 64 48 37 37 16 24 37 46 43 34 29 30 32 30 27 24 21 19 18 14 13 15 11 16 19 17 16 15 15 16 16 18 20 22 23 22 23
31 30 30 32 34 31 30 31 31 35 33 39 32 38 55 63 71 50 42 37 36 15 10 35 48 39 36 30 29 24 28 27 26 22 23 20 15 13 13 15 16 17 19 18 18 19 22 24 25 24 22 23 25 26
21 21 24 28 30 30 33 33 33 33 32 33 31 42 72 63 57 38 26 30 37 18 18 24 40 36 33 31 29 25 25 24 23 23 25 22 17 18 12 20 18 17 17 18 19 20 22 22 22 23 25 26 27 25
20 24 24 24 25 26 30 34 35 37 36 42 54 55 61 74 52 34 18 13 34 18 10 21 28 34 35 36 36 34 31 31 29 27 26 23 20 20 23 21 19 16 17 18 21 25 25 24 23 24 25 26 26 26
34 29 31 34 33 32 39 43 46 49 44 53 54 65 72 65 43 12 23 23 24 20 22 20 22 30 34 36 37 36 37 34 30 28 27 24 22 24 25 25 19 18 18 20 23 25 26 26 25 25 25 26 27 27
34 35 36 37 40 35 35 36 45 46 51 48 52 60 63 40 26 15 26 22 20 17 15 14 21 23 29 32 33 32 33 33 29 28 27 23 26 24 23 21 18 22 23 25 23 24 26 25 25 25 26 26 23 20
40 39 42 49 38 42 43 43 51 55 62 56 60 47 27 41 21 22 19 15 12 13 10 11 20 18 29 29 30 29 26 20 20 25 26 26 27 27 24 21 19 23 26 25 25 25 24 25 26 27 23 20 18 15
33 33 40 41 45 50 47 45 44 59 54 43 33 24 23 18 14 13 7 6 5 4 8 16 14 16 28 29 27 25 15 16 12 17 21 18 28 26 25 24 26 27 28 28 26 26 25 24 21 19 18 15 13 13
35 34 31 32 33 35 38 42 46 46 46 38 30 27 20 14 4 5 7 7 6 8 12 6 15 16 22 29 17 24 12 11 8 17 17 15 20 20 22 24 27 28 28 28 27 25 21 16 15 13 11 11 12 13
34 30 33 34 33 32 33 33 36 34 29 29 27 22 4 10 3 4 6 6 4 1 13 10 9 18 17 17 10 11 9 10 6 9 9 12 12 16 19 22 24 25 25 23 19 16 14 11 10 10 9 10 11 12
31 33 34 38 47 47 39 33 33 35 29 19 15 14 6 3 2 3 9 12 12 13 19 21 16 12 15 17 7 7 8 10 9 9 11 14 16 19 22 23 23 22 16 14 13 12 12 10 8 8 9 11 12 13
25 30 32 34 32 30 30 27 29 30 26 15 9 6 8 5 9 8 11 14 11 11 15 21 19 15 12 8 8 6 8 6 7 8 11 12 14 15 18 18 16 13 13 13 11 9 9 8 8 9 11 13 15 15
21 19 20 22 28 29 29 32 33 30 20 12 6 9 13 10 13 12 16 16 13 12 18 16 13 7 6 6 7 5 5 5 5 7 7 9 12 14 13 11 11 9 8 8 9 8 8 9 10 12 14 15 16 18
12 17 20 16 11 12 16 21 25 24 11 10 11 13 14 16 15 15 15 16 17 17 18 12 9 7 7 6 7 6 4 4 5 8 6 7 7 5 6 10 8 8 9 9 8 10 11 13 14 14 16 17 18 20
19 19 18 16 14 12 13 17 16 8 20 21 17 15 14 14 14 13 12 14 10 10 12 8 8 7 6 6 7 6 4 4 6 5 2 3 6 5 9 14 12 8 8 10 12 13 15 16 16 17 17 20 21 23
20 19 18 16 14 9 13 13 15 20 23 19 15 12 11 11 10 10 8 7 5 5 7 9 5 9 10 11 9 7 7 4 2 2 4 7 9 10 11 11 11 12 13 13 15 16 17 18 19 19 20 21 24 27
19 18 17 15 12 14 23 20 20 16 18 15 10 9 7 7 6 4 4 4 2 1 2 7 12 10 9 7 6 5 5 5 5 4 5 8 10 11 13 14 15 15 17 18 18 18 18 19 20 21 22 24 27 29
15 15 15 16 14 19 22 13 14 16 15 10 8 6 6 5 5 5 4 4 5 5 13 13 10 7 6 5 6 6 6 6 7 7 8 9 10 11 15 18 19 20 20 19 21 24 24 21 22 21 24 28 29 32
16 16 14 12 15 19 16 15 14 13 10 11 8 5 6 4 4 3 3 1 5 9 8 6 4 3 5 6 8 9 10 11 11 11 12 13 15 18 20 24 27 24 24 24 24 25 23 21 22 25 28 30 33 37
12 11 11 13 11 9 13 12 11 9 7 8 6 5 4 3 3 2 3 6 8 6 3 1 2 2 3 4 5 6 8 10 11 13 14 15 16 19 20 20 20 19 18 18 17 18 20 23 26 29 31 35 39 41
11 9 9 6 7 7 7 6 7 6 6 5 4 6 6 5 4 6 8 8 6 4 3 4 4 4 5 6 7 7 6 7 8 10 11 12 13 12 12 12 13 15 16 17 20 22 25 28 31 35 37 38 39 38
6 6 5 7 7 7 8 9 8 8 10 9 9 8 5 4 3 5 5 5 2 2 3 4 6 6 6 7 8 8 8 7 7 8 9 11 13 15 15 16 17 18 20 23 26 29 32 34 35 35 36 36 36 35
5 6 5 6 8 6 7 9 8 9 7 7 6 5 4 3 2 3 3 3 2 3 5 5 6 7 8 8 9 10 10 11 12 13 14 15 16 17 19 21 22 25 26 28 30 31 32 33 34 34 34 34 34 34
10 12 14 13 12 9 10 8 7 5 5 4 5 5 4 2 1 1 1 2 5 7 8 9 10 10 11 12 13 14 15 15 15 16 17 19 20 21 23 24 25 26 28 30 31 32 33 33 33 34 33 33 32 32
16 14 13 11 9 9 9 8 6 5 4 4 4 2 1 1 2 4 6 8 9 10 12 13 15 16 17 17 17 18 18 19 20 21 22 21 20 20 22 24 26 29 31 32 33 34 34 34 34 34 34 33 32 32
18 14 12 10 8 7 7 6 4 3 2 4 5 6 6 8 9 10 12 13 15 16 16 17 18 18 18 19 20 20 21 20 20 21 22 24 26 26 27 29 30 32 34 35 36 36 35 35 35 34 34 33 32 30
12 10 8 7 7 7 6 6 6 8 9 10 10 10 10 10 11 13 14 15 16 17 17 17 18 19 20 18 17 17 18 19 20 22 23 25 27 29 31 34 36 38 38 37 37 36 36 35 34 33 33 32 31 29
8 8 8 9 9 9 10 11 10 10 9 10 10 10 10 11 12 14 14 15 16 17 15 14 14 13 14 16 18 19 18 20 22 24 26 28 33 37 40 40 39 39 39 38 37 36 35 33 32 31 30 29 28 27
10 10 10 11 11 10 10 10 10 10 13 10 11 12 13 11 10 10 9 9 9 10 10 11 13 15 16 17 20 23 24 25 27 32 36 39 39 38 39 39 38 37 37 36 35 34 33 32 31 30 29 28 27 26
9 10 11 11 12 11 10 11 11 11 12 12 12 10 8 7 7 8 8 9 10 11 12 14 15 18 22 24 25 28 32 36 38 39 39 38 37 37 36 35 34 34 33 32 32 31 30 29 28 27 26 26 25 24

GFSWCAN_700_spd_030.txt.gz
Wind_Speed
29 32 34 36 36 36 38 38 40 42 43 45 47 53 61 63 50 84 73 45 42 30 31 30 42 36 45 52 55 48 39 38 41 35 29 23 14 21 19 17 20 19 16 17 20 12 13 15 19 21 16 14 14 14
34 35 35 36 37 36 35 35 35 37 40 43 47 47 65 56 51 78 72 51 45 30 14 42 43 54 36 51 51 39 40 37 33 34 22 25 16 23 22 18 20 15 20 15 13 8 9 9 15 15 12 11 12 13
29 33 34 34 32 33 35 32 27 30 36 41 48 52 55 51 52 74 78 54 34 38 12 42 37 49 40 49 48 43 35 36 39 38 23 22 25 21 22 24 20 21 14 16 13 15 12 12 14 15 14 13 15 18
29 31 32 31 31 31 31 29 27 33 37 43 41 44 50 45 61 72 72 58 31 16 22 25 30 38 43 44 43 38 35 31 36 37 28 27 21 20 22 20 26 23 22 21 19 18 17 17 18 18 18 18 19 18
29 32 31 33 35 32 30 33 36 37 34 49 43 46 45 40 53 67 60 55 28 34 19 34 31 30 41 32 41 29 32 32 32 37 23 26 27 22 22 21 21 24 25 25 25 21 21 19 21 21 22 22 20 21
33 32 32 31 30 28 27 32 34 35 35 40 43 44 41 39 45 63 46 44 33 39 19 13 34 40 46 38 40 30 33 38 42 36 35 29 26 22 17 24 22 21 18 19 20 19 19 19 21 23 23 24 25 27
30 27 28 29 29 27 25 27 27 31 33 33 24 32 31 38 65 64 50 46 38 22 15 8 29 47 41 35 34 49 40 37 36 37 33 29 25 23 23 22 20 21 18 18 17 16 19 21 22 23 24 26 27 28
25 25 27 27 27 25 26 26 26 28 32 28 27 34 33 56 69 59 30 18 27 37 13 7 7 41 44 33 29 28 33 32 31 32 30 26 25 28 29 28 21 19 19 18 17 17 22 24 24 25 25 26 27 27
19 27 34 31 28 27 29 29 27 32 31 28 28 42 57 59 57 38 25 25 31 29 8 9 16 32 39 37 30 27 26 25 25 27 27 27 31 27 27 25 23 23 22 19 18 22 25 25 25 24 26 26 26 26
30 33 30 30 36 35 35 36 36 28 38 41 40 43 48 58 45 27 21 18 19 11 7 14 19 18 31 27 29 27 25 17 19 25 26 30 29 31 28 27 22 21 21 21 23 26 26 25 25 25 24 26 25 22
36 33 36 40 41 42 42 41 51 44 46 38 29 31 41 44 15 4 8 6 7 8 10 16 21 23 27 30 29 22 17 17 12 18 22 23 30 31 28 27 24 25 24 27 28 27 27 25 24 25 25 23 20 16
42 41 43 44 47 52 50 52 45 41 30 19 34 36 34 8 6 7 9 7 7 7 11 12 13 13 20 23 17 20 16 11 8 16 20 18 22 26 28 27 28 28 29 29 28 25 23 24 25 23 20 18 15 13
36 38 38 35 36 41 45 44 25 30 26 23 15 12 8 6 6 6 6 7 6 11 14 14 15 18 18 21 14 13 11 11 7 11 9 18 20 24 26 26 26 27 28 27 25 23 23 20 18 16 15 13 12 10
27 30 32 35 39 37 32 30 30 19 25 14 6 9 9 7 6 6 12 16 12 10 16 14 16 18 21 25 10 11 8 10 9 9 10 9 14 13 11 17 24 24 20 19 20 20 17 15 13 13 12 11 9 10
24 28 30 35 28 30 31 30 26 20 13 11 9 7 6 7 7 7 8 10 13 14 19 18 16 10 9 5 7 7 10 7 8 10 12 17 22 24 20 16 16 15 16 17 16 14 12 10 11 11 8 8 9 11
34 33 32 32 36 32 31 29 27 19 13 7 7 12 11 9 11 10 10 12 10 16 23 20 13 7 7 6 7 5 6 5 8 7 8 9 8 8 8 9 10 12 10 7 7 8 11 12 9 7 8 9 10 12
11 17 16 17 18 16 16 20 20 17 6 8 15 14 15 14 14 13 13 12 12 22 20 11 10 6 7 6 7 7 6 8 9 7 6 6 6 4 3 3 5 5 7 9 11 11 9 8 8 9 10 11 13 15
15 19 17 14 13 16 18 18 16 5 17 20 17 14 12 12 11 10 8 9 11 15 15 9 8 7 6 6 9 11 11 10 10 9 10 5 2 1 4 8 11 10 9 10 10 10 10 9 9 11 14 15 18 20
21 18 16 16 15 12 15 11 12 16 23 19 14 10 7 10 12 12 9 5 3 3 7 8 5 10 12 14 12 12 11 9 5 0 1 4 5 7 10 10 11 10 10 10 11 11 13 14 16 17 18 21 22 24
21 19 15 12 11 12 16 19 25 18 20 16 12 10 9 12 11 9 8 7 7 6 8 16 17 15 12 10 8 7 5 2 2 4 5 7 9 10 10 11 12 12 13 13 15 17 19 20 21 22 23 24 25 25
18 20 22 22 24 26 29 19 20 17 17 13 10 7 7 5 3 2 2 3 0 3 15 14 11 9 7 5 4 3 3 4 5 5 5 7 8 10 13 15 16 17 18 20 22 23 23 23 24 25 25 26 27 28
19 18 15 18 23 26 21 19 17 15 13 12 9 7 9 7 6 4 5 1 10 14 12 9 5 2 1 3 5 6 7 8 8 9 10 11 12 14 17 20 20 20 22 23 22 23 24 25 26 26 26 27 28 31
16 14 13 16 15 12 16 15 12 9 7 9 9 7 8 6 6 5 5 10 13 9 7 4 2 1 1 2 3 4 6 7 9 9 10 11 12 15 18 19 20 22 23 23 23 21 21 21 22 25 27 30 33 36
10 9 9 7 8 9 9 10 10 9 8 7 6 8 8 7 6 7 11 10 10 7 6 5 2 2 3 3 4 4 5 5 6 7 9 10 11 13 14 14 14 15 17 18 19 21 23 25 28 30 33 34 35 35
5 7 7 9 8 9 10 12 11 10 12 10 10 8 6 5 5 9 8 7 6 5 4 4 4 4 5 5 6 6 7 7 8 9 10 11 13 15 17 18 19 20 21 23 25 27 29 30 31 32 34 35 35 35
5 6 5 7 10 8 9 11 12 14 11 8 8 7 6 5 4 6 6 5 4 3 3 4 6 7 7 8 8 9 10 12 13 13 14 15 16 17 19 21 23 24 26 27 28 29 31 32 34 34 35 35 35 35
10 12 16 15 13 11 12 11 10 8 8 6 7 7 3 1 2 4 5 2 1 4 5 6 7 9 11 13 14 15 15 16 17 18 19 20 22 23 24 25 25 26 27 29 31 32 32 33 34 35 35 36 36 36
20 19 16 14 12 12 10 10 8 7 6 5 4 2 1 1 2 3 4 6 6 8 10 12 13 14 15 16 16 17 18 18 18 19 19 20 20 21 22 24 26 28 30 31 33 35 37 37 37 37 37 37 37 37
21 18 14 13 10 9 9 8 6 4 2 3 4 4 4 6 7 6 8 10 10 11 13 15 15 15 17 18 18 18 18 18 19 19 20 21 23 25 27 29 31 33 37 39 40 40 40 40 39 38 37 36 35 34
14 11 9 7 7 7 6 6 5 6 6 7 7 7 6 7 7 8 10 12 13 14 14 16 18 16 14 13 14 15 16 19 21 22 24 27 29 31 33 37 40 41 41 40 39 38 37 37 37 36 35 34 33 32
11 10 8 9 8 8 7 7 7 7 7 6 6 6 7 8 9 10 11 12 11 11 11 11 11 11 13 14 15 16 18 21 24 26 29 32 36 39 40 40 40 39 39 38 37 36 35 34 33 32 31 30 29 29
9 10 10 9 8 7 7 8 9 10 8 8 9 9 9 8 7 6 6 7 7 7 8 10 12 14 16 19 21 23 26 29 32 33 34 34 34 35 35 35 36 35 35 35 34 34 33 32 31 30 29 27 26 26
8 9 10 10 9 8 8 8 7 9 10 10 9 5 2 4 4 5 6 7 8 9 11 14 17 19 22 25 27 28 28 29 31 32 33 33 33 33 33 33 33 32 32 31 31 31 31 30 29 28 27 26 25 24

GFSWCAN_700_spd_033.txt.gz
Wind_Speed
16 21 24 25 33 36 40 43 39 40 39 42 46 50 63 58 54 72 62 50 49 40 34 37 38 40 22 38 54 48 41 47 45 31 36 24 13 28 26 25 29 31 25 23 24 15 14 20 20 25 20 20 13 13
24 27 31 37 36 37 38 37 35 38 40 40 42 57 47 58 61 67 67 44 58 29 24 34 34 41 46 33 45 44 49 38 37 32 27 31 17 26 29 26 27 25 26 22 18 17 14 9 14 23 24 19 13 10
24 25 27 30 33 34 32 34 36 35 38 50 50 50 52 50 74 48 69 65 57 32 34 17 24 24 48 41 31 47 40 42 48 37 36 24 23 25 29 31 28 28 22 23 20 21 18 15 13 14 16 15 14 11
29 30 32 31 32 32 32 33 34 35 42 48 47 38 43 57 66 44 57 69 53 26 34 33 28 36 46 51 36 37 33 37 34 38 35 29 25 30 29 26 34 31 26 25 24 22 18 18 18 16 16 15 15 17
27 28 27 29 31 30 29 29 28 31 35 37 39 38 40 48 51 46 50 72 47 36 11 29 16 36 34 51 37 35 37 33 34 35 37 31 32 25 30 30 31 27 28 27 25 20 21 16 15 16 18 20 21 22
26 27 29 30 31 29 22 25 25 28 32 35 37 40 39 44 49 39 36 58 59 44 20 6 21 28 23 35 41 38 39 35 35 34 33 33 34 32 25 30 29 24 21 19 20 16 17 17 18 18 20 22 23 24
27 32 31 28 26 30 31 30 31 29 34 35 43 45 43 43 43 38 37 52 65 51 14 17 9 15 22 29 37 36 43 37 39 40 35 37 38 29 27 29 26 25 21 19 19 20 21 20 21 21 21 22 24 25
26 27 27 26 26 29 31 30 28 30 34 31 32 31 35 32 22 25 31 29 52 36 14 15 14 15 29 36 34 39 45 43 44 38 41 35 37 34 29 32 26 22 17 21 21 20 20 20 21 23 24 25 27 28
26 25 26 26 26 28 28 32 30 29 30 26 30 25 20 18 23 36 25 21 41 39 12 12 20 20 34 44 43 42 38 37 27 41 34 33 35 28 32 29 26 22 22 20 22 23 22 23 26 27 27 28 28 28
26 26 27 25 28 30 30 29 33 36 35 31 29 28 21 25 36 35 31 9 14 35 37 23 17 21 14 40 41 25 31 42 13 26 27 26 28 29 27 27 24 22 23 24 27 27 26 27 28 28 27 27 28 27
32 28 28 26 27 32 32 35 35 32 33 36 30 24 33 25 32 36 16 10 12 15 24 30 30 24 17 31 20 19 13 7 7 11 16 12 25 31 32 29 27 26 25 29 32 33 29 31 28 26 26 26 26 26
32 36 33 29 34 32 39 38 41 42 31 21 25 31 32 35 24 18 11 7 5 7 12 14 13 16 13 23 11 13 6 6 6 12 13 13 20 19 24 27 29 29 31 33 34 32 30 27 26 25 25 25 24 25
40 41 43 41 40 39 49 49 40 34 28 24 30 23 24 18 8 5 5 8 7 13 18 22 18 14 8 9 8 8 9 10 7 10 8 14 17 23 23 25 29 31 31 32 31 30 28 27 25 23 22 20 20 19
52 52 52 51 43 37 36 37 37 26 22 27 25 11 4 5 5 10 15 15 13 14 14 20 18 11 12 15 9 8 8 8 10 9 8 10 15 19 23 25 26 26 26 22 22 25 25 22 20 18 16 15 15 16
44 41 36 26 35 41 30 30 27 18 17 14 8 4 8 14 15 13 12 12 12 15 14 14 13 6 15 7 5 5 8 5 5 5 9 13 12 11 10 12 16 18 20 22 22 21 20 15 12 12 12 13 13 11
35 37 28 22 16 22 14 16 14 17 15 7 9 17 14 10 11 9 8 9 10 15 18 16 8 3 2 8 5 4 6 3 4 4 7 7 12 13 15 16 15 14 11 9 8 8 8 7 9 11 14 13 11 10
25 27 30 25 23 21 15 12 11 8 6 9 12 11 13 11 8 7 7 8 9 19 16 9 6 4 7 6 6 4 4 6 7 4 5 6 6 6 6 6 7 6 6 5 5 8 11 13 15 13 11 11 11 13
22 15 24 26 23 23 22 21 9 11 25 20 16 14 11 10 7 7 7 7 10 12 12 8 7 6 5 6 10 10 8 8 8 10 11 11 9 7 4 4 8 8 8 9 11 12 13 12 11 11 13 15 17 19
15 14 13 15 16 15 12 12 14 22 23 20 14 12 11 17 18 17 12 7 5 6 9 8 6 13 16 16 14 11 10 11 10 6 5 5 7 6 6 9 9 8 9 10 12 12 12 12 14 16 18 20 22 23
16 14 14 16 17 15 13 28 29 22 22 21 17 14 14 15 13 11 9 8 8 4 8 15 22 18 15 13 11 9 7 5 4 3 3 6 8 9 9 10 10 10 11 12 12 12 14 17 19 20 22 23 25 26
22 25 20 14 16 17 28 21 22 20 20 20 15 13 15 9 7 7 4 6 5 15 22 20 15 13 11 9 7 5 3 2 2 3 4 5 6 8 9 10 12 14 15 15 16 17 19 20 21 23 24 26 27 28
23 18 23 27 30 30 23 22 20 17 16 15 12 12 13 12 10 11 12 7 18 22 18 13 9 6 4 2 0 2 3 3 4 4 5 7 9 10 12 14 16 18 18 18 18 19 21 22 24 25 27 28 28 28
16 12 16 20 18 14 19 18 13 11 8 12 10 9 10 10 11 8 10 17 18 15 12 8 6 5 3 2 2 2 3 3 4 5 6 6 8 9 11 12 13 16 18 20 22 24 24 25 25 25 26 28 30 32
8 7 12 10 10 12 11 12 12 13 11 11 9 12 12 12 10 12 14 14 13 12 8 6 5 4 3 3 4 4 4 4 5 6 7 8 10 11 12 13 15 17 18 20 21 23 24 26 27 29 32 33 35 35
4 7 8 10 9 10 11 14 13 13 14 11 11 9 8 6 7 12 11 10 9 7 6 5 5 4 3 3 4 5 6 6 7 8 10 11 13 14 16 18 19 21 22 24 26 28 29 31 32 33 34 35 36 36
5 7 6 8 11 8 10 12 12 13 10 8 8 8 7 5 4 5 7 7 6 3 2 3 3 4 5 7 9 10 11 12 13 14 15 17 18 19 20 22 23 25 27 28 29 30 31 33 34 35 36 38 39 39
11 14 19 18 16 14 15 14 11 9 8 6 7 5 3 2 2 4 5 3 0 2 3 5 7 9 11 12 13 14 15 16 17 17 18 19 20 21 22 23 25 26 28 30 31 33 35 37 39 41 42 42 42 42
21 22 19 17 14 13 11 10 8 6 5 4 3 2 0 1 3 5 4 5 6 7 9 10 12 14 15 16 16 16 17 18 18 18 18 19 20 21 23 25 27 29 31 34 37 40 43 44 43 42 41 40 39 38
23 20 16 13 10 8 8 8 6 4 3 3 4 4 4 5 5 6 7 8 9 10 11 12 14 15 16 16 16 15 13 13 15 16 18 20 23 27 30 32 35 38 40 42 42 42 42 42 41 41 39 38 37 36
17 13 9 8 7 9 7 6 6 5 6 6 6 6 5 5 6 7 8 9 11 13 14 13 12 11 11 11 13 15 17 19 21 24 27 29 31 34 35 36 36 37 38 38 38 37 37 37 36 36 36 35 34 33
13 11 9 10 10 9 7 6 6 6 6 6 6 6 6 6 8 8 9 9 10 9 9 8 8 9 10 12 15 18 21 23 26 28 29 30 31 32 33 33 33 33 34 34 35 35 35 35 34 33 32 32 31 30
10 10 9 8 8 6 6 7 7 6 7 8 8 9 8 7 5 5 5 4 5 7 8 10 11 14 17 19 21 22 23 24 25 26 28 28 28 28 28 28 29 31 32 33 34 34 34 33 32 31 30 29 28 26
9 9 8 8 8 7 7 8 9 10 10 10 8 4 2 3 4 4 5 5 6 9 12 14 16 18 19 20 21 23 24 25 24 24 24 24 24 25 25 26 28 29 31 32 32 31 30 29 28 28 27 26 25 23

GFSWCAN_700_spd_036.txt.gz
Wind_Speed
13 16 19 19 29 33 39 45 44 45 50 51 47 51 54 57 54 56 55 70 58 34 32 25 35 41 47 46 40 49 36 45 39 33 26 23 23 27 26 30 38 35 30 26 25 16 15 22 20 27 24 18 18 15
15 17 17 18 24 34 37 34 44 45 46 43 43 51 48 49 52 50 54 65 66 20 35 23 31 36 30 30 42 33 49 38 37 34 31 26 23 23 29 30 33 36 36 31 27 25 25 18 13 15 20 23 12 9
13 24 30 33 34 32 33 36 41 37 37 40 43 43 43 41 44 42 58 43 67 42 36 23 24 22 25 26 29 28 35 37 27 39 34 26 24 29 27 33 28 34 31 35 30 30 29 27 22 17 14 17 18 15
20 22 23 24 28 32 32 33 33 33 38 42 42 42 39 38 43 49 63 37 46 35 44 21 28 27 23 28 35 34 22 28 31 29 35 36 31 31 30 23 32 33 32 31 33 34 29 23 21 18 16 16 16 16
26 24 25 28 29 30 30 31 33 34 36 34 36 37 36 40 42 45 51 32 28 28 34 34 25 22 24 24 27 42 27 30 28 31 37 41 39 29 28 31 33 32 31 31 31 28 28 21 15 14 18 17 16 16
26 28 29 30 29 29 30 32 33 35 35 34 34 32 38 34 28 44 39 49 51 40 14 13 9 25 19 25 31 41 38 30 32 28 34 39 41 30 26 31 30 30 30 28 26 21 19 15 18 18 18 18 18 20
27 27 27 29 26 26 26 27 27 33 33 35 32 27 27 29 37 45 39 27 34 35 29 14 4 11 19 16 24 32 41 33 39 36 34 33 36 33 34 37 28 24 23 22 26 22 23 22 21 20 21 21 21 23
27 25 25 27 28 28 27 28 30 31 32 30 28 23 22 32 33 44 11 7 37 38 34 4 3 7 16 22 26 34 38 37 38 40 38 34 31 29 35 35 32 31 27 26 28 25 23 20 19 20 21 23 24 24
25 26 28 28 28 29 33 34 34 37 36 36 34 36 31 22 29 29 13 12 26 29 26 8 12 5 7 12 24 32 38 35 36 41 36 32 36 32 35 32 29 28 28 25 24 25 24 23 23 24 24 25 25 26
28 28 28 28 29 31 33 34 35 40 38 36 30 30 27 25 21 28 20 22 33 32 36 13 10 18 18 23 16 30 29 28 28 33 25 40 29 36 36 31 28 27 24 23 20 20 23 26 28 29 29 27 27 29
28 29 28 27 29 29 31 32 32 35 35 35 33 27 24 23 30 27 11 14 14 13 29 36 25 18 18 21 28 20 24 23 24 24 26 27 35 46 41 30 21 23 19 17 20 26 32 34 31 31 29 30 32 31
25 27 29 32 28 29 31 31 30 32 32 27 19 34 34 27 10 4 4 4 10 10 9 19 28 32 26 17 19 11 25 14 10 23 25 19 18 25 33 29 26 23 26 31 34 34 32 32 32 30 31 30 28 24
27 26 28 31 35 36 36 38 35 41 27 21 29 21 19 7 10 4 4 4 4 11 12 17 19 16 17 16 9 5 9 8 14 12 9 9 19 21 17 22 30 31 32 30 29 29 28 27 27 25 22 21 21 21
24 25 24 29 36 35 38 38 33 17 21 22 7 11 8 3 6 7 7 10 11 16 17 16 13 6 6 1 1 4 10 13 9 6 5 9 16 20 22 23 22 19 21 23 24 24 22 17 18 18 18 19 18 17
33 35 38 41 45 42 41 26 12 15 20 13 8 7 3 8 10 10 7 8 10 12 17 16 9 5 7 5 4 6 5 5 5 4 1 6 11 12 12 13 16 17 17 17 15 16 17 17 14 12 13 13 12 12
39 38 33 30 27 23 21 15 16 27 23 7 8 13 12 8 10 7 8 9 14 15 14 12 6 4 3 4 3 6 5 5 5 5 3 3 7 9 9 9 8 7 9 10 7 5 6 8 8 7 8 9 12 14
23 27 28 23 24 18 17 16 21 20 11 9 13 12 9 7 7 6 6 6 10 14 10 5 3 4 5 5 6 6 6 7 6 6 6 8 6 6 8 6 6 5 2 4 5 5 6 8 10 12 13 14 14 12
22 25 23 20 13 15 10 11 17 22 28 20 16 11 6 8 7 4 3 4 5 12 9 4 6 5 6 7 14 12 9 9 10 7 9 11 10 8 6 3 4 2 1 5 7 8 10 11 12 13 13 13 13 14
16 17 17 18 23 16 16 21 27 24 23 19 16 14 15 16 15 14 11 4 3 4 6 8 8 18 20 17 15 13 11 12 13 10 7 7 6 5 3 2 3 4 4 4 5 5 7 10 12 13 14 16 18 19
12 11 9 9 8 7 12 25 29 20 23 21 19 17 16 16 13 12 11 8 7 2 7 19 25 21 18 15 13 11 10 10 8 5 4 4 5 5 4 4 5 6 6 6 8 10 11 13 14 16 18 20 22 24
12 11 13 7 5 16 29 22 23 22 23 25 20 18 20 14 11 10 11 13 8 27 30 23 17 15 14 11 9 7 4 4 2 2 3 2 2 3 4 5 7 8 10 12 14 15 16 16 17 19 21 25 28 30
23 20 14 17 26 31 24 22 21 19 20 21 17 16 16 15 14 16 13 8 21 26 21 16 13 11 8 5 3 2 2 2 3 3 3 4 6 7 9 10 10 11 13 15 16 17 18 20 22 25 27 29 31 31
22 24 26 26 23 18 24 23 18 16 12 14 12 13 13 13 12 8 12 21 22 19 15 11 9 7 5 4 5 5 4 4 4 4 5 6 7 8 9 10 11 13 14 16 18 20 22 24 25 26 28 29 30 32
10 16 18 11 12 17 17 19 19 17 15 13 12 14 14 13 11 13 15 14 14 13 10 7 6 5 5 5 5 5 5 6 6 7 8 9 10 11 12 13 15 16 18 20 21 23 25 27 29 31 33 35 36 37
6 9 11 12 11 15 20 19 18 18 17 13 12 10 9 8 7 12 12 12 11 9 7 5 5 4 3 3 4 6 7 8 9 10 12 13 15 16 17 19 20 22 24 25 27 29 30 32 33 34 35 37 38 39
6 7 6 9 12 10 13 16 15 15 11 11 9 9 9 6 4 6 9 8 8 6 4 2 0 2 4 6 8 10 11 12 14 14 15 16 17 18 20 21 22 23 25 27 28 30 32 34 37 38 41 43 45 46
11 15 20 21 19 17 18 17 14 11 10 7 8 5 3 2 2 7 9 8 6 4 4 4 5 7 9 11 12 13 13 14 14 16 17 17 17 18 20 21 23 25 28 30 33 35 38 40 41 42 43 42 42 43
20 23 20 18 16 16 14 12 10 8 7 5 3 2 0 1 2 7 7 7 7 8 8 9 10 11 13 13 14 15 15 15 14 14 16 18 19 21 23 26 28 30 32 34 35 37 38 39 39 39 39 39 38 38
24 21 18 14 11 10 11 11 9 7 5 4 4 5 4 4 3 4 6 7 8 9 10 11 12 12 12 12 11 10 11 13 15 16 19 22 25 27 28 29 30 32 33 33 33 34 35 36 37 37 37 37 37 37
19 15 12 10 9 12 10 8 7 6 6 7 7 6 5 4 4 5 6 7 8 9 9 10 10 10 9 11 12 13 16 19 22 24 24 25 26 27 28 28 28 28 28 28 30 32 34 34 34 34 34 34 34 34
17 13 11 10 11 9 7 6 6 7 7 8 8 7 7 6 7 7 7 7 7 5 5 6 8 9 11 13 16 18 20 21 22 24 25 26 26 25 24 24 24 25 26 28 31 32 32 30 29 28 28 28 29 29
12 11 10 9 7 6 6 6 6 6 7 8 8 9 9 6 3 2 3 4 5 5 6 8 11 14 15 16 17 19 21 22 22 22 22 21 21 21 21 22 22 24 25 27 29 30 29 28 27 27 27 27 27 27
11 10 8 8 7 6 8 9 9 10 9 10 10 6 3 2 3 3 4 4 5 8 10 12 12 13 15 17 18 18 18 18 17 17 17 17 18 19 19 20 21 22 24 25 27 28 28 28 27 26 26 26 26 26

GFSWCAN_700_spd_039.txt.gz
Wind_Speed
13 16 11 16 25 27 33 36 39 43 48 44 54 46 50 48 61 64 59 47 50 27 45 32 30 33 42 37 42 34 31 36 29 36 24 19 15 27 24 20 29 33 30 25 29 21 15 26 25 27 23 22 23 18
12 13 17 20 25 27 32 33 37 36 42 46 39 49 40 48 59 59 55 48 49 52 18 22 25 43 31 30 26 31 43 35 44 27 29 21 19 22 27 26 26 30 33 35 29 33 32 24 26 27 25 21 18 15
27 21 19 23 27 30 33 31 37 37 36 40 39 41 43 52 49 45 44 43 45 45 37 30 26 30 31 35 34 35 36 29 31 45 36 27 16 31 28 34 32 35 32 36 31 33 33 33 32 28 25 19 15 14
20 30 32 27 28 32 32 36 33 37 34 39 39 39 48 49 46 42 43 44 38 43 41 19 17 32 33 28 33 37 39 35 29 24 36 39 31 30 25 33 29 33 34 37 37 35 33 33 31 31 24 20 18 17
21 26 22 22 27 36 35 31 31 37 40 39 37 43 45 44 39 36 33 34 37 40 27 38 16 15 27 31 29 30 30 32 32 30 35 33 31 29 30 28 38 37 35 36 38 30 27 22 25 23 20 20 19 18
19 25 28 30 33 36 34 33 34 36 36 38 41 43 42 37 32 32 27 36 38 49 27 7 26 12 17 19 25 29 31 27 26 39 35 30 29 29 27 41 37 32 35 34 26 27 28 29 22 21 23 21 21 22
27 26 23 24 25 26 28 31 34 36 37 40 39 36 32 29 28 27 22 28 30 37 31 25 15 26 26 23 22 27 31 34 33 34 37 31 27 29 37 39 33 24 29 27 23 26 31 29 22 23 23 24 23 24
26 27 28 29 30 30 32 35 36 36 34 32 31 31 32 24 26 26 16 11 34 20 32 13 15 16 28 23 19 23 30 31 38 37 36 35 31 29 34 42 39 36 29 23 25 27 30 27 30 27 25 25 26 26
28 29 26 25 29 32 36 36 37 39 37 36 33 32 27 24 28 33 14 5 8 19 15 27 13 12 21 16 19 16 24 33 32 39 35 32 33 25 24 26 30 33 35 33 32 32 29 33 31 27 27 26 26 27
28 29 30 29 30 34 36 36 36 36 34 31 28 29 25 30 37 29 25 15 17 18 24 28 20 4 6 2 1 17 21 24 26 33 29 38 39 36 37 26 19 24 26 25 28 33 30 29 27 29 28 28 29 31
31 36 37 37 38 39 40 39 36 36 37 36 25 22 26 29 29 19 10 12 11 14 20 31 17 8 7 2 5 8 5 12 13 19 27 22 30 34 35 30 30 32 30 32 33 31 29 23 20 20 24 27 32 36
30 32 36 40 40 42 42 41 41 41 35 31 28 27 30 24 14 11 10 10 13 19 13 18 25 16 13 14 8 6 9 9 10 20 19 16 25 28 25 28 32 26 27 29 29 33 33 25 25 26 31 27 30 32
27 30 33 38 37 37 39 35 30 24 25 23 28 18 13 10 11 7 12 9 11 17 19 18 19 22 23 14 8 4 7 7 16 15 11 11 19 22 22 22 29 33 18 24 16 20 22 28 26 23 23 25 26 27
24 23 29 31 33 32 33 29 30 25 28 23 9 11 9 8 9 7 4 8 15 17 18 18 18 13 8 10 8 4 5 9 4 6 5 3 7 9 9 10 13 16 17 20 20 16 14 16 16 17 17 16 19 23
19 21 25 28 30 31 27 33 24 5 9 7 12 6 8 8 7 7 10 12 13 16 15 14 14 7 12 4 3 4 3 5 7 6 6 5 8 10 7 8 9 8 8 9 9 10 12 12 12 12 12 13 16 15
22 27 37 41 37 33 28 11 10 9 20 10 10 13 12 9 10 12 13 13 13 14 12 8 7 5 4 4 4 6 5 6 6 7 8 8 8 8 7 5 5 7 9 9 9 9 8 7 7 8 9 9 11 12
28 29 26 32 33 24 13 7 9 11 9 11 15 16 15 15 15 13 11 12 13 11 9 4 4 5 6 5 6 7 9 8 7 8 8 8 6 6 6 8 7 4 1 4 6 7 5 4 5 7 8 10 11 12
17 19 17 20 20 16 10 10 13 13 22 20 23 21 18 14 11 9 9 8 7 8 5 5 7 5 8 9 15 14 11 11 11 8 7 8 9 10 9 6 4 5 4 3 1 2 3 4 5 7 9 11 13 13
12 15 16 14 13 16 23 22 24 21 24 24 21 19 17 19 18 16 12 8 6 4 5 9 10 22 22 18 16 14 12 11 12 10 10 10 10 9 6 4 4 4 2 1 1 2 3 5 7 9 11 12 13 14
17 14 13 15 15 15 15 18 23 17 24 23 19 16 15 21 21 17 13 10 7 5 10 26 29 25 21 18 15 13 13 12 11 6 5 5 5 4 2 1 1 1 1 2 4 5 7 9 10 12 13 14 16 18
19 18 20 11 14 18 23 19 24 23 23 24 19 18 21 16 14 18 20 18 14 30 36 30 24 21 18 16 13 10 8 7 3 3 3 2 1 1 2 2 3 4 6 8 10 11 13 14 15 16 17 19 22 24
25 27 28 29 31 28 21 24 21 21 24 23 20 20 18 18 18 21 18 17 29 31 27 22 19 16 12 8 7 4 3 3 3 3 4 5 6 6 6 6 6 7 8 9 10 11 13 15 17 19 21 24 26 28
21 22 25 27 23 18 26 26 22 18 12 15 14 16 14 15 14 12 17 22 24 22 18 15 13 11 8 7 8 7 6 5 5 4 4 4 4 5 6 8 9 10 12 13 14 16 18 19 21 24 26 29 31 32
17 17 12 8 10 14 15 16 18 17 14 13 13 15 15 16 14 15 19 18 18 16 12 10 9 7 6 6 5 5 5 5 5 6 7 8 9 9 10 12 13 15 16 18 20 21 23 25 27 29 30 32 34 36
11 10 12 14 12 16 17 15 14 17 17 12 12 10 7 7 7 10 12 12 13 11 9 7 6 4 3 1 2 4 6 8 9 11 11 12 13 14 15 16 17 19 20 21 23 25 26 28 31 34 36 38 40 41
8 5 8 12 17 13 15 18 15 15 12 9 9 9 8 5 3 4 9 8 8 7 5 3 2 2 3 6 8 10 11 12 13 13 14 15 16 16 17 18 19 21 23 25 28 30 32 33 34 36 37 38 39 39
13 15 18 19 19 19 20 19 15 13 11 8 8 6 2 1 1 6 9 9 8 7 5 4 5 7 9 11 12 13 13 13 14 14 14 14 15 17 20 22 24 26 27 28 29 30 31 31 32 33 35 37 38 38
24 24 22 21 20 18 17 15 13 9 8 6 4 3 2 1 2 5 8 7 7 6 6 7 8 9 11 12 12 13 13 12 12 13 16 18 20 23 24 24 26 27 28 27 27 27 28 30 33 34 33 32 30 31
28 25 20 17 15 15 14 13 11 10 7 5 4 3 3 2 2 4 5 6 7 8 8 9 10 11 11 10 9 9 11 13 15 18 20 21 22 24 25 25 24 24 23 24 25 27 29 30 30 29 28 27 27 27
22 19 16 14 13 16 13 12 10 9 8 7 7 6 5 3 1 2 4 5 6 7 8 7 5 5 6 8 10 13 16 17 18 19 21 22 22 22 21 21 21 21 21 21 22 24 26 27 27 27 27 27 26 27
21 16 13 13 15 13 11 9 8 8 9 9 9 8 6 5 4 4 4 4 3 3 3 4 5 8 11 13 14 15 17 19 20 20 19 18 18 18 18 18 19 19 19 19 20 21 23 24 25 25 25 26 26 26
17 15 13 13 12 10 9 8 7 7 9 9 9 9 7 4 2 1 2 2 2 3 5 8 10 10 11 13 15 16 17 17 17 16 15 15 15 15 16 16 16 17 18 19 20 21 23 24 25 26 27 27 26 26
15 14 12 11 9 7 7 7 7 8 9 9 7 5 3 2 3 3 4 3 4 7 8 8 9 11 12 13 14 14 14 14 13 13 13 13 14 14 15 16 17 18 19 20 21 22 23 23 24 25 25 26 26 26

GFSWCAN_700_spd_042.txt.gz
Wind_Speed
19 13 8 3 3 8 17 25 36 46 49 45 49 50 43 58 55 60 50 59 56 34 30 27 35 30 31 39 38 32 35 31 31 27 22 18 20 21 24 25 24 22 24 22 20 15 15 21 21 23 28 22 20 22
9 9 8 11 10 14 30 30 37 42 45 42 45 50 49 48 57 53 50 57 60 42 30 33 35 40 38 37 36 36 43 35 31 24 20 15 20 18 23 27 28 25 24 21 26 24 28 26 26 27 24 23 25 24
10 12 14 17 21 22 26 32 36 39 39 38 42 43 49 51 52 50 49 52 58 50 37 31 40 25 30 38 42 34 37 28 38 39 26 25 19 29 25 32 26 36 35 31 28 25 24 27 28 29 29 27 28 25
13 15 20 24 23 24 27 30 33 34 39 41 44 44 48 50 49 45 46 45 45 42 37 24 25 21 27 41 41 42 31 40 35 29 35 30 25 24 23 25 27 30 31 34 35 33 30 28 28 29 30 28 28 27
22 19 22 24 24 27 31 32 36 34 36 45 37 45 47 46 48 44 41 43 44 36 11 32 29 20 21 35 41 40 38 30 33 27 34 36 32 29 27 29 30 30 35 35 37 32 31 29 33 29 28 26 27 26
22 26 29 27 28 30 33 39 41 38 37 37 42 44 41 40 38 36 38 37 38 32 24 11 27 31 27 40 35 41 44 40 32 40 30 29 30 23 28 43 39 38 35 28 36 32 30 30 21 24 22 24 27 26
23 22 21 25 31 29 33 37 39 41 40 39 39 39 36 35 31 31 28 30 28 29 31 6 4 22 18 47 31 30 35 37 35 33 28 35 31 31 36 37 24 29 33 37 29 28 33 35 31 29 33 25 25 27
20 23 25 24 28 31 34 38 38 35 36 39 37 35 33 31 28 23 23 23 29 27 31 9 6 5 13 17 18 28 31 32 34 39 34 30 27 33 32 34 34 36 22 24 29 34 31 24 24 23 26 25 25 29
26 24 24 26 30 33 31 35 33 33 39 35 35 33 28 23 26 19 16 19 28 25 19 12 12 8 18 24 20 23 30 33 25 38 36 31 35 30 27 27 23 21 30 36 31 28 26 30 28 29 31 32 32 35
26 29 31 31 31 32 32 34 36 35 32 32 30 32 36 40 25 27 19 19 16 18 19 23 20 15 15 23 21 20 24 21 24 32 31 42 37 38 29 23 20 18 25 25 29 35 41 44 37 32 38 35 35 36
27 31 36 38 42 41 39 40 41 41 40 33 26 26 32 29 19 10 7 11 13 8 11 20 26 23 16 20 15 10 10 15 14 18 27 23 33 34 36 35 33 31 24 20 25 29 32 31 33 36 33 33 32 35
28 33 36 38 39 37 36 34 36 34 21 17 25 30 33 23 8 5 6 7 8 8 9 20 24 20 15 9 7 5 6 6 4 16 17 11 19 22 25 26 28 32 34 31 30 34 36 37 34 31 32 29 28 25
28 35 40 38 36 33 33 33 23 23 29 31 30 22 14 5 7 6 8 6 7 10 21 12 15 13 12 8 3 4 6 6 10 13 8 3 11 18 19 23 25 27 29 30 31 33 35 31 27 26 27 27 27 30
36 40 44 44 40 27 23 18 27 25 33 21 12 10 5 5 6 15 12 9 13 12 15 12 11 8 8 7 6 4 6 7 3 5 4 2 6 12 17 18 21 23 22 22 24 21 18 18 18 19 22 21 17 17
26 34 39 36 24 18 27 21 22 24 23 6 8 7 5 4 7 12 16 22 19 17 17 17 15 11 15 8 7 6 4 6 6 6 6 4 5 5 6 6 6 5 6 7 7 8 8 8 7 8 9 10 11 12
22 24 26 26 21 20 24 13 7 11 15 3 5 7 6 6 7 10 14 17 18 18 21 17 9 6 6 5 4 6 5 5 6 9 8 8 7 6 6 6 6 6 7 7 7 7 5 5 4 4 5 5 7 10
20 20 21 22 21 20 19 12 6 11 7 7 8 8 8 13 14 14 16 15 12 10 7 7 5 6 6 6 6 7 11 12 12 12 10 10 10 11 10 7 6 5 4 5 6 8 6 5 3 2 2 3 6 9
23 28 27 25 25 18 4 2 15 17 21 18 17 16 15 15 14 12 11 10 9 8 7 8 9 7 8 11 18 16 15 15 14 13 14 14 14 11 10 9 10 9 7 6 4 3 2 1 1 2 4 6 8 10
17 17 17 16 14 11 8 19 24 20 22 24 24 23 20 19 17 16 13 11 9 8 10 12 12 26 26 22 20 18 16 15 14 13 13 12 11 9 8 7 7 6 4 3 2 1 1 2 3 5 6 8 9 11
17 17 16 14 15 19 15 16 19 17 27 27 26 28 29 25 21 16 12 10 9 6 21 32 33 28 25 22 20 18 16 16 13 9 7 6 6 6 3 3 2 2 1 0 1 2 4 5 6 8 10 11 13 15
15 12 11 13 11 14 14 16 23 23 26 28 26 27 27 22 22 22 22 22 20 34 38 33 28 25 22 19 16 14 12 11 6 4 4 3 3 2 3 3 3 4 5 6 7 8 9 10 11 13 14 16 18 21
14 12 5 10 16 20 16 21 19 23 25 24 24 25 25 26 25 24 24 28 34 34 30 25 22 19 15 12 11 7 6 5 3 3 3 4 4 5 5 6 6 7 8 9 10 11 13 14 16 18 20 22 24 26
23 23 25 28 22 18 25 26 16 17 11 15 15 19 18 18 17 14 20 25 26 24 21 18 15 12 9 8 7 6 4 4 5 4 5 4 5 6 8 9 10 11 13 14 16 17 18 20 21 23 24 26 28 30
16 16 13 7 9 12 15 17 19 17 17 16 16 18 16 17 14 17 20 19 18 18 15 13 12 10 8 7 5 3 1 1 2 4 5 7 9 10 11 12 14 15 15 16 17 19 20 22 24 27 29 31 32 34
6 9 12 15 13 18 16 15 16 19 18 14 13 10 8 8 8 11 12 13 13 11 9 8 7 5 4 2 0 2 4 6 8 9 10 10 11 12 13 14 14 15 17 19 22 24 25 27 28 29 30 29 30 31
3 5 8 13 15 12 12 16 14 16 12 10 9 9 8 6 4 5 9 8 9 8 7 5 4 2 2 3 6 8 9 10 10 10 11 11 11 12 14 16 19 21 22 23 25 26 26 25 25 26 28 29 30 29
9 10 13 12 15 16 17 17 15 12 10 7 8 6 4 2 1 3 5 7 7 6 5 4 3 5 7 8 10 10 10 10 10 10 10 12 14 17 19 21 22 22 23 23 22 21 22 23 24 26 26 27 27 26
21 22 20 19 19 16 16 15 12 8 7 6 4 2 0 1 3 4 6 7 7 6 6 7 8 9 9 10 10 9 8 9 10 12 15 18 19 20 21 22 22 21 20 19 20 20 21 22 23 24 24 24 24 24
27 24 20 18 15 14 11 10 9 9 7 5 3 2 1 2 2 3 5 6 7 7 7 8 8 8 8 7 6 8 10 12 15 17 18 19 20 20 19 18 18 18 18 18 18 19 20 21 21 22 22 22 22 22
23 20 17 14 13 14 12 10 10 8 6 3 2 1 1 1 2 4 6 7 7 7 7 7 6 4 5 7 9 11 12 14 15 16 16 16 15 15 15 15 15 15 15 16 17 18 19 20 21 21 22 23 23 23
21 16 13 12 14 13 11 9 7 4 3 2 2 2 2 2 4 5 5 6 5 4 3 4 4 5 8 9 10 12 13 14 14 13 12 12 12 12 12 13 13 14 15 16 17 17 18 19 20 21 22 23 23 23
18 14 11 11 12 10 7 5 3 2 2 3 4 3 2 1 2 2 3 2 2 2 2 5 7 7 8 10 11 12 12 12 11 11 11 11 11 12 13 13 14 14 15 16 17 19 20 20 21 22 22 23 23 23
16 14 11 9 8 6 4 2 2 3 4 3 2 3 2 1 2 2 2 2 2 4 5 6 6 8 9 10 10 11 10 10 10 10 11 11 12 12 13 15 16 17 18 19 20 20 21 21 22 22 22 23 23 24

GFSWCAN_700_spd_045.txt.gz
Wind_Speed
23 19 19 17 18 19 16 17 30 40 47 52 53 58 55 55 64 64 59 55 61 49 35 31 19 28 35 39 45 45 38 37 35 26 25 22 18 27 25 27 30 15 17 19 22 25 22 17 20 22 25 23 18 18
14 13 12 12 12 10 7 10 12 27 46 53 53 52 54 54 50 58 47 47 58 37 31 28 33 31 30 33 47 36 44 41 37 30 24 20 20 20 24 21 21 31 25 17 20 20 27 25 27 24 21 20 23 21
13 9 8 9 12 12 13 17 18 34 45 46 49 52 50 55 51 49 55 45 51 55 30 24 27 27 23 38 46 47 36 35 32 29 19 20 16 23 21 28 23 28 27 32 23 22 19 17 18 17 23 24 22 25
11 9 12 16 17 21 23 28 34 37 41 45 47 46 48 49 46 54 48 43 43 41 31 15 23 26 28 32 46 46 35 37 28 30 30 25 23 21 20 21 26 28 22 32 34 34 26 25 26 23 25 24 26 25
12 9 14 19 21 26 29 32 32 31 38 43 43 48 41 44 51 52 47 46 38 36 23 27 21 21 28 41 50 40 38 41 24 34 34 31 22 18 20 23 26 25 27 29 26 22 28 30 24 31 26 29 26 23
15 19 19 20 23 26 30 31 34 34 38 45 40 36 44 48 48 44 44 37 33 43 14 7 25 24 21 15 36 50 38 37 27 28 29 22 23 22 22 34 28 27 25 29 27 22 29 28 23 24 26 34 25 22
23 27 27 28 29 30 32 33 33 35 39 40 42 43 41 40 39 42 35 33 30 35 21 9 7 16 25 16 42 52 46 38 31 32 31 20 24 30 31 28 19 22 31 35 35 33 35 30 31 31 28 31 35 31
22 23 23 32 36 34 36 41 40 37 39 39 40 40 40 39 34 32 21 17 20 29 28 11 7 18 29 29 33 41 38 40 36 28 21 26 25 25 24 27 29 27 22 25 30 35 33 37 36 33 29 36 34 32
21 21 22 25 32 32 35 37 36 36 38 38 35 31 25 22 22 23 14 13 19 21 16 25 11 14 20 26 30 39 29 38 32 40 31 18 25 19 17 21 22 29 29 33 33 31 30 32 34 31 34 32 30 29
22 24 28 30 30 29 30 33 31 35 32 30 28 26 24 22 22 18 17 21 23 27 18 19 19 20 9 17 36 39 28 24 32 25 32 28 25 23 24 21 25 28 26 27 28 28 37 39 36 34 31 34 37 39
26 27 26 26 27 27 30 32 30 30 30 31 32 27 24 27 18 9 11 12 12 11 16 19 16 23 15 13 14 22 21 23 10 16 20 16 18 30 27 34 37 31 27 27 25 23 23 28 37 39 40 39 38 39
29 28 28 28 29 31 31 28 26 25 25 26 27 30 24 10 6 4 7 4 7 8 7 13 14 17 9 6 5 14 7 13 8 13 17 15 20 30 36 38 31 32 35 36 39 37 34 32 34 32 33 38 40 41
35 36 37 36 37 37 33 33 25 20 27 25 34 14 7 3 3 3 3 3 6 10 8 7 8 14 8 3 4 6 5 6 5 8 6 1 7 12 23 30 34 33 31 33 38 40 40 39 39 38 37 35 35 34
32 33 33 36 35 25 17 17 14 23 21 19 12 9 3 4 4 8 8 4 6 12 15 13 9 8 6 9 5 5 6 6 4 5 4 6 2 6 13 17 19 22 25 26 28 29 29 29 27 27 28 25 22 19
35 33 26 20 16 19 21 23 27 26 15 9 5 4 1 3 7 8 11 10 9 12 14 10 12 7 12 6 4 5 4 6 6 4 5 6 7 3 1 5 9 11 13 13 11 9 7 8 8 9 9 8 7 5
24 20 22 18 17 16 14 13 19 10 4 4 3 4 2 2 4 6 8 8 11 15 19 18 10 7 5 5 3 6 5 5 4 7 8 10 10 10 9 9 8 8 8 7 8 8 8 7 6 5 6 6 5 3
18 13 12 12 13 15 10 4 3 14 6 1 6 4 3 4 7 9 11 14 17 22 21 9 5 4 7 6 6 6 10 12 11 11 13 16 14 13 11 10 10 10 10 11 11 10 9 9 8 7 5 4 2 2
15 13 13 11 12 9 7 4 14 10 14 12 11 10 10 13 13 14 16 17 18 17 15 9 8 8 8 11 18 19 17 16 15 17 17 16 15 14 13 12 11 10 8 7 6 6 5 4 3 3 3 4 5 6
12 10 8 8 4 3 8 19 23 18 20 19 17 17 19 19 18 17 15 15 14 14 18 12 13 29 28 26 23 20 20 18 15 15 14 13 12 10 9 7 6 5 4 4 4 3 3 3 5 6 7 8 9 11
10 9 8 6 4 9 15 15 18 17 24 26 30 30 26 21 15 13 11 12 12 8 30 34 34 30 27 24 22 20 18 17 13 10 8 7 6 5 3 3 1 1 2 3 4 5 6 7 8 9 10 12 13 15
12 10 10 9 11 19 19 15 20 19 22 23 28 28 29 24 23 23 25 26 23 34 38 33 28 25 22 20 18 16 14 12 8 6 5 4 3 2 2 3 4 5 5 6 7 9 10 10 12 13 15 16 18 20
12 14 13 14 11 16 16 21 18 22 25 26 27 27 26 26 25 24 26 29 34 33 31 26 23 21 17 15 13 11 9 7 4 1 0 1 2 3 4 5 6 7 8 9 11 12 14 15 16 18 19 21 22 23
9 10 11 14 19 13 23 23 17 19 13 17 18 20 18 18 17 14 20 25 27 25 22 19 16 14 11 10 8 6 4 4 3 2 0 1 3 4 6 7 9 10 12 13 14 15 16 18 19 21 22 24 26 28
17 16 14 7 8 13 15 15 18 17 17 17 16 17 16 17 14 17 21 20 19 17 15 13 11 10 8 6 5 3 2 2 3 4 5 7 8 9 10 11 12 13 13 15 16 18 21 22 24 25 27 28 28 29
9 8 10 16 14 17 15 14 15 18 18 14 12 10 8 8 8 11 13 13 12 11 10 8 7 5 4 3 1 2 4 7 8 10 10 11 12 13 14 14 16 17 19 21 22 24 25 25 25 24 24 24 25 25
5 5 8 13 17 14 14 17 15 16 12 9 8 8 7 6 3 5 9 8 8 8 8 7 6 4 3 4 5 7 8 8 9 9 10 10 10 11 13 15 17 18 19 20 21 20 19 19 19 20 20 20 21 21
7 11 14 15 14 17 17 18 15 12 10 7 8 5 4 2 1 3 5 5 6 7 7 7 6 6 6 7 8 9 8 8 8 8 9 10 13 15 16 17 18 18 18 17 16 16 16 16 17 18 19 19 20 20
16 18 19 18 18 17 18 16 11 7 7 6 4 3 2 1 3 3 4 6 8 8 8 7 7 8 9 9 9 8 7 7 9 12 14 15 16 17 17 16 14 14 14 13 13 13 14 16 17 18 19 20 21 21
24 23 20 18 16 15 11 9 8 8 5 3 2 1 2 3 5 5 6 7 8 8 7 8 8 9 8 7 6 7 9 12 13 14 16 16 15 13 12 12 11 11 11 12 13 14 15 17 18 19 20 21 21 21
24 20 18 15 12 13 11 8 8 5 3 1 1 2 3 4 4 6 6 7 7 8 8 8 7 5 5 6 8 10 11 12 13 13 13 12 11 10 10 10 11 12 13 14 15 16 17 18 19 19 20 21 21 22
22 17 13 12 13 13 10 7 5 3 1 2 3 4 5 5 6 7 7 8 8 7 5 5 5 5 7 8 9 10 10 11 10 10 10 9 9 10 10 11 12 13 14 16 17 18 19 20 21 21 22 22 22 22
17 14 11 12 13 10 7 5 2 1 2 4 5 5 6 6 6 6 6 5 5 5 5 5 7 7 7 8 9 9 9 9 9 8 8 9 9 9 10 12 13 15 16 17 18 19 20 21 22 22 23 23 23 23
17 15 12 10 9 7 4 2 1 3 6 6 4 6 6 6 5 6 6 6 5 5 7 7 6 7 8 8 8 8 8 8 8 9 9 9 10 11 13 14 15 16 17 18 19 19 20 21 22 23 23 24 24 24

GFSWCAN_700_spd_048.txt.gz
Wind_Speed
26 25 24 24 26 29 32 32 34 37 39 47 45 45 51 57 55 56 51 49 58 57 33 39 40 32 36 34 32 37 35 38 49 31 34 20 24 27 24 21 27 24 20 23 18 15 19 11 21 31 29 25 27 20
17 20 19 21 24 26 25 27 27 31 39 50 44 45 48 53 52 53 52 45 43 48 28 30 41 35 35 38 32 37 43 38 31 30 24 24 14 20 27 28 24 24 27 20 15 16 12 19 25 20 21 20 20 19
16 12 15 17 14 11 7 10 17 21 31 43 41 43 46 49 50 48 49 48 46 60 50 40 36 36 31 26 37 39 42 45 37 44 31 20 19 21 19 25 23 21 22 29 24 34 22 10 18 27 22 22 22 23
13 13 12 10 11 15 8 2 10 25 40 40 38 41 46 47 44 43 48 46 42 34 33 32 40 37 28 30 42 41 42 32 36 32 32 22 21 19 29 23 26 31 25 27 28 25 22 24 21 8 19 22 18 14
11 9 8 11 12 18 19 18 24 35 42 44 41 43 44 40 39 39 36 29 44 37 26 21 15 17 28 27 33 39 45 40 43 36 36 36 32 22 18 17 28 23 27 26 25 22 19 20 17 16 27 29 25 25
12 10 11 13 15 16 21 30 33 37 42 44 42 43 41 35 41 35 36 36 40 33 13 29 15 16 22 26 25 34 46 54 37 43 30 25 25 21 16 24 22 27 23 24 20 22 20 27 26 24 21 20 22 28
18 17 18 16 19 25 32 34 36 41 44 44 41 40 41 39 35 34 39 35 32 33 15 7 5 15 23 22 21 32 49 48 43 47 27 39 25 28 28 23 19 19 23 29 30 24 31 33 35 28 24 26 29 28
21 25 21 22 26 28 31 34 38 39 42 42 41 40 36 38 41 36 28 24 27 26 18 6 3 7 16 20 17 25 43 46 33 18 17 28 31 25 28 22 26 24 20 21 22 32 37 41 41 34 33 32 31 28
18 20 25 28 27 32 32 34 33 33 33 37 38 34 34 33 27 24 17 20 24 22 12 14 9 6 13 18 15 19 33 41 24 28 23 15 23 18 13 23 22 23 30 34 38 35 33 33 36 36 32 34 34 31
22 26 27 26 26 28 27 30 33 32 30 29 27 28 28 25 23 14 16 15 20 20 12 14 18 14 10 18 18 12 25 28 24 38 23 22 17 28 26 24 30 34 35 33 31 30 30 27 30 36 39 35 33 30
21 25 27 29 32 34 35 35 34 30 28 27 24 21 19 20 18 9 7 9 8 8 17 20 13 16 16 17 16 19 9 20 15 20 28 15 23 25 26 35 28 28 28 32 28 29 29 29 26 24 20 25 35 36
20 22 24 26 27 30 30 29 29 27 24 22 26 27 23 14 7 5 8 5 6 7 6 10 16 15 16 26 13 16 13 12 6 25 21 13 14 18 32 36 34 34 35 36 36 33 31 33 36 36 30 30 28 29
24 26 25 23 22 22 23 21 22 25 21 30 16 10 6 6 5 4 5 4 6 11 10 9 10 8 17 27 17 15 15 10 14 14 8 5 7 7 13 23 34 36 36 34 34 35 33 35 35 31 32 32 33 35
29 28 25 22 21 25 19 17 20 20 20 16 8 7 5 3 4 5 4 5 9 11 12 10 6 6 12 11 3 4 6 7 5 6 6 8 5 1 5 11 16 20 24 27 31 31 29 28 30 29 29 27 23 21
30 27 22 16 13 9 13 25 17 22 15 8 5 4 3 2 4 3 2 4 6 13 11 7 9 2 2 2 4 5 5 8 7 5 3 4 7 7 5 1 4 7 9 9 9 10 13 12 9 9 7 3 4 5
14 14 14 13 13 13 19 20 18 14 10 4 2 1 2 3 3 5 7 4 9 11 10 7 4 1 3 5 5 7 5 6 5 6 6 7 9 11 11 11 11 10 9 9 9 10 11 11 11 10 10 10 9 8
15 14 10 9 9 9 10 12 9 6 2 3 2 2 3 3 4 6 7 11 16 15 15 7 2 4 3 5 6 6 8 13 11 11 13 14 14 15 15 14 14 13 12 12 11 10 9 10 10 8 6 7 6 5
3 4 2 1 3 3 4 9 11 4 12 9 9 9 8 7 9 11 12 14 18 17 16 6 5 5 7 9 19 16 16 17 17 17 17 18 17 15 13 11 10 10 9 9 8 8 8 7 4 4 5 5 5 5
4 1 1 3 11 10 17 19 20 18 25 22 14 14 16 17 14 13 13 13 11 13 14 10 7 19 26 26 20 20 19 18 18 17 15 13 11 9 8 7 7 6 6 6 6 5 4 5 6 7 8 8 9 10
4 3 0 4 9 24 21 22 25 19 25 23 24 24 19 17 17 16 16 15 12 12 26 33 33 28 25 24 21 21 20 16 13 11 9 8 7 5 4 3 2 2 3 4 5 6 7 8 9 10 11 12 14 16
6 7 9 12 18 23 17 13 17 18 22 23 23 26 28 23 22 22 25 28 32 37 39 33 28 26 24 22 20 17 15 12 9 8 6 5 5 3 1 1 2 3 4 6 7 8 9 10 11 12 14 15 17 19
11 15 19 16 17 17 16 19 17 19 21 20 22 25 27 27 27 26 28 34 36 33 30 25 23 20 18 17 15 14 12 10 8 6 4 2 1 1 2 4 5 6 8 9 11 12 13 14 15 16 18 20 21 22
11 13 10 15 13 12 22 25 18 20 12 15 16 18 17 17 17 14 22 28 29 24 21 18 16 14 11 11 9 6 5 4 2 1 1 2 4 6 8 9 10 11 12 13 15 16 17 19 20 21 22 23 24 24
18 17 13 6 8 12 13 14 17 16 17 16 16 16 16 16 13 15 21 19 17 15 13 12 10 8 6 5 4 3 1 1 3 5 7 8 9 9 10 10 11 12 13 14 16 17 19 20 21 21 20 20 20 20
11 9 9 13 13 14 13 13 14 17 17 14 13 10 8 7 7 10 10 10 9 8 6 5 4 3 2 1 1 2 4 6 8 9 9 10 11 11 11 11 14 16 17 19 20 20 20 19 19 18 18 18 19 20
5 5 8 11 16 13 13 14 12 15 12 8 8 8 7 5 4 4 7 5 6 5 5 5 4 3 3 4 5 7 9 10 11 11 11 11 12 13 15 18 18 18 19 19 18 17 16 16 16 17 18 19 19 20
7 10 15 15 15 16 15 16 13 10 9 6 7 5 3 2 2 2 4 4 5 6 6 5 5 5 7 8 10 11 11 11 10 10 11 12 14 15 16 17 17 16 15 14 13 13 13 13 14 15 16 17 18 19
15 18 16 16 16 15 17 15 12 6 6 6 5 3 2 3 3 3 0 2 4 5 5 6 7 8 10 10 10 10 9 9 10 12 13 14 16 16 14 13 12 11 10 10 10 11 12 14 15 16 17 18 18 19
21 21 19 20 19 17 12 9 9 10 8 6 6 4 5 5 6 6 5 5 6 6 6 8 9 9 9 9 7 7 9 11 12 13 14 14 11 10 9 9 8 8 9 10 11 12 14 15 16 18 19 20 20 21
24 23 21 17 15 14 12 11 11 8 6 6 6 6 6 7 7 7 8 7 7 8 8 9 9 8 6 7 9 10 11 12 12 12 12 10 9 8 8 8 8 9 10 11 13 14 16 17 18 19 20 21 22 22
23 19 15 14 15 15 12 10 7 6 5 5 6 6 7 8 8 9 8 8 8 8 8 7 7 7 8 10 10 10 10 11 11 11 10 9 9 8 8 9 10 12 13 14 15 16 17 18 20 21 22 23 23 24
18 15 12 13 14 12 8 7 4 3 4 5 7 7 7 9 9 9 8 8 7 7 7 7 8 9 9 9 10 11 11 10 10 10 9 9 9 9 10 11 13 14 14 15 15 16 18 19 20 22 23 24 25 25
18 16 13 12 11 8 5 3 2 3 6 7 6 7 9 10 9 9 9 8 8 7 8 9 8 9 9 10 10 10 10 10 10 10 9 9 10 11 12 13 14 14 14 15 16 17 19 20 22 23 25 25 25 25

GFSWCAN_700_spd_051.txt.gz
Wind_Speed
23 24 23 24 26 28 30 32 33 34 36 39 41 45 45 47 51 56 54 54 59 25 41 54 36 35 26 33 34 31 30 28 37 38 33 33 36 36 28 33 38 20 18 18 28 7 11 6 14 24 39 28 30 26
23 22 21 20 23 27 30 33 36 37 37 37 40 42 44 48 50 54 52 51 40 50 25 47 46 31 31 32 35 34 30 23 40 36 42 32 30 26 36 28 31 27 24 24 21 26 17 18 27 13 14 23 16 19
20 18 19 21 21 20 22 26 28 26 35 36 37 38 42 46 47 53 50 50 42 45 18 35 42 46 40 27 28 33 32 28 31 40 27 30 23 23 25 41 27 30 26 25 19 22 24 33 22 26 27 19 22 17
15 11 14 15 13 18 17 15 18 17 23 34 38 38 40 42 44 50 47 39 37 46 14 41 26 43 42 38 35 41 35 20 32 35 31 36 28 21 27 18 31 26 24 20 20 17 17 19 22 30 37 22 32 14
14 12 13 13 15 19 14 11 16 18 17 29 41 40 39 40 40 45 37 35 32 40 29 23 29 26 28 31 32 40 40 26 33 29 32 33 27 35 23 23 32 27 29 23 21 18 12 16 19 19 20 24 35 17
16 11 15 16 11 18 24 24 31 30 31 36 35 36 39 39 41 42 35 45 25 44 25 24 30 16 15 27 25 21 30 36 37 37 32 36 25 33 17 28 24 25 26 22 21 19 12 16 20 21 26 23 18 20
15 19 13 18 22 26 29 35 33 34 34 36 37 40 41 40 38 36 37 29 27 22 21 13 14 22 14 17 21 21 22 34 39 39 35 28 33 22 32 24 15 17 20 24 26 24 25 21 22 28 28 29 28 28
16 16 22 18 25 30 35 38 38 41 43 42 42 41 41 37 36 23 26 24 31 20 18 8 9 12 20 22 21 21 23 28 32 39 35 26 31 26 18 28 30 26 25 22 24 26 31 38 38 37 36 37 37 35
22 24 25 29 32 30 34 37 39 41 43 42 40 38 34 29 24 24 21 25 28 24 10 9 11 9 11 17 14 18 16 22 22 33 36 24 27 17 23 24 27 34 36 35 31 33 33 33 32 35 35 35 35 32
19 24 28 26 25 30 32 34 36 37 40 38 39 39 34 28 22 18 17 18 17 16 13 12 13 7 5 13 15 15 13 13 11 25 27 29 11 40 33 24 30 32 32 33 35 38 36 34 33 32 30 29 30 32
27 29 32 31 35 35 30 28 29 31 32 33 31 36 31 26 22 15 10 7 7 6 11 10 11 11 14 7 16 11 6 8 7 11 23 12 13 18 25 32 34 25 28 29 26 29 29 27 27 27 27 28 25 22
25 30 32 34 31 31 28 27 22 26 24 22 29 28 25 14 8 7 8 7 6 6 7 12 14 8 9 10 7 5 3 6 4 15 13 9 8 13 23 25 29 30 33 31 23 24 24 26 30 29 28 29 30 32
25 25 23 23 23 24 26 24 23 27 30 30 32 11 6 5 5 5 5 6 6 10 11 13 13 13 11 10 8 4 5 5 4 1 6 4 6 5 8 17 21 27 30 33 34 34 30 30 29 29 32 33 28 24
22 23 22 21 17 17 20 21 21 27 16 11 8 7 4 5 5 7 9 10 13 14 13 12 12 9 8 6 4 4 5 6 5 4 3 6 5 2 4 7 10 16 20 21 21 22 25 26 25 25 25 20 19 22
20 20 17 12 13 16 16 14 17 14 8 7 6 6 7 7 8 8 5 8 16 15 13 11 7 5 7 6 6 4 2 6 6 5 5 3 5 5 4 3 3 2 2 2 2 1 1 3 2 1 6 7 8 8
14 12 11 11 13 20 16 16 14 12 6 4 5 6 3 5 5 7 6 8 12 14 12 6 2 5 4 6 5 5 6 5 10 10 8 8 9 10 12 14 15 15 15 15 15 15 14 14 13 13 12 11 11 10
9 7 6 6 9 17 15 15 9 9 3 4 6 3 2 2 3 7 9 9 14 13 11 5 2 4 3 5 5 5 10 17 13 14 15 15 16 18 18 17 16 15 14 14 13 11 11 12 12 10 8 9 8 7
5 3 5 6 6 8 9 12 8 5 9 7 4 2 1 1 3 6 9 10 14 14 12 5 6 4 7 8 15 19 17 18 18 18 20 19 17 14 12 10 10 9 9 9 9 9 10 9 7 6 8 8 7 8
2 4 9 10 11 9 16 14 8 15 22 17 11 8 7 9 8 7 6 8 8 6 6 6 9 20 25 23 21 22 22 21 21 20 17 15 13 10 8 7 6 5 5 5 6 5 5 5 6 7 8 8 8 9
0 7 12 18 23 31 27 26 26 19 21 19 18 15 14 14 12 11 9 8 8 8 12 32 33 28 23 22 22 20 18 16 14 13 12 11 9 7 5 4 3 2 2 3 4 6 8 9 10 10 12 13 14 15
12 13 19 26 17 23 23 18 20 17 19 18 22 26 26 17 14 13 16 17 21 37 36 29 25 23 19 18 16 14 12 10 8 6 5 4 4 3 2 3 5 6 7 7 8 8 9 10 11 12 13 15 16 17
18 21 19 10 19 23 19 19 20 22 27 25 27 30 32 31 29 29 29 31 36 30 26 21 20 17 15 13 11 10 8 7 5 4 3 2 3 4 5 5 7 8 9 9 10 10 11 11 13 14 15 16 18 19
18 16 13 20 17 14 23 22 20 22 13 18 20 21 19 20 19 13 24 31 29 23 19 16 14 13 10 9 8 6 4 3 1 1 2 3 4 6 7 8 8 8 9 10 11 12 13 14 15 16 17 17 16 16
12 14 10 6 9 12 17 18 21 19 19 19 19 19 19 19 15 19 25 22 18 16 13 11 9 7 5 4 3 2 2 1 2 4 6 8 8 9 9 10 10 11 12 13 14 15 16 16 15 14 14 14 15 16
13 9 8 14 13 17 15 17 19 21 19 16 15 11 10 10 12 14 14 13 11 8 7 5 4 3 2 1 1 2 4 6 8 9 10 10 10 8 9 11 13 14 15 16 15 14 13 12 10 10 11 12 13 14
5 5 8 11 17 15 15 17 16 17 12 11 9 9 8 7 5 6 8 6 5 3 1 2 1 1 2 4 5 7 8 9 11 10 11 11 11 13 15 15 14 15 14 13 11 9 8 8 9 10 11 13 14 16
8 9 15 16 16 16 16 17 14 11 10 8 9 7 5 4 4 4 3 3 1 1 2 3 3 4 5 7 8 9 10 9 9 9 10 12 14 15 16 15 13 11 9 8 8 8 9 10 11 13 14 15 16 17
17 20 16 16 15 13 17 15 11 7 8 7 6 5 4 3 4 3 2 1 2 3 3 4 4 5 6 8 8 9 7 7 9 11 12 14 14 12 11 10 8 7 7 8 8 9 11 12 14 15 16 17 18 19
20 18 17 17 17 16 11 9 10 12 10 7 8 7 7 7 6 5 3 2 2 2 4 5 7 7 8 7 6 7 9 10 11 12 11 9 9 9 8 7 7 7 8 9 10 12 13 14 15 16 17 18 19 20
22 21 21 18 15 15 14 13 12 10 8 8 8 8 8 8 7 7 6 6 5 5 6 6 7 6 5 6 8 9 10 10 10 10 10 9 8 8 7 7 7 9 10 11 12 13 13 14 15 16 17 18 19 21
22 21 16 15 16 17 15 13 11 9 8 7 7 8 8 9 9 9 7 7 6 6 6 6 6 6 7 8 7 8 10 10 10 9 9 8 8 7 8 8 10 11 12 12 12 12 13 15 16 18 20 21 23 24
19 16 14 15 17 15 12 10 9 6 7 7 8 7 8 9 9 8 7 7 6 6 6 5 7 8 8 8 9 10 10 9 9 9 9 9 8 8 9 11 12 12 11 11 12 13 15 17 19 21 22 24 25 25
21 19 15 15 15 12 8 6 6 5 5 6 5 6 7 8 8 8 7 6 5 5 6 7 7 8 8 9 10 11 11 11 10 10 10 9 10 11 12 12 12 11 11 12 14 15 18 20 21 23 24 25 26 26

GFSWCAN_700_spd_054.txt.gz
Wind_Speed
18 19 23 26 28 27 27 27 28 30 31 32 35 36 39 43 48 55 52 60 62 60 41 38 58 53 54 40 33 27 21 26 34 33 34 27 22 29 26 25 19 18 10 4 23 15 12 9 13 21 25 26 26 28
21 25 28 22 23 24 25 27 27 29 31 32 33 37 39 37 48 54 49 49 46 51 38 33 39 49 43 42 38 31 27 25 35 24 35 23 29 18 37 31 29 32 34 18 15 15 11 14 19 19 14 11 17 13
25 22 18 19 22 22 24 26 29 30 33 37 36 35 38 40 46 53 46 46 46 42 41 36 40 37 36 32 32 29 30 30 27 26 24 30 26 24 29 26 28 31 33 33 30 35 24 16 20 23 30 18 14 14
19 18 17 19 20 21 24 28 28 29 27 34 37 37 39 39 43 46 51 51 46 42 35 43 55 37 36 37 36 34 30 30 32 29 22 28 30 30 32 24 31 26 22 27 26 28 25 16 15 25 33 27 26 22
18 13 17 19 17 18 22 22 20 18 21 27 36 38 38 37 43 44 46 46 38 34 26 31 44 29 39 34 31 30 28 27 29 26 25 26 27 27 28 25 32 18 23 30 30 25 25 17 15 17 14 22 16 25
19 13 20 17 12 16 14 15 17 20 22 28 34 36 36 39 40 44 38 35 34 31 22 26 20 25 36 39 36 35 32 24 30 36 23 24 25 25 17 33 36 33 22 19 25 23 20 22 19 18 17 17 19 22
17 17 19 20 19 22 24 25 23 21 30 33 35 36 35 39 44 42 38 38 36 34 22 19 21 18 15 19 30 31 27 33 36 33 31 27 20 22 25 27 22 26 29 25 24 23 23 21 18 19 20 22 22 22
19 21 22 23 23 24 28 29 32 38 41 39 38 38 40 38 37 36 31 33 33 23 14 9 12 22 20 14 16 20 25 15 18 24 31 30 23 25 17 30 34 31 26 26 20 20 24 24 23 26 27 27 26 26
26 23 24 25 29 33 36 39 42 42 40 39 37 35 37 33 33 28 17 34 18 11 9 12 21 22 23 16 17 16 18 20 18 22 24 19 21 15 25 27 23 37 38 38 31 25 24 24 25 23 21 23 24 27
20 23 25 25 29 32 36 39 41 45 40 40 39 41 24 28 35 28 21 13 12 13 11 19 15 15 19 19 22 15 12 14 9 14 14 20 26 32 24 26 25 21 31 36 36 32 33 31 29 26 26 26 25 25
34 37 34 29 28 29 33 34 35 33 30 34 35 30 39 31 33 16 9 9 10 8 12 14 13 11 11 11 14 9 9 12 10 10 16 14 24 27 31 35 27 31 25 28 22 28 25 24 21 23 23 25 27 27
31 32 31 29 27 28 31 30 30 27 30 27 33 33 25 14 9 7 8 8 7 7 13 14 11 11 11 9 5 5 8 3 6 22 14 12 13 19 21 19 18 21 28 29 29 31 32 26 22 25 26 26 27 28
23 25 22 22 24 26 26 25 26 26 27 30 16 12 6 6 5 6 5 7 9 13 14 15 14 11 10 8 6 4 5 5 4 5 6 3 5 6 10 10 15 18 20 24 27 27 27 29 30 33 32 29 26 28
20 19 18 19 19 18 19 24 27 28 19 8 7 6 4 5 6 9 13 14 15 13 12 11 12 8 7 10 5 4 5 6 3 3 4 2 2 2 6 10 14 15 15 17 16 16 17 18 18 18 16 15 14 11
15 14 12 11 17 17 19 25 18 11 6 5 5 6 9 14 14 11 9 13 15 12 12 11 12 9 15 6 7 4 4 4 4 6 7 4 3 3 3 4 3 3 4 6 6 5 4 4 4 5 7 7 7 7
10 10 8 12 16 13 12 17 7 3 9 8 8 11 9 11 10 8 10 14 14 12 14 13 6 7 6 5 5 4 5 4 9 11 10 10 11 13 13 15 16 18 17 17 15 14 14 13 12 11 11 11 10 9
7 4 6 10 14 13 11 8 7 5 2 5 6 5 6 6 7 10 11 15 15 15 10 5 4 3 4 4 4 4 8 19 15 13 14 14 16 18 18 17 15 14 13 12 11 10 9 9 9 8 5 6 6 5
4 1 4 6 11 13 12 8 6 6 8 7 4 3 2 3 6 10 14 15 15 13 9 2 6 5 5 5 15 24 19 18 19 21 21 19 17 15 12 9 9 8 7 7 7 7 7 7 5 4 5 5 5 6
2 8 7 3 16 18 11 8 6 11 15 12 10 7 5 9 11 11 11 12 12 10 9 7 7 15 20 23 23 23 21 20 19 18 17 15 12 10 8 7 6 6 5 5 5 5 5 5 6 7 7 7 8 9
9 9 5 7 13 18 12 14 19 17 20 17 14 13 13 12 11 11 11 13 13 11 7 26 29 23 22 21 19 17 17 15 12 11 10 10 8 7 4 4 4 4 4 5 6 7 7 8 9 11 11 12 13 15
20 23 20 17 28 31 26 18 21 16 22 28 31 29 28 18 14 12 13 11 9 33 37 29 24 22 20 19 17 14 13 11 8 7 6 5 4 4 3 4 5 6 6 7 9 10 11 12 13 14 16 17 18 20
19 18 17 20 27 29 20 18 20 25 32 34 35 36 37 36 35 36 34 35 38 31 28 23 20 18 16 14 12 11 9 8 6 4 2 1 2 3 5 6 8 9 10 11 11 12 13 14 15 16 17 18 19 19
17 17 21 24 22 17 25 25 24 24 13 19 20 22 22 22 21 13 26 32 31 25 21 17 15 14 10 9 8 6 4 3 1 2 3 5 7 9 10 11 11 12 12 13 14 14 16 17 18 17 17 15 13 11
16 15 12 7 9 14 21 21 22 20 19 20 21 21 20 20 18 23 28 24 21 19 15 12 11 8 6 4 3 1 0 2 4 6 8 10 11 11 12 12 12 13 13 14 15 16 15 15 14 12 10 9 9 10
10 8 9 16 14 18 16 18 20 23 24 19 17 15 11 12 13 17 17 17 16 13 10 8 6 4 4 2 2 3 5 6 8 9 10 10 10 10 11 12 13 13 13 14 13 12 9 7 7 6 7 9 11 12
4 5 8 11 17 16 17 18 19 19 15 12 12 12 12 8 7 7 10 10 10 10 7 4 2 2 2 3 5 8 9 11 12 11 10 9 9 10 12 13 14 13 12 10 8 6 6 5 6 8 10 11 13 14
7 9 15 18 18 20 18 19 16 14 14 11 12 9 6 5 4 5 5 6 6 5 4 3 3 5 6 7 9 10 11 10 9 9 10 12 13 14 13 12 10 8 6 6 5 5 6 8 9 10 11 13 14 15
18 21 19 19 19 18 20 18 14 11 11 9 7 6 4 3 5 5 5 3 2 2 3 4 6 8 9 10 10 9 7 7 8 10 12 13 13 12 10 8 6 6 6 5 6 7 9 10 11 12 13 14 15 16
24 23 21 21 21 18 12 11 12 15 14 11 10 10 10 9 8 6 4 2 0 1 3 4 6 7 7 7 6 6 8 8 9 8 9 9 9 8 7 7 6 5 6 8 9 10 11 11 12 13 14 16 18 19
25 24 24 21 18 18 16 16 15 14 12 12 9 10 10 9 8 6 4 2 2 2 3 3 4 4 5 5 7 8 9 10 10 10 9 8 8 7 6 6 6 8 9 10 10 10 11 11 12 14 16 18 20 22
24 23 19 18 19 22 19 17 14 12 11 9 8 10 9 9 8 6 5 3 2 2 2 2 3 3 5 6 8 10 10 10 10 9 9 8 8 7 7 8 9 10 10 10 10 10 12 13 15 17 20 21 23 23
20 18 15 16 22 19 17 16 13 10 9 9 8 8 8 7 7 6 4 3 2 2 3 4 6 6 6 6 7 8 10 10 9 9 9 8 8 8 8 9 10 11 10 10 11 12 14 16 18 20 21 23 25 25
22 20 18 19 19 18 15 13 11 9 8 8 6 6 5 5 5 4 3 2 2 3 3 4 5 6 7 7 8 9 9 9 9 10 9 9 9 9 10 10 11 11 10 11 13 14 16 18 20 22 24 25 26 26

GFSWCAN_700_spd_057.txt.gz
Wind_Speed
18 19 22 24 27 28 27 28 29 30 31 32 34 35 37 39 45 45 52 49 53 55 35 21 42 47 36 37 36 23 12 15 15 30 23 20 14 12 22 19 15 16 8 12 11 9 13 13 18 16 12 15 37 29
16 21 27 27 24 27 29 28 28 29 29 29 32 34 36 39 38 42 50 51 49 47 40 45 38 34 38 39 34 33 32 25 15 21 33 16 23 15 17 17 21 20 22 14 15 15 19 24 28 34 17 9 12 21
22 24 22 21 21 23 25 27 28 30 29 27 28 32 35 36 39 41 41 44 42 31 41 41 35 27 24 21 27 28 32 29 29 26 25 23 28 16 21 28 17 22 25 29 30 40 36 29 23 20 25 27 27 23
20 21 19 20 24 24 26 29 30 30 32 32 31 31 33 35 34 43 46 42 47 32 35 25 43 44 23 29 29 27 28 25 32 24 23 28 24 19 27 26 19 21 20 22 31 31 30 31 30 21 30 20 22 24
19 15 16 19 17 18 21 28 33 30 28 28 31 33 34 34 36 40 40 41 38 34 13 33 23 28 23 20 26 31 32 30 29 33 30 25 27 27 22 22 22 24 27 31 32 20 24 26 25 24 26 24 22 17
13 15 13 13 14 14 12 10 26 30 29 29 31 36 35 37 40 42 34 32 39 28 25 14 12 29 38 34 31 31 30 31 31 30 29 28 32 23 19 24 29 27 29 32 31 18 20 22 23 19 25 25 25 21
16 18 15 15 14 14 7 16 23 23 25 29 33 38 37 36 39 46 37 35 35 32 28 17 23 32 24 24 34 27 36 30 28 24 28 32 26 23 28 23 23 23 21 27 31 34 23 19 18 21 23 22 21 23
19 21 23 20 18 23 23 27 25 26 28 33 36 37 34 30 39 36 32 21 31 31 28 11 12 19 24 29 31 30 27 23 26 29 32 32 26 32 15 16 21 26 26 27 27 25 30 26 21 23 24 23 24 22
19 19 25 27 27 32 37 35 34 34 34 38 39 39 39 34 38 31 23 20 29 27 25 10 19 20 27 26 23 25 28 27 24 25 26 16 20 13 20 22 24 24 30 28 31 37 26 29 19 18 20 23 24 25
20 21 25 33 40 37 34 34 33 36 39 39 39 42 42 36 31 27 20 25 30 19 5 13 22 20 22 20 21 19 19 18 7 17 13 21 24 28 29 29 28 21 20 20 20 30 31 28 24 22 24 28 26 23
23 23 26 29 31 32 33 34 30 27 38 39 38 31 37 32 27 20 18 14 10 8 13 16 12 13 22 24 22 14 9 9 9 12 20 14 21 29 27 27 25 28 30 28 24 21 17 20 23 23 19 19 18 20
23 21 22 21 25 26 23 21 26 29 33 45 38 31 23 15 6 6 8 7 8 9 20 20 19 16 18 17 11 14 7 6 7 20 15 10 17 17 23 24 23 22 22 21 22 27 28 25 25 26 29 25 24 24
19 22 22 22 24 25 27 29 32 35 26 28 27 18 7 5 5 5 5 9 10 22 23 21 19 17 17 10 6 8 6 7 3 6 5 8 12 13 12 13 14 15 15 18 18 19 20 21 24 25 27 24 24 24
18 19 20 17 16 20 25 25 28 19 11 15 6 7 4 6 6 10 17 19 21 20 21 22 19 14 12 12 6 4 6 6 5 8 8 7 8 7 8 9 10 10 12 12 13 14 13 13 15 19 17 15 13 11
11 12 12 14 16 19 20 21 13 7 5 4 5 6 10 16 17 19 21 21 20 19 16 16 18 11 13 6 6 6 6 4 3 5 8 6 4 3 3 5 5 4 3 4 4 3 3 2 2 3 6 6 7 6
9 6 11 13 16 22 20 10 8 13 14 12 10 16 16 15 15 16 19 20 19 19 17 16 12 7 8 6 7 5 5 3 6 11 9 9 8 9 11 13 14 14 14 14 13 12 11 11 11 11 11 10 9 8
5 4 7 12 11 11 10 6 2 5 7 9 12 12 11 10 12 14 18 19 18 17 16 6 6 5 5 5 5 5 6 14 15 14 14 14 14 16 16 15 15 13 12 11 10 10 10 11 11 9 6 6 6 6
2 4 6 11 11 12 8 4 3 4 8 10 7 7 8 8 10 11 12 13 14 14 10 5 5 6 5 5 8 17 19 18 17 17 17 18 16 14 12 10 9 9 8 8 8 8 8 7 6 6 6 6 6 6
1 7 8 11 13 12 6 4 4 4 7 8 9 10 10 8 9 11 10 10 9 8 5 2 4 8 15 22 21 19 17 16 16 17 16 14 12 9 7 6 6 5 5 5 5 5 5 6 6 7 7 7 8 9
2 4 4 12 21 15 5 6 6 9 12 12 12 11 10 10 10 11 10 9 7 5 2 22 28 25 24 23 21 20 19 17 13 10 9 7 6 6 4 2 1 2 3 5 6 7 7 8 9 9 10 11 12 14
13 13 12 15 20 16 9 11 20 22 25 26 17 16 16 12 10 11 12 10 7 28 34 31 28 26 23 21 20 17 14 13 10 9 6 4 2 2 2 4 6 7 8 9 11 11 12 12 13 15 16 17 18 19
21 20 20 20 27 28 23 22 21 25 34 36 38 35 35 32 30 31 32 34 37 32 29 26 22 20 17 15 13 12 9 8 6 5 4 4 4 5 6 7 9 10 11 12 12 13 13 14 16 17 18 19 19 19
20 21 24 30 26 21 30 27 24 25 16 24 25 26 25 28 30 27 27 32 33 27 23 20 17 16 13 10 9 6 4 4 3 2 3 5 6 8 10 11 12 13 13 14 14 15 16 17 17 17 17 15 14 13
15 15 10 7 10 14 20 20 22 19 20 20 21 24 24 24 20 24 28 26 22 20 17 13 12 10 7 4 3 1 2 3 5 6 8 10 11 12 12 12 13 13 14 15 16 18 18 18 16 14 10 9 9 10
9 7 10 18 14 18 15 17 19 21 24 21 22 19 15 14 15 19 18 18 17 15 12 9 7 5 4 3 3 4 6 8 9 10 11 12 13 12 12 12 14 15 16 16 15 14 14 11 9 9 9 9 10 11
5 5 8 12 17 17 17 21 21 21 19 14 13 17 17 10 6 8 12 11 11 9 7 5 4 4 5 6 7 8 9 10 11 11 11 10 11 13 14 14 14 13 12 11 8 6 6 6 7 8 10 11 12 13
6 9 17 19 20 21 20 21 17 15 15 12 15 10 6 4 4 8 8 7 6 4 3 3 4 5 7 9 10 11 13 13 13 11 11 12 13 13 13 12 10 9 7 6 6 5 6 7 8 10 11 11 13 14
14 22 21 20 20 18 20 19 16 12 11 10 8 5 4 4 8 8 7 5 4 3 3 5 6 7 8 9 11 11 11 10 11 12 13 13 12 11 10 9 8 7 6 6 7 8 9 10 10 10 11 12 14 16
26 25 22 21 22 20 15 12 13 14 14 11 10 10 11 10 9 7 5 3 2 3 4 6 7 8 9 9 8 7 8 10 11 11 12 12 12 11 10 9 8 8 8 9 10 10 10 10 10 11 13 15 17 19
28 27 27 24 21 19 18 17 17 15 14 13 9 10 10 9 7 5 4 2 1 1 3 5 6 6 6 6 7 7 7 8 9 9 10 10 9 8 9 8 8 9 10 10 11 10 10 10 11 12 15 17 19 21
28 26 23 22 22 23 21 19 17 15 12 11 10 10 7 7 6 4 3 1 1 2 2 3 4 5 6 6 7 7 8 9 10 10 9 9 9 9 9 9 10 10 11 11 11 11 11 12 14 16 18 20 22 24
24 22 21 19 24 23 21 18 15 12 11 10 8 7 7 5 4 2 1 2 2 2 2 3 4 5 6 8 9 9 9 10 10 10 10 10 10 9 10 11 11 12 12 11 11 12 13 14 16 18 21 23 25 27
23 23 21 22 23 21 18 16 14 12 9 8 6 5 4 3 2 2 2 2 1 2 2 3 5 6 7 9 10 11 11 11 11 10 10 10 10 11 11 12 12 12 11 11 12 13 15 16 19 21 23 25 27 28

GFSWCAN_700_spd_060.txt.gz
Wind_Speed
25 24 22 21 22 24 25 25 25 25 26 28 30 33 33 35 36 40 47 52 57 48 33 43 40 36 42 38 31 21 18 19 17 23 17 15 9 7 9 14 4 10 11 15 18 9 14 19 13 11 16 23 24 19
19 18 21 24 25 22 25 27 28 30 29 28 28 30 34 37 36 38 43 42 45 51 35 30 28 34 36 30 23 27 22 11 16 12 16 10 14 9 8 5 8 17 19 9 11 15 17 16 18 24 31 30 27 22
20 21 25 27 27 25 25 25 26 27 31 29 28 31 32 33 38 40 43 33 39 42 42 38 26 24 22 20 17 26 24 23 27 21 16 15 16 10 12 14 14 18 14 17 20 26 27 28 29 31 35 31 19 29
23 23 26 23 21 23 26 28 28 27 28 28 28 28 30 33 34 36 42 44 36 36 34 19 38 39 19 21 18 15 21 25 30 22 21 22 21 15 14 16 19 15 16 20 26 26 27 24 29 29 27 29 24 18
22 20 21 20 19 20 21 22 25 29 31 31 28 27 30 31 32 35 33 32 34 35 12 29 22 20 30 20 13 18 21 24 26 25 29 22 24 24 23 23 19 17 19 22 27 28 28 30 29 30 28 22 24 23
16 16 16 17 20 18 19 20 23 28 33 31 31 29 30 32 34 35 32 33 30 23 11 13 22 18 18 27 26 23 20 25 30 28 22 27 32 22 18 18 21 26 27 26 28 27 29 28 30 29 30 22 21 18
17 19 17 17 18 9 5 10 25 31 33 30 30 30 34 32 36 37 30 28 35 25 28 10 6 11 20 20 22 22 17 26 26 31 32 29 27 22 22 25 28 24 21 29 31 27 23 26 27 30 28 23 20 21
17 17 20 25 18 15 17 19 27 37 34 29 31 29 31 30 25 35 23 19 26 29 20 6 8 15 19 24 27 29 29 28 18 28 22 27 21 20 19 29 27 24 25 24 23 25 27 27 27 25 28 22 20 16
17 19 25 33 30 27 23 23 28 30 30 31 33 34 28 27 36 34 26 10 20 28 16 12 13 14 18 22 25 23 26 24 20 22 23 19 21 17 27 30 29 26 22 19 23 27 27 30 33 29 28 32 17 22
26 27 29 30 35 30 28 32 34 35 37 37 36 33 28 32 34 32 17 18 28 19 14 11 20 19 22 30 23 19 22 15 6 16 16 21 25 29 30 26 24 23 24 27 25 26 24 22 25 29 27 22 23 23
17 22 26 26 23 28 29 33 35 36 35 38 33 45 42 33 26 17 12 10 13 8 12 13 18 20 23 25 25 17 10 10 8 10 14 9 19 32 33 32 33 32 30 28 26 23 23 24 24 24 23 22 20 21
14 14 22 26 21 22 27 31 30 26 40 37 39 33 28 21 8 7 12 8 7 6 10 17 18 18 23 19 14 9 6 7 5 12 12 9 17 20 23 27 31 27 23 24 26 26 26 25 21 27 24 24 26 27
14 16 18 21 20 22 25 24 35 29 30 32 28 17 6 7 6 6 7 8 8 21 23 23 24 21 19 11 7 7 6 7 4 6 6 11 14 19 19 18 17 16 17 17 16 15 16 16 16 16 19 21 20 19
13 12 13 16 21 27 24 31 24 20 14 9 6 6 4 5 6 11 14 17 25 25 26 22 21 12 16 10 6 5 6 5 5 5 7 11 11 11 12 12 12 13 12 12 12 13 12 12 13 12 12 12 7 5
11 10 10 12 17 16 17 12 11 9 8 4 4 4 6 13 20 21 21 21 22 22 21 19 16 10 13 5 5 5 5 4 5 5 7 6 3 3 2 1 2 2 2 2 2 1 1 2 2 2 4 6 7 7
7 7 8 12 16 14 15 13 10 6 8 4 6 17 18 18 20 21 20 21 20 18 16 15 9 4 5 3 5 5 4 4 5 8 7 7 7 8 10 12 14 15 15 14 14 13 12 11 11 11 11 10 8 7
6 7 9 10 16 18 9 4 8 12 7 10 14 16 16 15 17 19 19 20 18 16 15 6 7 5 4 5 6 5 4 8 12 12 14 16 17 18 17 15 15 14 13 13 12 11 9 9 10 8 6 5 5 5
2 5 10 11 14 12 8 5 2 6 13 15 13 13 12 13 14 13 15 15 15 14 14 7 3 6 3 3 4 9 14 14 15 17 19 19 17 15 13 11 10 9 8 7 6 5 5 4 4 5 6 7 7 8
5 9 9 11 11 9 5 4 3 5 9 11 12 14 13 12 13 14 13 13 11 11 9 4 2 3 7 16 19 19 18 18 18 19 17 15 12 10 8 7 5 4 2 1 1 3 5 7 8 9 10 11 11 12
5 9 10 12 12 9 4 5 5 8 11 12 12 14 14 14 13 12 10 9 8 6 3 12 26 25 25 25 24 22 21 19 14 11 9 8 7 7 5 4 4 3 3 6 7 8 9 10 11 12 12 13 14 15
7 10 11 17 16 9 5 6 9 15 16 16 14 13 16 15 12 11 10 7 7 26 35 30 28 27 26 24 23 19 16 14 12 11 8 6 4 4 4 4 6 7 8 9 11 11 12 12 13 13 14 15 16 16
17 14 15 16 15 8 9 10 15 17 23 24 22 22 22 21 18 19 27 31 35 31 29 27 23 20 18 16 14 12 10 8 6 4 3 3 4 6 7 8 9 10 11 12 12 12 13 14 15 16 17 17 17 16
23 19 16 16 17 14 23 28 26 27 17 30 31 31 32 34 34 30 22 28 30 26 22 18 15 13 11 8 6 5 3 2 3 4 5 6 8 9 10 11 12 13 13 13 13 14 14 15 16 15 15 14 12 11
15 14 11 6 10 20 24 23 28 26 24 24 25 25 22 22 23 23 26 24 22 20 17 14 12 10 7 4 3 2 3 4 6 7 8 10 11 12 13 13 13 13 14 14 16 16 16 15 13 11 9 8 9 10
9 9 10 22 18 21 19 19 20 23 26 25 24 22 19 17 16 19 18 17 16 15 12 9 7 4 3 2 3 5 7 8 10 11 13 13 13 12 11 12 13 14 15 15 15 14 12 10 7 7 7 9 10 11
5 6 8 13 21 17 18 19 23 25 21 16 15 18 19 10 6 7 11 9 9 7 6 3 1 2 4 5 8 9 10 11 12 13 12 11 11 12 13 13 13 13 12 11 9 8 7 7 7 8 10 11 11 11
7 10 19 19 20 22 21 21 21 15 11 10 16 13 5 4 3 9 9 8 5 3 2 1 3 5 7 9 10 11 12 11 11 10 11 12 12 13 13 12 11 10 9 8 7 7 8 9 10 11 11 11 11 12
14 22 21 22 22 21 23 19 16 10 11 14 10 5 4 4 7 8 7 5 4 2 2 4 6 8 9 11 11 11 10 10 11 12 13 12 12 12 11 10 10 9 8 7 8 9 10 11 11 11 11 11 13 15
24 25 25 22 21 21 18 16 10 12 12 10 8 7 8 9 8 8 6 4 2 3 4 5 7 7 8 9 9 10 11 12 12 13 14 13 13 12 11 10 9 8 8 9 10 11 11 11 11 11 12 13 15 18
28 29 27 24 22 18 14 16 16 15 14 12 9 8 8 8 7 5 4 2 2 3 4 5 6 7 7 7 8 10 10 11 12 12 13 12 12 12 11 10 10 10 11 12 12 12 11 11 12 13 14 16 18 20
31 29 26 25 21 21 20 19 17 15 13 12 11 9 7 6 5 3 2 0 2 3 4 5 6 6 7 7 7 8 9 11 12 12 12 12 12 11 11 10 11 11 12 13 13 13 12 13 14 15 17 19 21 23
27 25 24 22 24 24 22 20 16 14 13 10 8 7 5 4 3 2 0 1 2 3 4 5 6 7 8 9 10 11 12 13 13 13 14 14 13 13 12 12 13 13 14 14 13 13 14 15 16 17 19 21 24 25
22 24 23 24 26 23 20 18 16 13 10 9 6 4 3 2 1 2 2 2 3 4 5 6 7 8 9 11 12 13 14 14 14 14 14 13 13 13 13 13 13 13 14 13 13 14 15 16 18 20 22 23 24 25

GFSWCAN_700_spd_063.txt.gz
Wind_Speed
26 28 27 25 22 21 19 19 20 22 21 24 26 27 28 31 34 40 44 46 45 45 40 35 38 46 43 38 28 22 16 19 15 17 14 11 8 9 8 9 4 7 14 13 16 8 7 6 9 6 11 12 19 15
23 21 20 21 21 23 24 22 23 23 23 22 25 29 30 32 32 36 42 45 43 45 15 32 28 38 42 37 24 31 23 10 14 12 14 8 12 9 10 5 11 9 12 12 11 7 5 6 9 14 19 26 30 28
20 20 22 24 26 24 26 23 22 24 24 25 24 25 26 29 31 34 40 39 39 42 46 19 24 25 26 25 23 22 20 20 13 13 7 10 6 7 10 14 15 13 11 15 14 9 12 13 19 20 21 25 28 31
20 23 25 24 24 26 25 24 26 25 24 23 26 27 26 27 33 35 36 38 37 40 44 38 36 26 15 24 32 16 15 17 23 19 16 13 12 8 11 13 15 14 15 14 18 18 19 20 21 20 22 23 26 26
18 20 23 24 24 25 25 25 25 28 28 24 25 27 28 28 30 32 30 33 32 35 20 34 28 26 26 12 10 18 19 23 18 21 26 20 19 15 16 16 15 14 15 18 20 19 22 23 25 24 26 25 22 22
20 23 21 20 20 21 24 25 26 25 28 28 27 28 28 29 31 29 26 31 34 30 10 28 21 18 28 25 25 23 18 17 22 27 23 27 26 15 8 13 15 16 16 17 27 26 27 27 28 29 29 27 26 25
20 18 21 17 11 10 10 18 25 22 26 30 30 29 30 29 34 33 27 25 32 34 19 8 16 21 27 26 33 23 20 20 21 26 31 29 19 18 30 32 26 23 19 22 26 24 25 27 26 22 24 24 23 24
16 20 21 20 13 14 8 13 25 28 29 30 32 28 29 33 28 30 24 16 26 29 23 8 10 23 26 31 34 30 23 20 24 22 24 30 28 26 20 30 28 25 23 22 24 21 20 23 25 23 24 27 27 27
19 27 28 23 18 18 23 32 32 34 33 31 32 30 30 34 33 30 19 11 19 17 13 13 19 18 25 25 27 24 24 23 19 20 17 22 26 23 32 32 30 26 26 25 22 25 24 26 26 28 27 21 26 27
24 25 30 28 23 22 29 33 34 34 33 34 35 34 29 31 32 26 27 31 30 28 23 13 14 13 22 25 23 20 16 18 9 16 13 20 20 27 33 33 27 27 28 25 22 24 26 29 27 26 22 24 27 29
24 26 26 28 28 29 25 26 28 33 31 35 37 30 28 31 34 21 13 15 12 9 20 20 18 18 17 30 24 18 14 12 9 11 13 8 19 27 28 29 31 32 29 27 28 31 31 29 25 24 26 27 22 22
22 23 23 23 29 24 27 30 33 35 35 35 40 44 32 21 10 7 11 10 10 9 12 20 18 18 25 29 19 10 7 10 6 11 11 8 20 22 23 25 26 26 28 30 31 30 29 30 31 32 29 27 25 23
16 16 20 24 30 27 26 29 28 39 42 41 29 20 11 6 5 8 8 9 8 11 19 25 31 26 25 9 8 6 5 6 6 11 8 11 15 17 19 21 21 21 20 20 20 21 20 19 19 20 20 21 19 16
12 14 16 26 31 32 28 27 26 22 23 19 4 6 6 6 6 8 12 16 18 19 19 20 21 12 18 12 6 5 6 5 6 6 7 9 10 10 10 12 13 13 13 13 13 13 12 11 11 11 11 9 5 3
9 8 14 19 18 22 20 18 18 7 3 2 3 4 5 11 19 20 19 22 24 21 20 21 14 14 15 4 4 5 6 5 5 4 4 4 4 3 4 4 3 2 2 2 2 1 2 3 4 3 6 8 8 8
6 6 6 9 12 15 15 13 7 2 2 4 4 16 21 20 20 19 20 21 23 21 18 13 8 6 6 4 5 6 4 4 4 5 5 4 4 6 8 12 14 15 14 14 14 13 13 13 11 10 10 8 7 6
6 8 7 11 13 9 7 11 6 5 4 8 13 17 20 20 19 20 19 19 19 17 14 6 7 5 5 4 5 5 4 7 9 9 11 14 16 17 16 15 14 13 12 11 10 9 7 7 7 6 4 4 5 6
4 9 9 9 12 10 2 5 6 13 22 20 17 17 17 17 16 17 17 16 14 13 13 4 3 5 3 3 3 5 11 12 13 15 18 18 16 14 13 10 9 8 6 5 4 3 2 3 4 6 8 8 8 8
5 8 13 11 13 11 4 2 4 7 13 15 16 16 15 16 14 15 14 13 11 9 8 4 2 1 1 6 13 15 15 16 18 19 17 15 12 10 8 7 5 3 2 0 2 4 7 8 8 8 9 9 10 11
6 12 12 13 11 8 5 5 6 9 12 14 14 15 14 13 14 13 12 10 8 7 4 4 15 19 22 23 22 21 21 19 15 12 10 9 7 6 5 4 3 3 4 6 8 9 10 10 11 11 11 12 13 13
11 14 13 12 12 9 4 7 7 15 17 16 17 15 15 15 12 10 9 9 8 8 28 25 23 23 23 22 21 19 17 15 12 10 7 5 4 4 4 4 6 8 9 9 10 11 11 12 12 12 12 13 13 13
13 14 15 15 10 4 6 8 12 15 17 18 17 19 19 17 16 15 19 24 34 28 26 24 21 19 16 14 12 10 8 6 5 3 2 3 4 6 7 8 9 10 11 12 12 12 12 13 13 13 13 13 12 11
19 16 15 12 5 8 17 20 18 17 11 24 24 23 24 29 31 30 22 25 29 26 22 19 16 14 12 8 6 5 2 0 2 3 5 6 8 9 10 11 12 13 13 13 13 13 14 14 14 13 12 11 9 7
16 12 7 4 5 12 20 21 26 25 25 26 28 30 27 24 16 20 24 23 21 21 18 14 12 9 7 4 2 0 2 4 6 7 8 10 11 12 13 13 12 12 13 13 14 14 13 12 10 8 6 5 6 7
7 7 9 19 19 24 23 24 28 30 30 28 21 18 18 15 13 16 17 15 14 13 12 9 6 4 2 1 3 5 7 8 9 11 12 12 12 11 11 12 13 14 14 13 12 10 8 6 5 5 5 7 8 8
5 6 8 13 24 19 20 21 23 27 24 17 15 17 18 13 6 7 13 11 9 7 6 4 2 1 3 5 7 9 10 11 11 11 11 10 11 12 12 13 13 12 11 10 8 7 6 6 6 7 8 8 8 8
7 10 19 23 23 24 24 26 26 20 13 12 19 16 6 4 4 10 12 10 8 5 3 0 2 4 6 7 9 10 10 9 9 9 10 11 11 11 12 11 10 10 9 8 7 7 7 8 9 9 9 9 9 9
16 23 22 22 23 23 26 23 15 10 9 15 13 6 4 5 8 12 11 8 6 3 1 1 3 5 7 8 9 9 9 9 10 11 11 11 12 12 11 11 10 10 9 8 8 9 10 10 11 10 10 10 11 13
22 23 23 22 21 23 18 14 9 10 11 11 7 5 8 11 11 10 8 5 3 1 2 4 5 7 8 9 9 9 10 11 11 12 12 13 12 12 11 11 10 10 9 10 10 11 11 11 10 10 11 12 13 15
26 26 24 23 22 17 15 10 12 13 12 10 9 9 9 9 8 6 5 3 1 1 3 5 6 7 8 9 10 10 12 13 13 13 14 14 14 13 13 12 11 11 11 12 13 13 12 11 11 12 13 14 16 18
29 28 25 24 21 17 18 17 16 15 12 12 12 10 8 7 6 4 3 1 1 3 4 5 7 7 8 9 10 11 12 13 14 14 14 14 14 13 13 12 12 12 13 13 13 13 12 12 13 14 15 17 19 21
28 27 25 24 24 23 21 19 16 14 13 10 9 8 6 5 4 2 1 2 3 5 6 7 7 7 8 9 11 12 13 14 15 15 15 15 15 14 14 14 14 14 13 14 13 13 13 14 15 16 18 19 21 23
21 20 21 22 25 24 21 19 17 14 10 9 7 5 4 3 2 2 2 4 5 5 6 7 8 9 10 12 13 14 15 15 16 16 16 15 14 14 14 14 14 14 14 13 13 14 15 16 17 19 20 22 22 23

GFSWCAN_700_spd_066.txt.gz
Wind_Speed
24 25 27 26 25 23 23 24 24 23 23 25 25 26 32 33 38 40 39 39 42 45 41 23 18 23 23 32 24 19 11 14 12 13 9 6 6 8 5 5 9 12 14 14 17 11 8 10 15 10 9 10 12 14
24 20 18 19 19 20 19 19 19 20 20 21 22 23 23 31 38 39 44 42 39 43 36 42 34 25 22 23 24 24 24 14 10 12 11 7 9 7 8 6 12 7 9 9 11 13 5 7 8 8 12 17 20 23
17 18 20 22 23 23 23 24 24 21 22 21 20 20 25 27 29 36 39 40 38 39 40 37 25 33 32 25 21 28 29 20 14 15 7 9 6 8 7 10 5 12 10 7 6 6 9 13 13 14 19 20 21 23
20 23 21 22 23 22 22 24 25 22 21 22 20 22 22 27 29 32 41 39 38 40 40 26 33 23 23 22 21 22 21 19 20 17 14 11 9 9 7 8 5 9 8 7 9 11 16 19 19 17 18 21 23 25
16 19 21 23 21 22 21 21 23 23 24 21 21 25 21 23 26 31 31 32 34 32 13 35 27 24 16 19 16 21 21 16 14 21 18 15 14 12 11 12 9 11 11 10 12 14 16 18 22 21 22 22 25 25
18 18 22 21 21 22 21 22 22 24 25 25 23 23 25 26 28 30 32 33 30 30 31 6 22 38 30 25 24 21 21 18 20 17 18 19 20 14 8 10 15 22 19 19 20 16 17 20 26 23 24 25 22 20
15 23 24 19 19 15 15 17 24 26 24 28 24 27 30 28 28 32 28 28 27 29 26 16 13 17 30 30 20 16 18 21 19 21 22 21 18 14 19 18 18 17 16 20 18 17 21 21 21 20 20 21 25 26
19 21 19 15 11 11 17 18 24 27 28 29 29 31 34 28 27 28 25 22 30 33 16 8 9 21 24 31 27 20 18 16 18 19 19 17 18 23 18 23 26 27 25 24 21 22 23 23 22 22 22 22 23 27
19 23 20 21 18 17 20 27 30 29 34 36 32 33 33 31 31 21 22 22 36 30 15 11 16 19 31 28 30 24 26 22 17 19 22 16 16 17 26 34 31 25 22 24 23 25 26 27 27 25 26 26 28 27
22 26 21 23 26 27 29 29 26 34 32 41 36 36 39 32 32 23 17 20 24 18 16 17 22 15 25 25 28 22 23 20 5 13 14 18 24 30 26 25 31 29 27 26 26 27 27 28 28 27 28 29 25 21
17 20 22 20 25 27 29 32 36 40 37 34 30 23 38 31 29 20 11 8 13 9 15 17 22 15 27 24 24 18 10 9 7 10 13 9 17 27 29 29 27 27 30 31 31 29 27 29 31 31 32 30 28 28
15 19 20 25 25 24 28 27 30 31 33 30 28 36 36 26 9 6 10 9 9 10 16 29 20 16 20 22 15 18 8 10 6 10 13 13 20 19 23 26 27 28 28 28 26 25 27 30 32 29 27 27 26 25
15 20 24 24 27 26 23 21 31 28 30 37 39 16 10 8 6 9 10 9 8 11 20 33 26 20 19 17 11 13 7 7 7 12 7 11 15 18 19 20 21 22 21 20 20 20 19 18 18 17 16 15 15 14
24 26 26 25 26 26 23 25 33 37 26 17 9 7 5 6 6 10 13 16 13 18 21 24 23 15 14 17 7 5 6 6 7 5 6 10 12 13 14 15 15 15 14 12 12 12 11 10 9 8 7 6 3 2
24 24 19 21 25 20 22 37 29 23 16 3 5 5 6 9 21 20 20 20 22 21 24 27 14 20 15 6 6 5 7 4 6 7 8 8 9 9 8 7 5 3 2 1 1 1 1 3 4 4 6 8 9 7
13 12 13 14 17 17 14 10 3 6 6 3 4 15 21 22 22 22 22 21 20 16 18 15 7 7 5 4 5 5 6 6 7 8 6 5 4 3 4 7 10 11 11 11 11 10 10 10 9 8 8 7 6 5
6 8 11 14 14 14 11 9 3 3 0 6 16 20 21 20 21 22 23 21 19 18 16 8 5 5 6 5 5 5 6 7 7 7 7 7 10 12 12 12 11 11 10 8 7 6 5 4 4 4 3 2 4 5
4 8 12 15 12 5 7 6 3 5 16 21 20 20 19 19 19 20 21 20 18 15 12 6 4 7 5 5 5 5 6 7 8 9 11 14 14 12 11 9 7 6 5 3 2 1 1 3 4 5 7 8 8 8
5 9 10 13 15 8 2 6 11 11 17 18 19 19 17 17 17 17 16 16 14 12 10 5 2 4 5 6 7 10 11 11 13 15 15 13 11 9 7 5 4 3 2 2 3 5 7 7 8 9 9 10 11 11
8 11 13 11 11 8 4 4 9 11 15 16 15 16 14 15 16 15 14 12 10 9 6 4 5 12 16 18 17 17 17 17 14 11 9 6 4 4 3 4 4 5 6 8 10 10 11 11 12 12 13 13 13 14
12 13 14 13 11 8 5 8 7 14 18 16 16 15 14 14 14 13 12 10 9 7 16 19 20 19 19 19 19 17 15 13 10 7 5 3 4 5 6 7 8 10 12 13 13 14 14 15 15 15 15 15 15 15
14 14 13 11 10 6 5 8 12 15 15 18 15 14 15 13 11 9 10 9 21 25 23 22 19 18 16 14 11 9 7 5 3 2 2 5 6 8 10 11 13 14 15 16 16 16 17 17 16 16 16 15 15 14
15 14 14 12 5 4 14 18 19 19 13 19 20 17 17 20 23 26 22 26 26 23 21 18 15 14 12 9 6 4 2 0 2 4 6 7 9 11 13 14 15 16 17 17 16 16 17 17 17 16 15 13 11 9
17 14 9 4 4 8 16 13 19 20 23 21 19 24 25 23 15 18 25 22 20 19 17 14 11 9 7 4 2 0 2 4 5 7 9 10 12 13 14 14 14 15 15 16 17 17 16 15 14 13 11 9 8 8
8 6 5 7 10 15 15 19 22 23 24 28 28 21 17 14 15 16 19 17 15 13 12 10 7 4 3 1 2 3 5 7 8 9 10 10 10 10 11 13 14 14 15 15 14 13 12 10 8 8 8 8 9 10
3 4 6 12 22 19 21 22 25 32 28 20 15 17 18 14 7 9 16 15 13 11 9 6 3 2 1 3 4 5 6 7 7 7 8 9 10 11 12 12 12 12 12 12 11 10 9 8 8 8 9 10 10 10
6 10 22 23 25 27 25 28 28 20 14 12 18 20 9 5 5 14 16 14 11 8 6 4 1 1 3 4 5 6 6 7 7 9 10 10 10 11 12 12 11 11 11 10 9 8 8 9 10 11 11 10 10 10
17 25 22 22 22 22 29 26 17 12 10 17 16 6 5 6 9 15 14 11 9 6 4 1 1 3 5 6 7 7 7 8 9 10 10 11 12 12 12 11 11 10 10 9 9 9 10 11 11 11 11 10 11 12
26 24 22 21 23 26 22 16 10 10 13 15 7 6 8 12 13 13 10 9 6 4 2 1 2 4 5 6 7 8 8 9 10 11 12 12 12 12 12 11 11 10 10 9 10 10 11 11 10 10 11 12 12 14
26 25 25 23 25 21 16 11 12 14 13 10 8 10 12 13 12 11 9 7 4 2 0 2 3 5 6 7 8 8 10 11 12 12 13 13 13 13 13 12 11 11 10 11 11 11 11 11 11 11 12 13 15 16
26 26 24 24 22 18 16 16 17 16 15 15 15 11 10 10 9 8 6 4 2 1 1 2 4 5 6 8 9 10 11 12 13 14 14 14 14 13 13 12 12 12 12 12 11 11 11 11 12 13 14 15 17 18
25 24 24 24 22 20 20 20 19 17 16 14 13 11 9 7 7 5 3 2 0 1 2 3 4 5 7 8 9 10 11 13 14 15 15 15 14 13 13 13 13 12 12 12 12 12 12 13 14 15 17 18 20 21
21 18 19 21 25 25 23 22 20 17 14 13 11 8 7 5 4 1 1 0 1 2 3 4 5 6 8 9 10 11 13 14 15 16 15 14 13 13 13 13 13 13 13 13 13 14 14 16 17 18 20 20 21 21

GFSWCAN_700_spd_069.txt.gz
Wind_Speed
24 23 23 23 25 26 27 26 24 24 24 25 25 27 26 33 31 39 35 35 38 39 29 18 15 20 17 16 16 16 11 16 17 16 8 8 8 8 5 5 16 20 17 17 18 15 13 6 7 7 7 3 2 3
22 21 20 21 21 21 20 20 20 23 24 24 25 28 29 28 38 36 40 36 37 40 28 29 31 20 24 24 20 21 13 3 8 9 9 6 6 4 8 6 11 11 14 11 13 14 5 4 10 11 8 7 10 14
17 16 17 19 21 21 21 21 20 21 20 21 22 22 25 30 36 40 38 36 36 34 31 32 25 27 21 22 18 18 14 16 17 14 8 9 6 6 8 9 7 10 7 4 5 6 11 10 4 7 9 12 16 18
17 21 21 21 21 21 24 22 23 25 24 22 21 23 23 26 28 36 35 34 32 35 34 25 17 29 27 30 27 21 20 18 17 13 14 7 8 5 7 6 5 5 7 8 8 6 3 6 17 14 16 18 19 21
20 20 21 20 21 22 22 22 22 21 23 22 22 20 23 25 25 29 36 35 34 35 11 24 24 16 27 21 27 23 24 20 12 15 16 15 8 5 5 5 4 7 8 10 10 11 11 13 16 14 18 21 23 23
16 18 24 29 27 24 23 21 22 22 24 23 25 22 26 23 28 35 34 34 32 28 31 5 8 24 20 19 19 23 17 20 16 14 16 20 12 7 4 6 3 12 14 15 14 12 16 22 22 20 22 22 22 23
21 23 25 23 21 21 20 21 23 26 27 28 23 23 25 26 30 36 34 30 26 28 29 21 6 10 22 20 14 13 16 16 17 19 13 17 14 14 13 11 10 12 14 16 18 13 20 19 17 17 18 20 20 20
19 18 16 18 15 15 16 21 24 28 31 30 27 25 26 21 22 25 24 21 24 25 24 12 9 11 23 26 25 19 19 21 19 18 15 15 13 17 12 18 20 22 20 21 21 22 20 21 22 23 23 24 26 25
19 18 17 20 14 5 24 23 27 32 33 33 29 29 28 25 27 22 20 20 26 29 15 11 12 11 15 23 26 21 16 13 17 13 17 14 14 14 13 18 23 26 25 22 21 22 23 24 24 24 24 24 24 24
15 13 20 20 18 20 23 26 34 36 36 36 32 37 33 27 20 20 20 22 26 25 19 13 14 11 19 21 23 25 14 14 4 12 15 14 20 22 21 20 25 27 26 23 24 27 28 28 28 29 30 29 27 27
12 11 21 24 21 26 27 28 36 40 38 38 38 28 34 26 23 18 11 18 13 11 29 16 16 13 20 20 18 18 6 9 5 9 8 7 14 22 22 24 26 24 26 28 27 27 29 31 32 33 32 31 30 30
14 20 20 23 26 27 29 29 34 34 41 41 38 34 34 27 7 6 10 10 11 13 17 25 22 15 20 16 13 19 4 6 4 7 7 7 15 17 17 19 20 23 24 26 26 27 26 26 27 27 28 28 27 26
14 18 20 22 27 28 33 33 31 29 21 28 32 25 21 9 6 8 8 9 8 15 24 26 23 15 19 17 6 6 6 7 5 6 6 10 16 18 20 20 20 21 20 20 19 19 19 19 18 18 18 16 16 14
21 19 18 18 19 21 24 22 21 21 31 22 17 10 7 7 8 10 17 15 12 16 21 28 21 15 13 14 7 6 7 6 6 4 7 16 13 14 14 14 15 15 14 14 13 13 12 11 11 9 8 7 6 5
18 20 21 20 20 22 30 29 32 22 13 6 5 5 7 7 13 16 16 15 12 16 21 29 26 15 13 8 6 5 7 5 8 10 16 10 10 10 9 9 9 8 7 7 6 5 3 2 1 1 2 3 5 5
14 17 19 20 22 23 26 21 24 16 5 4 5 7 12 19 20 20 18 18 19 20 22 22 19 11 6 7 7 6 5 4 9 9 9 8 7 6 5 3 1 1 3 4 5 6 6 7 6 5 5 4 2 1
10 12 11 10 10 9 12 14 11 10 4 3 14 18 21 24 24 22 23 24 23 22 20 8 5 5 7 5 6 7 10 8 8 7 6 4 3 3 4 5 5 5 5 5 4 3 3 2 0 1 3 5 7 8
9 12 13 8 7 10 7 4 8 4 10 21 21 22 19 22 24 24 23 21 19 17 14 8 6 7 6 5 6 8 7 6 5 4 4 6 7 7 7 6 4 2 1 1 1 3 4 6 7 8 10 10 11 12
7 11 13 12 8 3 4 5 7 10 20 21 21 19 18 19 19 19 17 17 15 12 8 4 1 4 4 4 4 5 5 6 6 7 8 7 6 5 3 2 3 4 5 6 7 9 11 12 13 13 14 14 15 15
5 11 11 13 10 4 1 5 12 11 18 19 18 18 16 16 16 15 15 13 10 9 8 7 7 7 7 9 10 10 11 12 11 9 7 5 3 3 5 6 8 9 10 12 13 15 16 16 17 17 17 18 18 18
9 12 12 9 8 6 2 6 6 16 18 17 17 16 15 15 14 14 13 13 11 10 6 9 14 15 14 15 14 13 11 9 7 4 3 4 5 7 8 10 11 12 14 16 17 18 18 19 19 19 19 19 19 18
13 13 12 10 8 5 3 7 12 15 15 19 17 16 16 15 14 12 11 9 9 16 21 19 17 16 14 13 10 8 5 3 2 3 4 6 8 10 11 13 14 16 17 18 19 20 20 20 20 20 19 19 19 18
16 14 12 10 7 5 8 14 18 16 12 16 16 14 13 12 11 13 11 21 25 22 20 17 15 13 11 8 5 3 2 1 3 5 7 9 11 13 14 16 17 18 18 18 19 19 19 19 19 19 18 18 16 15
16 14 10 6 5 6 15 13 15 17 18 17 13 14 16 17 15 19 25 24 21 19 17 13 11 8 6 5 3 1 2 4 6 8 10 12 13 14 15 15 15 16 17 18 18 18 18 17 16 15 14 12 11 11
9 8 4 5 6 13 13 16 18 17 19 18 21 18 15 14 14 17 20 19 17 14 12 10 8 5 4 2 2 3 5 7 9 10 11 11 12 13 14 15 16 16 16 16 16 15 14 13 12 11 10 10 11 12
5 5 7 9 14 13 14 18 17 24 25 20 14 15 17 15 7 9 17 16 14 12 10 8 5 4 3 3 4 5 7 8 9 10 11 12 13 13 14 15 15 15 15 15 14 13 12 12 11 11 12 12 13 13
5 4 12 15 17 22 22 23 30 27 18 11 18 21 11 6 6 14 17 16 14 11 9 7 5 3 3 4 5 6 7 8 9 11 12 12 13 14 14 15 15 15 14 13 13 12 12 12 13 13 14 14 13 13
9 20 21 23 24 26 35 31 23 16 11 19 21 10 7 7 9 19 17 15 12 10 7 5 3 3 3 4 6 6 8 9 10 11 12 13 14 14 14 14 14 14 14 13 13 13 13 14 14 14 14 13 13 13
24 24 24 23 27 30 24 19 13 12 14 20 10 6 6 7 15 16 14 12 9 7 5 3 2 3 4 5 6 7 8 9 10 11 12 13 13 13 14 14 14 14 14 13 14 14 15 15 15 14 14 14 14 15
26 25 25 24 27 23 17 12 10 13 18 11 7 7 10 14 14 13 12 9 7 5 3 2 3 4 5 6 7 8 9 10 11 12 13 14 15 15 15 15 15 14 14 14 15 15 15 15 15 14 14 15 16 16
27 24 24 25 24 19 14 13 16 16 13 13 14 13 12 12 12 10 9 6 4 3 2 3 4 5 7 8 8 9 10 11 12 13 14 15 15 15 15 14 14 14 14 14 14 14 14 14 14 15 15 16 17 19
24 23 23 24 22 19 18 19 19 19 19 17 16 14 12 10 8 7 5 4 3 2 3 4 5 6 7 8 9 10 11 12 13 14 15 15 14 14 13 13 13 13 13 13 13 14 14 15 16 16 17 19 20 21
20 19 18 19 22 23 23 24 21 19 17 16 14 12 10 8 6 4 4 3 3 3 4 5 6 7 8 9 10 10 11 13 14 15 14 14 13 13 13 13 13 13 13 14 14 15 16 17 18 19 20 20 21 21

GFSWCAN_700_spd_072.txt.gz
Wind_Speed
30 26 23 22 23 23 23 25 26 28 27 24 21 22 27 26 25 33 35 37 37 36 28 23 20 15 12 14 17 13 14 17 13 14 8 12 10 9 7 9 23 24 20 18 17 11 7 7 5 5 7 11 9 9
25 22 21 20 19 20 20 21 22 23 25 25 25 23 23 26 32 28 31 36 38 35 25 27 26 25 15 12 6 17 8 4 9 6 12 9 9 4 7 4 16 17 25 12 15 19 7 6 12 17 10 10 7 6
22 20 19 19 17 20 21 20 20 20 20 22 25 25 25 26 30 36 27 29 34 33 30 30 30 22 21 19 19 16 9 12 10 7 14 11 8 5 5 5 11 14 19 15 12 14 14 15 14 13 9 4 4 7
20 19 19 22 24 23 21 20 20 20 21 20 19 21 22 24 28 30 36 28 30 33 31 23 15 22 20 23 20 23 15 12 10 11 13 8 5 7 6 5 4 3 12 5 8 11 10 13 9 4 4 8 11 14
15 16 21 20 21 21 21 21 23 23 23 25 23 20 23 21 25 29 31 39 29 31 12 13 15 12 16 24 23 22 19 16 15 14 13 11 11 7 2 6 6 2 5 5 8 8 10 6 2 7 11 15 18 19
14 21 23 23 26 27 27 27 26 22 23 23 25 23 21 20 24 28 33 36 25 29 31 23 5 17 17 16 21 21 21 17 16 11 12 13 15 5 3 4 9 9 8 8 4 5 9 12 13 15 18 17 20 20
17 21 22 23 21 23 23 23 25 24 22 24 22 23 20 21 29 31 32 31 26 24 28 20 21 12 20 15 18 18 18 19 13 15 17 13 10 10 8 2 6 4 2 5 8 14 18 12 15 16 17 19 21 21
17 21 21 24 25 24 22 21 27 26 25 27 23 24 19 26 27 29 27 19 22 27 26 14 8 5 15 18 17 15 12 12 15 13 12 13 9 10 6 10 13 10 13 12 15 18 16 21 19 17 18 20 21 21
17 18 24 20 16 18 21 23 28 30 29 29 25 24 26 26 25 27 26 20 17 31 22 14 11 7 17 23 24 15 12 12 10 16 15 10 8 6 6 12 14 12 14 16 20 22 22 22 21 21 23 24 26 27
15 15 13 14 11 17 23 28 34 35 34 34 31 30 28 23 20 21 20 25 23 29 23 8 16 14 13 22 24 16 17 7 5 12 9 10 10 15 18 21 19 20 23 22 20 20 20 21 25 25 23 27 30 31
9 13 10 14 15 23 29 32 36 38 36 36 35 29 31 23 21 21 12 20 14 13 23 23 7 8 12 19 18 15 4 6 5 5 9 6 7 15 18 21 22 25 26 25 24 22 22 24 27 29 28 27 27 28
9 14 15 17 19 23 30 34 35 37 39 31 35 31 31 24 10 6 10 10 10 11 12 22 8 9 12 10 11 16 5 5 3 5 6 4 8 14 17 18 19 20 20 21 23 24 23 23 22 23 23 22 22 22
9 12 14 27 24 23 30 33 33 28 21 27 35 32 13 6 6 8 9 10 8 12 16 25 18 8 17 5 5 6 5 4 3 5 5 8 14 14 17 18 17 18 18 18 18 18 18 18 18 17 18 17 17 15
13 18 20 21 22 23 22 23 22 32 34 31 17 13 8 6 9 9 15 17 13 14 15 15 19 16 11 12 3 4 5 4 4 4 7 16 11 13 13 13 13 13 13 12 12 12 12 11 11 10 9 8 7 7
15 17 16 18 18 19 18 21 26 26 26 11 9 7 8 7 13 13 15 14 13 17 22 20 19 13 13 5 5 4 5 3 7 9 14 10 11 11 10 10 9 8 7 6 5 5 4 4 4 4 4 3 2 2
15 16 16 20 21 16 14 18 13 10 13 8 5 10 11 10 13 15 16 14 13 18 26 23 12 6 5 4 6 6 4 6 9 10 10 9 7 7 6 5 5 5 5 6 6 6 6 5 5 4 3 3 3 4
14 14 17 19 17 15 19 19 12 2 2 2 8 11 14 15 17 16 16 20 22 23 22 16 9 7 6 6 6 8 10 10 8 6 4 4 3 3 3 4 4 4 5 5 5 5 5 5 6 7 9 10 11 12
10 9 10 13 12 9 14 24 16 6 5 9 16 17 18 19 18 18 21 25 25 25 19 11 10 10 9 6 8 10 7 5 4 2 2 1 2 2 2 1 2 3 5 6 8 9 10 11 12 13 14 15 16 16
8 9 10 5 4 8 6 6 9 5 14 17 19 20 18 17 17 19 20 17 15 15 11 7 2 5 5 4 4 4 4 4 3 5 6 5 3 1 1 3 6 7 9 10 11 13 15 16 18 19 19 20 21 20
5 7 7 5 2 6 4 7 11 12 17 19 18 17 18 18 17 16 14 13 12 10 7 4 4 2 3 5 7 7 7 8 8 6 5 2 1 4 6 9 10 12 13 15 16 18 19 20 20 20 21 21 22 22
7 9 7 5 3 1 3 5 7 15 17 17 17 16 16 16 15 15 14 12 9 7 4 1 1 4 8 10 11 11 10 8 6 3 1 4 6 9 11 12 14 15 17 18 19 19 21 21 21 21 21 21 21 21
11 11 10 7 6 3 1 5 10 15 15 18 16 15 15 14 13 11 10 7 5 5 9 15 16 16 15 14 11 9 5 2 1 3 6 8 10 12 13 15 17 18 19 20 21 21 20 20 20 20 20 20 20 19
12 12 10 8 4 4 6 13 16 12 11 15 14 12 11 10 9 9 7 8 12 18 18 17 15 13 11 8 6 3 1 2 5 7 9 11 13 15 16 18 19 19 19 18 19 20 19 19 19 19 19 19 17 16
14 12 8 6 5 5 13 12 14 15 15 16 12 10 12 11 11 9 17 23 21 19 17 14 11 9 6 4 3 2 4 6 8 10 12 14 15 16 17 17 18 18 19 20 20 20 19 18 18 17 16 15 13 13
8 8 4 6 6 9 11 14 16 14 17 15 15 12 14 13 14 17 20 20 19 16 14 11 8 6 4 3 3 5 7 9 10 12 14 14 15 16 17 17 18 19 19 20 19 18 17 17 15 15 14 14 14 15
5 5 5 7 11 11 11 14 12 18 21 16 12 15 17 16 8 9 19 18 16 13 11 8 6 4 4 4 5 7 9 11 12 12 14 14 15 16 18 19 21 18 18 18 18 18 17 15 14 14 15 15 16 17
5 6 9 11 13 15 18 16 23 24 17 11 18 20 12 5 5 14 19 17 14 10 8 6 5 4 5 6 7 8 10 11 12 13 14 15 15 16 17 18 18 18 18 17 17 16 16 16 16 16 16 17 17 16
8 8 15 16 17 21 24 28 25 18 12 17 22 13 8 6 8 17 17 14 12 9 7 5 5 5 6 7 8 9 10 12 13 14 14 15 15 15 16 17 18 18 17 17 16 16 16 16 17 17 17 17 16 16
13 17 18 20 23 27 28 24 18 13 13 22 18 10 6 5 8 16 16 13 11 8 6 6 5 6 7 8 9 10 11 13 13 14 14 15 15 15 18 18 18 18 17 17 16 17 17 17 17 17 17 17 17 17
23 24 24 27 29 24 22 15 12 12 18 17 7 6 7 12 16 16 14 11 9 7 6 5 5 6 7 9 10 11 12 13 13 14 15 16 18 19 18 18 17 17 17 17 17 17 17 17 17 17 17 17 18 18
25 23 25 28 23 19 15 12 13 18 16 9 9 10 10 12 13 11 11 9 7 6 5 5 5 7 9 10 11 12 12 13 13 14 16 17 18 18 17 17 17 16 16 16 17 17 17 17 17 18 18 19 20 21
23 22 22 24 22 19 17 17 17 16 15 16 16 15 14 12 11 9 8 6 5 4 4 5 7 8 10 11 12 12 12 13 14 16 17 17 17 17 16 16 16 16 16 16 17 17 18 18 19 20 21 22 22 22
19 19 18 18 21 19 18 19 18 19 18 17 15 13 12 10 8 7 6 5 5 4 5 7 8 10 11 12 12 13 13 14 15 16 16 16 16 16 16 15 16 16 16 17 18 18 19 20 20 21 21 22 22 23

GFSWCAN_700_spd_075.txt.gz
Wind_Speed
26 27 28 26 22 20 19 19 18 19 21 23 21 18 15 20 22 26 28 29 31 30 29 22 21 19 10 11 7 7 11 11 10 16 10 9 12 14 12 15 19 28 20 20 21 7 8 8 11 5 11 15 13 8
26 27 24 20 17 17 17 17 16 19 22 24 24 23 19 20 22 22 22 29 29 31 25 21 23 19 17 14 14 14 10 6 10 5 6 8 11 13 8 6 14 16 30 16 18 12 6 8 7 10 19 12 11 6
26 22 19 17 17 16 14 14 15 16 16 17 21 24 23 22 22 26 19 24 30 32 28 29 19 12 19 23 16 11 2 8 8 9 10 11 10 13 5 5 7 18 22 11 13 12 16 17 22 18 13 7 6 3
20 18 16 16 16 18 21 22 19 16 17 16 16 20 24 22 22 25 24 21 25 27 31 17 8 16 19 20 20 20 15 11 7 8 12 9 12 5 4 5 5 5 19 20 10 18 29 22 18 12 6 4 1 3
18 16 15 15 17 18 19 20 19 19 19 16 16 17 20 22 24 23 28 29 21 19 9 18 25 17 16 22 18 18 21 14 9 10 10 11 12 9 10 7 16 19 10 13 12 13 19 12 12 8 6 7 9 10
15 13 14 18 19 21 22 24 23 21 19 19 19 19 17 21 19 25 29 28 29 24 24 25 5 10 17 19 18 20 18 17 16 13 11 8 11 11 3 13 11 10 14 9 16 4 8 10 8 6 8 9 9 10
13 15 20 20 23 22 23 21 23 25 25 20 21 23 19 21 24 29 28 29 26 28 23 14 10 4 17 14 14 15 17 17 14 12 11 13 13 12 3 5 9 9 8 8 5 2 8 9 6 11 12 10 10 11
15 18 20 23 26 27 26 25 21 23 24 22 21 21 20 20 24 29 25 15 22 28 19 11 13 6 15 17 14 14 14 12 14 13 9 2 6 9 2 1 1 3 6 7 9 11 13 13 12 13 15 15 15 16
15 18 18 20 23 23 23 24 26 24 26 26 25 26 27 24 25 27 21 12 15 25 13 14 10 5 15 17 12 18 12 7 9 11 10 6 6 2 2 3 3 3 5 7 10 13 16 16 16 16 17 20 21 21
12 13 14 16 11 5 18 25 26 32 32 33 30 27 30 26 24 27 21 15 14 21 25 20 11 13 11 14 24 6 4 4 3 6 8 8 9 12 14 14 15 15 13 15 16 16 17 18 16 17 20 21 22 25
9 11 9 4 8 14 24 31 36 36 35 33 37 35 26 24 22 26 11 14 12 10 24 26 19 12 13 16 19 13 5 6 3 5 12 6 9 14 13 13 15 16 17 19 18 17 16 18 20 21 21 22 22 21
11 8 6 10 17 22 27 32 32 35 35 32 32 32 30 25 9 7 13 10 10 9 9 18 22 9 10 19 13 17 7 8 2 11 7 5 12 10 10 12 16 18 18 19 20 20 20 20 18 17 18 18 19 19
11 15 15 23 26 26 27 28 31 41 32 37 35 24 16 7 6 8 10 10 8 12 12 12 12 14 10 5 7 9 5 4 5 6 3 9 7 8 11 11 12 13 13 14 15 15 15 15 15 14 14 14 14 13
14 17 20 19 21 25 26 24 27 25 30 32 15 12 6 7 8 7 18 18 12 11 13 15 12 5 9 5 4 4 5 5 5 4 7 7 7 9 10 10 10 10 10 10 10 10 10 10 9 9 8 7 7 7
19 19 19 21 21 24 23 24 22 17 25 12 10 6 8 6 14 13 14 17 14 9 12 16 16 11 9 4 4 3 4 3 7 9 9 5 6 6 6 6 7 6 6 5 6 6 7 8 8 8 8 8 7 7
18 18 17 18 18 21 20 20 22 26 19 12 7 8 10 14 16 16 15 16 17 18 16 15 10 6 6 4 5 5 5 6 6 5 5 6 4 4 3 2 2 3 4 6 6 7 7 7 7 7 7 7 8 9
18 19 20 19 17 20 13 12 17 20 8 8 12 13 16 13 13 17 16 17 18 23 22 13 7 6 6 6 7 7 10 9 4 4 4 3 2 1 2 4 5 5 5 6 6 7 8 8 9 10 11 13 14 15
13 14 18 15 9 14 14 13 7 4 5 8 13 12 10 13 17 18 18 19 19 25 25 13 8 9 5 7 10 11 7 5 4 3 2 2 4 5 5 3 3 4 6 8 9 11 12 13 14 15 17 18 18 17
9 8 10 12 4 11 16 17 12 2 6 10 13 16 16 16 15 16 20 20 20 18 17 13 6 10 11 7 4 5 5 5 3 4 7 7 6 4 2 3 6 8 10 12 13 15 17 19 20 20 21 22 21 20
8 10 9 8 10 11 7 8 12 8 18 18 18 17 17 17 17 17 17 15 18 21 10 6 4 4 5 5 6 7 6 8 9 8 6 4 1 2 5 8 10 12 14 16 18 19 19 18 18 20 21 22 23 21
7 7 8 7 8 7 8 9 9 17 20 17 18 16 16 16 15 14 12 10 9 8 6 5 4 3 5 7 9 11 12 10 8 5 2 2 5 8 10 13 14 16 17 19 18 19 21 22 22 20 20 21 21 22
7 8 7 6 5 5 5 8 16 19 17 20 18 16 16 14 12 11 10 9 8 7 6 7 12 16 16 15 12 10 7 4 2 2 5 7 9 11 13 15 16 18 19 20 22 21 19 21 21 21 20 20 20 20
11 10 9 7 4 4 11 17 18 14 13 17 17 16 15 15 14 13 9 10 10 12 16 17 16 15 12 9 6 4 2 2 4 7 9 11 13 14 15 16 18 20 19 19 20 19 19 19 19 19 18 18 16 16
13 11 7 5 3 4 15 12 14 16 16 18 14 12 14 13 13 10 9 13 18 19 18 16 13 9 7 4 2 0 3 5 7 9 11 12 14 15 16 16 17 19 20 20 19 19 18 18 17 16 16 15 14 14
8 7 4 5 5 8 10 14 16 13 20 17 15 12 14 11 9 10 19 22 21 19 16 13 9 7 5 2 2 4 6 7 9 12 14 15 15 16 15 15 16 17 19 19 18 17 16 17 16 15 15 14 15 15
5 4 5 7 9 9 10 15 11 18 20 15 11 13 15 15 9 10 20 19 18 15 12 9 7 3 2 2 5 7 9 9 11 12 14 15 16 17 18 18 16 16 17 18 18 19 18 16 16 15 16 15 15 16
4 4 7 8 10 12 17 16 18 23 17 9 18 21 14 6 6 16 21 19 16 12 9 6 3 2 3 4 6 8 10 11 12 13 15 15 15 15 16 17 19 19 19 18 18 18 17 17 17 16 16 16 16 15
6 5 8 10 12 15 20 24 25 17 11 17 23 12 8 5 6 16 18 15 13 10 8 6 4 4 5 6 7 9 11 13 14 15 15 15 15 16 18 19 20 20 19 19 18 18 17 17 17 17 16 16 16 16
8 8 12 14 15 18 23 21 15 14 13 21 19 12 5 4 5 16 17 16 13 10 8 5 4 4 5 7 8 10 12 13 14 15 14 13 14 16 18 19 18 18 17 17 17 17 18 17 17 17 16 16 16 17
10 15 17 19 21 21 22 16 13 11 14 18 12 7 5 7 15 18 17 14 11 8 6 5 5 5 6 8 10 12 14 15 15 15 16 16 18 19 19 18 18 17 17 17 17 17 17 17 17 17 17 17 18 19
18 19 21 24 22 20 16 13 11 15 20 14 8 7 6 10 13 13 14 13 10 7 5 5 5 6 7 9 11 13 14 14 14 15 16 17 18 18 18 17 17 17 17 17 17 17 17 18 18 19 20 20 21 21
19 20 22 22 23 20 16 15 17 18 16 12 13 14 14 14 13 11 11 9 6 5 4 5 6 7 9 11 12 13 14 14 15 16 16 17 17 17 17 17 17 17 17 17 18 18 18 19 19 19 20 20 21 22
17 19 19 17 17 17 17 16 17 17 17 18 18 16 15 13 10 10 8 6 6 6 6 6 7 9 11 12 14 14 14 15 16 17 17 17 17 17 17 17 17 17 17 18 18 18 18 19 20 21 23 24 25 26

GFSWCAN_700_spd_078.txt.gz
Wind_Speed
25 24 22 21 21 21 17 17 14 15 15 17 19 16 15 12 17 20 17 20 22 23 21 16 13 12 9 6 9 5 5 5 6 7 4 6 9 12 13 17 17 15 15 20 21 13 12 10 12 4 11 19 13 11
23 22 21 20 20 16 15 14 12 11 13 17 19 20 19 15 15 20 17 19 22 26 21 21 18 14 10 13 14 13 8 10 3 2 5 6 12 13 20 17 21 13 25 16 15 13 17 14 14 6 4 4 12 7
21 20 20 20 16 15 15 14 12 10 10 12 15 22 21 19 16 18 12 14 22 27 26 24 10 8 14 13 15 15 9 8 3 4 7 9 10 14 15 7 7 9 20 10 15 11 17 12 18 12 12 19 16 12
20 19 20 17 16 16 16 16 16 14 14 13 13 15 20 21 19 19 17 16 18 22 24 16 7 12 14 15 16 17 15 17 10 8 7 8 13 12 13 7 6 4 10 21 19 17 26 20 19 17 19 12 8 6
19 19 18 17 17 17 17 16 16 15 14 13 14 13 16 20 20 19 17 16 18 14 9 6 13 16 12 12 17 18 14 18 18 11 10 10 14 12 9 0 16 12 14 20 12 8 19 19 12 12 9 7 3 2
18 17 17 17 16 17 18 17 16 16 15 15 14 13 16 19 20 20 20 20 21 19 15 10 2 5 9 17 16 16 14 14 14 15 12 10 10 15 4 8 12 14 18 24 17 12 12 11 8 7 6 3 2 3
15 15 15 17 19 20 20 18 18 20 21 17 17 16 16 20 24 26 22 20 19 22 20 11 5 6 14 16 17 17 15 14 15 14 11 8 6 9 6 9 5 12 12 13 7 6 7 4 2 3 3 2 3 4
12 14 17 21 23 24 24 23 22 20 20 21 18 18 18 21 23 22 27 16 18 17 20 10 9 8 14 21 16 13 13 13 13 9 8 5 4 8 1 5 0 2 3 2 2 3 4 4 6 7 7 8 8 10
12 14 19 22 24 25 25 25 24 23 21 23 22 22 21 23 23 24 24 15 10 22 18 16 9 4 15 17 16 13 11 8 7 8 9 6 4 1 5 5 2 1 3 7 8 9 9 10 9 8 9 10 12 15
13 15 18 17 16 18 23 25 26 30 26 32 31 27 33 26 21 26 15 15 15 21 25 19 13 10 10 14 15 12 12 8 4 5 6 7 10 8 9 10 8 8 10 11 12 13 13 10 10 12 13 15 17 17
9 11 7 6 7 6 11 29 37 33 38 38 37 30 26 27 24 18 10 11 11 10 19 24 18 12 9 12 22 5 4 4 3 4 6 4 7 11 12 11 8 8 10 12 13 14 16 16 17 18 17 16 16 16
4 2 4 4 9 14 29 37 40 42 45 43 41 30 32 28 12 8 11 9 8 9 7 13 16 16 10 11 11 12 4 4 3 8 7 4 8 5 6 8 10 12 12 11 11 11 12 12 13 13 14 15 14 13
8 8 11 14 20 24 28 36 35 36 37 31 31 27 21 10 8 10 11 10 8 12 9 10 11 11 8 11 6 7 6 3 7 4 3 5 3 6 6 8 10 11 10 10 9 9 9 8 8 9 9 9 10 10
15 16 21 24 24 24 25 28 32 33 32 34 13 12 6 7 7 10 19 23 10 14 11 12 12 8 9 6 6 5 6 6 5 4 5 4 6 7 6 6 5 6 7 7 7 6 6 6 7 7 8 8 9 9
17 18 19 21 21 21 17 30 32 37 31 12 10 6 8 11 14 13 18 19 11 13 16 17 10 7 6 3 3 5 7 5 7 5 6 6 5 5 4 4 4 4 4 3 3 4 5 5 6 6 7 7 8 8
21 20 17 17 17 21 29 28 30 32 11 14 6 8 10 15 17 15 18 20 15 14 19 17 10 5 6 4 6 5 5 5 4 5 4 4 5 4 3 3 2 1 3 3 2 2 3 4 6 7 8 9 11 12
20 20 20 21 17 18 17 19 25 17 11 9 8 7 10 14 14 17 19 20 22 18 21 9 7 7 7 7 9 8 7 5 5 5 5 5 5 4 3 4 5 4 1 1 3 5 6 8 10 12 13 14 15 16
18 17 18 23 24 14 18 17 18 7 9 14 10 8 10 11 14 18 17 21 25 22 21 11 4 7 3 4 6 8 8 7 7 6 5 5 5 6 6 4 2 2 4 7 9 11 12 13 14 16 17 18 17 18
14 18 15 11 11 14 16 14 11 10 12 12 12 11 12 13 15 15 15 15 18 20 17 11 4 7 11 10 6 4 6 6 5 5 5 7 7 5 3 1 4 7 9 11 13 16 18 20 21 22 22 22 22 22
13 14 13 13 9 23 17 10 13 8 12 14 13 15 15 15 15 13 12 13 13 15 14 13 10 3 4 8 8 6 5 6 8 9 8 5 3 1 4 7 9 11 14 16 18 19 19 20 21 22 22 22 22 22
14 12 9 11 12 9 9 12 13 10 16 19 18 16 15 14 14 15 15 13 14 15 15 11 11 9 7 6 6 8 11 10 9 6 3 0 3 6 8 11 13 14 15 16 16 18 19 19 19 19 20 21 22 22
11 11 10 10 9 9 7 12 15 20 19 23 20 18 19 18 17 16 14 14 13 13 12 11 9 7 12 15 14 13 9 5 3 1 2 5 8 10 12 13 14 16 17 18 18 19 20 20 20 20 20 20 19 19
10 10 9 7 4 6 15 21 20 17 15 20 20 19 18 17 15 14 11 14 12 12 11 13 16 17 15 12 10 7 4 2 1 3 5 7 9 11 13 15 16 16 17 17 18 19 19 19 19 19 19 18 17 16
12 11 7 3 3 5 20 16 18 18 18 21 18 15 17 16 16 16 12 13 13 15 18 17 15 12 10 7 5 2 1 3 5 7 9 10 11 12 15 17 17 17 17 16 16 17 18 18 18 17 17 17 16 16
8 7 4 5 5 12 13 17 19 14 23 20 18 13 15 15 15 13 13 15 18 19 18 16 14 10 8 5 2 1 3 4 6 8 9 11 12 13 14 14 16 15 16 17 16 16 16 16 17 17 16 16 16 17
6 4 6 9 10 11 12 16 15 17 24 19 15 14 17 12 9 6 15 20 20 17 15 12 8 5 4 3 2 2 4 7 9 11 13 14 15 14 12 12 14 16 17 18 18 17 16 15 15 16 16 16 16 17
5 3 6 8 10 10 16 16 15 22 20 9 14 17 12 7 6 14 22 21 17 14 11 10 9 7 4 3 3 4 5 8 10 12 14 15 16 15 15 15 16 18 18 18 18 17 17 17 17 16 16 17 16 16
5 4 6 8 10 11 16 18 22 20 13 11 19 14 10 7 9 20 19 18 17 15 13 11 8 5 4 4 5 6 7 9 11 12 13 15 15 15 16 17 18 18 18 17 17 17 17 17 17 17 17 17 17 17
7 7 7 11 12 15 16 19 14 14 11 18 21 14 6 5 14 20 20 19 17 14 12 8 6 5 5 5 6 7 9 11 13 13 14 14 14 16 17 18 19 18 17 17 17 17 17 17 17 17 18 18 19 19
11 10 14 16 17 15 19 18 13 12 15 23 15 10 7 7 15 20 21 18 15 13 10 8 6 6 6 6 7 9 11 12 13 14 14 14 15 16 17 17 17 17 17 16 16 16 17 17 18 18 19 19 20 21
11 15 18 19 18 18 19 15 14 15 22 20 11 9 5 8 13 17 18 17 15 12 10 8 7 6 6 7 9 10 12 13 14 15 16 16 17 18 18 18 17 17 17 17 17 17 18 18 18 19 19 20 21 22
16 17 17 19 21 21 18 16 17 20 22 16 12 12 11 13 15 14 15 13 11 9 8 7 6 6 7 9 10 12 13 14 14 15 16 17 17 18 17 17 17 16 16 17 17 17 17 17 18 20 21 23 23 23
15 15 16 16 19 17 17 17 18 19 19 16 15 15 15 16 14 13 13 13 13 10 8 7 7 7 8 9 11 12 13 14 15 16 16 16 16 16 16 15 16 16 16 16 16 17 19 20 22 22 22 22 23 24

GFSWCAN_700_spd_081.txt.gz
Wind_Speed
26 25 24 23 22 20 18 18 16 14 13 13 16 18 18 15 12 16 15 14 18 20 18 16 7 5 7 6 6 5 4 7 3 1 1 3 6 6 8 11 11 9 8 9 13 9 11 14 15 17 3 5 12 14
26 24 23 22 21 19 17 16 13 11 10 12 14 18 20 16 15 14 14 13 16 19 15 10 9 8 9 8 10 7 4 9 6 1 4 4 6 8 14 15 16 15 21 12 10 7 12 18 14 20 5 4 9 9
25 23 23 22 20 18 17 16 14 12 11 9 12 16 19 20 16 15 11 12 17 18 17 17 10 10 11 10 12 12 7 7 16 12 6 4 5 10 10 11 17 15 17 14 14 12 16 11 15 13 8 13 10 10
24 24 22 21 19 19 18 17 15 14 13 11 12 12 17 21 19 16 14 12 13 12 16 12 6 12 15 13 9 13 10 12 15 15 5 6 10 11 14 5 7 8 12 8 12 8 14 18 14 15 17 13 9 6
24 23 21 20 19 19 19 18 16 16 16 14 12 13 14 16 19 18 15 12 13 11 4 1 10 10 11 11 8 13 11 10 12 15 12 12 9 10 10 5 10 12 1 13 9 17 10 16 11 9 9 10 6 3
23 22 21 20 20 19 20 17 15 14 14 13 13 13 12 17 20 19 17 15 15 12 10 4 4 5 9 13 12 11 9 9 11 13 14 10 9 11 6 3 7 8 8 19 17 13 12 12 9 9 7 1 2 2
22 21 19 19 20 20 19 16 16 15 15 13 13 14 14 18 22 24 20 15 10 14 13 7 5 8 11 12 13 14 13 10 10 14 12 9 9 11 8 4 6 11 15 15 12 8 4 5 2 1 4 5 4 3
20 19 19 20 19 19 20 18 18 16 17 17 14 16 14 20 19 22 21 13 7 14 20 7 6 5 8 12 13 13 10 9 14 13 10 9 13 5 3 3 3 4 2 1 1 2 2 2 2 5 7 7 8 8
19 19 18 17 19 21 22 22 22 21 18 17 19 18 16 24 24 21 19 19 12 17 10 10 8 3 11 15 16 12 10 8 8 9 8 6 7 2 3 0 2 0 4 5 5 5 6 6 6 6 6 7 8 10
19 18 17 20 21 22 24 26 26 23 21 24 26 26 26 25 21 16 20 12 12 22 20 20 10 9 10 12 13 11 8 9 5 10 7 10 14 11 10 7 6 6 6 5 6 7 7 7 8 8 9 10 11 11
14 16 17 19 20 22 24 26 28 27 32 35 36 30 25 22 20 24 11 13 13 9 14 20 13 9 2 9 13 8 7 6 4 5 8 5 8 9 8 7 4 3 6 6 7 7 7 8 8 8 8 9 9 9
10 12 13 17 18 19 24 31 33 41 43 43 40 32 24 27 10 8 12 10 7 10 6 9 12 10 7 7 11 12 4 5 3 7 6 4 5 4 4 4 6 6 5 4 3 2 2 3 3 4 4 5 5 6
5 10 5 6 9 13 21 39 47 46 45 41 32 31 15 10 10 10 15 11 8 9 9 12 10 7 6 8 5 6 6 5 4 6 4 6 6 4 3 4 6 7 7 9 9 8 6 5 5 5 5 5 5 5
14 12 14 18 18 21 31 41 42 46 45 35 18 15 9 7 11 10 17 20 14 10 12 14 10 7 7 10 6 5 5 5 5 4 3 3 3 5 6 6 6 6 7 7 7 7 6 7 8 8 9 9 9 9
19 22 20 19 25 31 33 33 40 37 38 13 10 8 11 13 18 17 18 19 12 17 17 14 12 9 8 4 4 4 6 5 6 6 6 5 3 5 6 6 6 6 5 4 2 2 4 5 6 7 8 9 11 12
19 20 17 19 20 31 28 32 36 30 19 14 10 11 17 20 16 17 19 21 13 17 21 15 7 5 3 2 5 4 4 4 4 4 5 6 7 7 7 6 4 3 1 1 1 3 5 7 8 10 12 13 15 16
19 19 20 21 22 30 36 36 21 14 9 8 10 10 13 18 16 18 20 21 20 21 20 11 8 7 5 6 7 7 8 6 5 5 6 6 7 6 5 3 2 2 2 3 6 8 10 11 13 14 16 18 19 20
20 20 22 24 23 25 30 30 19 8 9 10 9 9 11 15 14 18 21 19 17 17 21 10 6 9 4 4 6 7 9 9 8 7 6 5 4 3 3 4 3 3 6 8 9 11 13 15 16 18 19 19 20 20
16 20 23 23 18 20 20 21 12 7 13 11 8 8 12 13 14 16 19 23 18 17 16 9 3 4 8 7 7 5 4 7 6 5 3 3 4 5 3 4 6 7 9 11 12 14 16 17 19 20 21 22 21 21
17 17 20 19 17 22 13 13 14 10 14 12 10 8 9 12 13 14 15 19 23 19 16 12 12 6 3 6 7 6 4 3 3 5 7 6 4 4 5 6 7 9 11 13 15 17 19 21 22 22 22 22 22 22
17 17 16 13 11 21 13 16 15 10 16 14 12 11 13 14 13 14 14 14 15 16 17 17 14 10 7 6 5 5 5 8 8 6 5 4 4 4 5 8 11 12 14 17 19 20 20 20 20 21 22 22 23 23
12 11 13 16 19 18 13 16 16 16 13 15 17 17 16 15 15 16 14 14 14 14 14 12 10 9 8 6 8 12 11 8 5 4 2 2 5 7 8 10 12 15 17 18 19 19 19 19 20 20 21 21 21 21
12 12 12 11 6 6 15 17 18 17 13 20 20 17 17 18 19 18 12 14 13 13 13 12 11 10 13 13 11 9 7 4 2 1 3 5 7 9 10 12 14 16 16 17 17 18 18 19 19 19 19 19 19 19
10 8 4 2 3 7 22 18 19 19 19 23 21 19 21 20 19 17 14 12 13 12 11 11 15 14 13 11 9 7 5 3 2 3 5 7 9 11 14 15 16 15 15 15 17 18 19 20 20 19 19 19 19 18
7 5 2 3 5 15 14 20 21 16 24 24 22 15 19 17 16 15 15 13 13 12 15 19 18 16 14 11 8 6 4 2 3 5 7 9 11 14 15 16 16 16 16 17 18 19 19 19 19 19 19 19 19 20
5 3 4 6 9 12 12 16 16 14 22 20 18 11 15 14 11 7 17 13 13 15 16 14 12 10 9 7 5 4 3 3 4 6 8 10 12 13 14 15 16 17 18 19 19 19 19 19 18 19 19 19 19 20
4 2 6 8 10 10 14 16 15 16 21 12 15 13 12 7 9 8 14 19 19 19 17 15 14 11 7 6 5 4 4 5 6 8 11 13 14 14 14 14 16 17 18 19 19 19 19 18 18 18 18 18 18 19
5 4 5 7 9 9 12 15 15 16 16 10 14 14 9 7 7 15 21 22 21 18 17 16 11 8 7 7 5 5 6 7 9 11 13 15 16 16 16 17 17 18 19 19 19 19 19 18 18 18 18 19 19 19
5 5 5 9 11 13 14 16 12 14 16 9 16 16 8 9 12 23 22 23 22 21 17 12 11 10 7 5 5 6 6 8 10 13 14 15 17 17 18 19 20 20 20 20 19 19 19 19 19 19 19 19 20 20
10 8 9 11 14 14 16 17 14 13 12 13 18 11 8 10 24 25 24 23 22 19 17 14 10 9 7 6 6 6 8 10 12 14 15 15 16 17 17 18 18 18 18 18 18 18 18 18 18 18 18 18 19 21
13 13 14 15 17 14 16 17 15 13 13 21 16 11 8 11 20 24 25 23 20 17 15 13 11 9 7 6 7 8 10 12 13 14 15 16 16 17 18 18 17 17 17 17 17 18 17 17 18 19 20 22 22 22
13 15 15 17 17 17 19 18 15 14 21 23 15 14 11 12 16 17 19 19 18 16 13 10 9 8 7 7 8 9 11 13 15 16 16 17 17 17 17 17 17 17 17 17 17 17 18 19 20 21 22 21 22 24
14 14 14 14 16 18 19 16 16 18 23 23 18 15 13 14 15 16 17 18 17 15 13 11 9 8 8 8 9 11 12 14 15 15 16 16 16 16 16 16 16 16 16 17 18 19 20 21 22 22 22 22 24 26

GFSWCAN_700_spd_084.txt.gz
Wind_Speed
28 27 27 25 23 22 21 18 15 15 15 13 12 15 16 19 13 13 12 11 16 18 15 16 11 8 7 10 11 12 6 14 12 6 4 3 2 2 4 5 7 6 5 5 6 7 8 9 10 11 20 12 10 2
27 27 26 25 23 22 20 16 15 14 13 11 12 13 18 19 15 16 13 10 15 17 14 8 6 9 8 7 9 6 7 8 20 13 6 4 3 2 7 5 7 5 10 6 10 6 12 16 16 16 19 12 9 16
28 27 26 25 24 22 19 16 15 15 13 11 9 10 15 21 16 16 13 10 15 15 14 12 9 13 8 6 9 8 6 11 14 20 9 3 3 8 7 7 12 9 15 12 14 14 16 14 14 14 17 7 6 10
27 27 26 25 24 21 18 17 17 16 14 13 11 7 11 18 19 18 12 9 9 10 13 7 4 7 11 7 8 8 5 11 10 13 12 10 8 8 11 11 11 15 9 1 7 7 8 13 9 4 6 6 4 3
26 26 25 25 23 20 19 18 18 17 16 16 13 10 11 13 16 17 15 11 9 9 7 7 5 7 6 8 8 8 5 4 7 11 11 12 9 10 9 9 9 11 6 6 3 10 5 8 8 7 1 2 3 3
27 25 26 25 22 20 19 19 19 18 19 18 14 9 13 13 16 19 16 15 11 10 11 6 1 5 9 9 11 9 8 7 8 10 11 9 11 13 7 3 6 6 4 7 10 9 7 9 7 6 6 6 3 4
27 26 25 23 21 20 20 21 19 18 17 14 15 12 15 13 21 20 17 11 7 10 10 6 5 7 9 12 13 10 9 8 8 11 9 11 10 14 8 1 2 8 11 8 7 7 5 2 1 0 0 1 4 6
27 24 23 22 21 21 22 21 20 18 16 15 13 11 14 14 16 20 19 11 7 11 12 6 5 5 7 10 12 12 11 10 11 9 11 9 10 9 2 3 4 3 3 4 2 1 1 3 6 8 8 7 8 10
25 24 23 22 22 22 22 23 19 17 14 15 16 16 12 20 20 17 17 17 12 11 7 8 7 3 5 8 11 9 9 8 8 9 9 6 6 4 3 1 2 1 2 3 5 7 7 8 9 9 9 9 10 10
23 23 22 22 23 23 23 24 20 19 17 18 22 21 18 19 20 15 17 21 17 23 17 16 9 6 6 12 10 10 7 8 3 5 7 8 14 13 9 6 5 6 7 6 6 7 8 8 9 10 10 10 12 11
21 21 23 24 24 23 24 24 23 21 24 27 28 26 19 17 20 18 12 14 12 9 16 19 16 13 9 10 13 11 4 5 3 5 6 4 6 6 8 8 7 6 6 7 6 7 8 8 9 10 10 10 10 9
19 21 22 24 25 26 26 25 27 32 32 33 32 25 26 18 10 9 12 10 8 11 8 7 11 12 5 5 10 8 5 5 4 5 5 4 7 6 5 7 5 5 6 7 6 6 5 6 7 7 7 6 6 6
16 17 20 24 27 28 26 27 31 37 37 33 33 27 19 14 10 11 14 13 13 5 10 15 15 11 9 6 6 6 5 4 3 5 4 8 5 6 6 5 5 6 4 3 4 5 5 4 3 2 1 1 2 3
12 12 13 13 15 23 29 34 42 41 42 36 31 15 15 9 10 11 21 22 17 7 11 19 15 9 8 10 5 4 5 4 4 5 5 7 7 6 6 5 4 4 1 0 0 1 2 3 3 2 3 4 5 7
14 11 11 13 15 20 31 40 45 44 44 22 20 10 10 10 14 18 12 17 19 10 18 18 12 8 9 6 6 6 5 4 5 6 7 5 5 5 4 2 2 3 3 3 3 4 4 4 5 6 8 10 11 13
19 17 14 13 18 25 36 44 46 47 33 21 13 13 18 19 19 18 16 17 17 15 18 14 9 6 5 4 6 6 5 5 4 5 7 6 6 3 1 2 3 4 3 3 3 5 7 9 11 12 13 15 16 18
20 18 22 24 27 34 41 40 38 33 19 10 14 12 19 22 21 20 20 21 16 21 22 10 6 6 5 5 4 5 5 4 3 3 3 3 3 3 3 2 2 1 1 3 7 10 13 15 16 17 18 19 21 22
18 20 23 21 24 25 31 30 28 18 17 16 15 16 18 18 15 19 20 22 19 20 24 12 6 8 4 4 6 6 7 8 8 7 5 3 2 1 1 2 2 1 5 9 12 13 15 16 18 19 20 21 22 22
18 26 25 29 29 33 27 14 11 11 19 14 11 13 16 16 15 19 19 21 23 20 21 12 5 7 9 5 7 8 6 5 5 4 4 3 4 5 4 1 4 7 9 11 13 15 17 19 20 22 22 22 22 22
20 25 25 25 22 23 17 13 12 9 16 12 8 11 14 14 15 18 20 18 16 18 18 17 11 7 4 8 11 6 4 4 5 4 6 7 4 1 2 5 7 9 11 14 16 18 20 21 22 22 23 23 22 22
23 24 21 20 23 20 10 15 13 9 13 15 13 11 13 14 15 16 18 21 21 19 19 16 15 11 7 5 3 4 5 6 8 9 6 2 1 3 5 7 9 12 14 17 19 21 21 21 21 21 21 21 22 22
16 20 20 19 18 16 11 12 14 13 15 16 15 11 13 15 16 17 16 17 19 21 18 15 12 9 7 4 5 9 11 9 6 4 3 2 3 4 6 9 12 14 17 19 20 19 19 19 19 21 21 21 21 21
13 14 14 18 17 17 14 16 16 16 10 16 17 16 17 17 16 16 15 16 15 14 13 12 9 7 5 9 12 10 8 7 6 4 2 2 4 7 9 12 14 17 19 19 19 19 19 20 21 21 21 21 21 20
14 16 14 9 9 9 17 20 20 18 16 16 18 15 16 17 18 18 15 9 12 10 10 10 8 7 13 13 11 9 8 6 4 4 3 4 6 8 11 14 16 18 19 19 19 20 21 22 22 22 22 21 21 20
5 4 4 4 5 14 15 20 20 18 17 22 19 14 15 15 15 14 13 11 9 9 9 10 14 17 15 13 11 10 6 4 5 5 5 6 9 12 14 16 17 18 18 18 19 21 21 22 22 22 22 22 22 22
3 1 3 4 10 12 12 15 16 14 18 19 18 12 14 15 11 7 15 12 10 9 10 13 14 14 12 11 10 7 6 7 6 5 7 10 12 14 16 17 18 18 19 20 21 21 22 22 21 22 22 22 22 22
3 1 4 6 9 10 14 17 14 14 18 14 15 15 11 7 9 10 10 14 14 16 18 19 19 17 14 12 9 8 7 6 6 7 10 12 14 15 17 18 18 19 20 20 21 21 21 21 21 21 21 21 21 21
4 3 4 6 8 8 10 15 15 13 15 11 15 13 9 7 7 11 15 21 21 21 21 19 16 13 12 10 9 8 7 7 8 9 11 13 15 16 17 18 18 19 20 20 21 21 21 21 21 21 21 21 21 21
4 4 5 7 9 10 11 15 12 12 14 12 14 13 11 10 7 15 22 24 24 22 19 16 15 14 11 9 9 8 8 8 10 11 13 15 17 18 19 19 19 20 21 21 21 21 21 21 21 21 21 20 21 21
7 5 6 6 9 11 10 14 12 11 14 12 12 15 13 10 10 21 24 24 23 23 22 20 16 13 11 10 9 8 8 10 11 12 15 17 18 19 19 20 21 21 21 21 21 21 21 20 20 20 20 21 22 23
10 10 10 10 11 12 12 14 15 13 14 12 15 15 11 8 18 27 26 26 25 22 18 16 15 14 12 10 9 9 9 10 12 14 16 18 19 19 19 20 19 19 19 19 19 19 19 20 21 22 23 23 23 23
12 13 12 12 12 13 13 15 16 15 12 15 20 15 10 10 17 23 26 25 24 22 20 17 14 11 10 9 9 9 10 12 14 16 17 18 18 19 19 18 18 18 18 18 19 19 20 22 23 23 23 23 24 24
12 12 12 13 13 14 14 16 16 14 13 19 21 14 12 12 15 17 18 21 21 20 17 15 13 11 10 9 9 10 11 13 15 17 18 18 18 18 18 17 18 18 18 19 19 20 21 23 23 24 24 24 25 27

GFSWCAN_700_spd_087.txt.gz
Wind_Speed
24 23 23 23 23 21 20 18 16 14 12 11 10 10 14 15 16 13 9 7 8 15 11 14 12 11 8 11 14 17 10 21 14 10 5 3 1 1 1 1 2 2 3 3 3 4 4 5 8 14 7 15 15 18
25 24 24 23 23 21 20 18 16 14 12 11 10 12 14 15 16 15 10 8 11 12 9 12 8 8 7 7 6 9 11 16 20 15 6 4 4 3 4 0 2 2 2 2 4 5 9 14 15 17 10 13 5 12
27 26 25 24 24 22 20 18 15 14 13 12 10 11 12 16 17 14 10 8 12 13 10 5 6 9 7 7 7 5 6 10 13 15 9 5 2 5 3 4 7 9 11 5 5 5 11 12 12 15 9 3 4 8
28 27 26 25 25 21 20 17 16 16 14 13 11 11 10 13 18 14 9 9 8 9 10 5 4 4 7 6 6 4 3 5 7 9 8 7 6 7 6 7 10 10 5 3 8 5 1 7 4 2 6 6 4 6
29 28 27 27 23 21 19 18 18 16 16 15 15 13 9 10 12 16 13 11 8 7 8 7 5 8 6 7 6 4 2 4 5 8 10 8 10 9 9 8 7 7 5 6 4 3 2 5 7 8 7 4 5 8
29 27 27 27 23 22 20 19 18 17 18 17 18 14 11 11 14 14 14 13 11 8 7 4 4 5 7 6 7 5 3 6 7 8 10 7 10 9 7 3 5 7 7 6 8 8 4 4 6 6 7 6 6 7
28 28 27 25 24 22 20 20 18 19 20 20 19 14 11 13 14 16 14 7 8 7 7 5 3 6 8 8 8 8 7 8 8 9 6 7 8 11 6 1 5 7 8 5 6 4 5 5 5 5 4 4 3 3
28 28 27 24 24 22 22 20 20 21 20 21 19 14 13 12 14 17 15 9 4 7 6 4 4 5 4 7 9 10 10 10 8 8 9 9 7 7 3 3 5 3 3 5 3 3 5 6 7 8 8 7 7 8
28 28 26 24 24 23 23 22 22 22 21 20 20 15 15 13 15 18 14 14 11 6 4 5 4 3 4 7 7 8 8 6 8 9 9 6 4 2 2 2 1 1 2 2 3 6 9 10 10 9 9 9 10 9
27 26 25 25 24 24 23 24 25 25 26 24 19 18 18 14 13 15 16 13 14 16 20 18 10 5 3 4 5 5 4 6 4 4 4 5 10 10 9 6 5 5 5 3 4 7 8 9 10 11 10 9 9 10
25 26 26 25 25 25 25 28 29 29 29 25 23 20 12 10 12 14 11 8 9 8 14 16 16 12 9 4 8 7 3 4 2 3 4 3 5 3 6 8 7 5 5 5 5 6 6 6 8 8 7 7 7 7
25 25 25 25 26 27 29 33 30 30 31 27 24 20 15 12 8 9 11 9 8 8 12 10 7 13 12 8 8 7 4 4 3 3 3 3 4 4 3 5 5 4 5 6 4 4 5 6 6 6 7 7 7 7
22 22 24 26 29 30 31 31 29 31 28 24 25 27 15 11 9 9 15 14 12 11 7 7 9 14 10 8 6 5 4 4 3 3 4 6 4 2 3 3 4 5 4 3 5 6 6 6 5 4 4 4 5 5
20 21 23 25 30 30 28 29 30 32 29 29 22 15 14 8 10 11 16 19 17 10 7 11 13 10 9 8 4 5 5 4 4 5 5 4 4 4 4 4 2 2 2 3 3 3 2 2 3 4 6 8 9 10
22 18 16 21 28 31 33 32 37 37 35 21 23 12 15 12 15 23 11 12 15 15 9 16 14 9 11 6 5 5 5 5 5 5 6 5 6 6 4 2 2 3 3 2 2 1 1 1 4 6 8 10 12 13
15 14 16 19 25 29 35 37 41 39 33 21 17 15 16 19 13 18 20 11 16 17 11 18 10 5 8 5 5 6 4 4 4 5 5 5 4 3 3 2 3 3 2 3 3 1 4 6 8 9 11 13 15 17
18 19 17 17 31 41 43 47 43 38 30 13 19 16 19 22 22 21 17 16 17 15 21 11 7 6 5 5 6 6 4 2 2 2 2 3 3 3 4 5 4 4 3 1 3 6 8 11 13 15 17 18 19 21
19 17 14 21 34 39 36 50 32 19 21 21 20 22 18 23 26 24 21 17 21 21 24 12 5 8 4 3 5 5 5 6 5 5 3 2 3 3 3 5 6 3 1 5 7 10 12 14 16 18 20 21 21 21
21 30 25 30 39 48 40 34 23 18 21 19 22 26 19 16 16 17 19 20 19 22 26 15 5 7 9 6 4 5 4 2 2 3 3 4 4 5 5 2 2 4 7 10 12 15 17 19 21 22 22 22 22 22
21 20 19 25 31 30 18 21 17 18 21 15 12 16 17 18 18 18 18 23 23 19 20 21 16 6 4 5 9 9 5 4 4 4 5 8 7 4 1 2 5 8 11 13 15 18 20 21 22 22 21 21 21 22
24 27 24 26 30 20 11 16 15 15 23 19 13 15 17 18 19 21 19 18 22 25 22 19 19 13 9 7 3 3 6 7 7 11 9 6 4 2 2 5 7 9 12 15 17 19 20 21 21 21 21 21 22 22
21 22 21 18 21 19 8 15 13 14 15 16 14 13 16 17 18 19 19 20 20 20 19 16 13 9 9 7 6 7 9 10 11 9 5 2 0 2 5 7 8 11 14 17 19 20 20 20 20 21 21 22 22 22
22 19 16 18 16 11 11 12 14 14 12 19 17 12 12 14 15 15 13 17 19 17 18 16 12 10 8 8 9 11 12 10 7 4 2 2 4 6 7 8 11 14 17 18 20 20 20 21 21 22 22 22 21 21
17 21 19 16 14 14 14 17 17 16 12 19 18 14 13 15 14 16 15 11 12 13 12 12 11 9 9 12 14 12 9 6 4 4 4 6 7 7 9 12 14 16 18 20 20 21 21 21 22 22 23 22 22 21
11 10 7 11 13 16 17 22 23 20 15 18 17 16 13 15 15 16 15 13 11 13 11 11 12 12 13 13 12 9 7 6 6 5 6 7 7 9 11 13 16 18 20 20 21 21 21 22 23 23 23 23 22 22
4 4 5 8 12 14 14 19 22 22 18 18 17 14 14 14 12 6 17 15 10 10 12 11 12 16 16 15 12 9 9 8 6 7 7 7 9 11 13 16 18 20 20 21 21 22 22 23 23 23 23 23 22 22
3 2 4 6 11 11 15 18 17 18 17 13 18 16 13 7 10 9 12 14 17 16 15 16 18 18 15 12 11 11 9 7 7 8 8 9 11 13 16 18 19 20 21 21 22 22 22 23 23 23 22 22 22 22
3 3 5 8 8 12 14 17 17 14 14 12 18 17 9 9 8 10 14 16 20 18 18 19 19 17 14 12 11 10 9 8 8 9 9 11 13 15 17 19 20 21 21 21 21 22 22 22 22 21 22 21 21 21
3 3 5 9 10 11 12 16 13 12 13 14 18 16 12 12 10 6 14 19 21 20 19 18 16 15 13 11 10 10 9 9 9 9 11 13 15 17 19 19 20 21 21 20 21 21 21 21 21 21 21 22 23 23
3 3 4 5 8 9 9 12 14 11 12 15 16 16 14 12 9 9 13 20 23 23 24 23 21 18 14 12 11 10 9 9 10 11 13 15 17 19 20 21 21 21 20 20 21 21 21 21 21 21 22 23 24 24
9 8 7 6 6 8 9 11 14 12 13 16 14 15 15 13 11 12 19 24 26 26 24 20 16 14 13 12 11 10 10 10 11 12 14 16 18 19 20 21 20 20 20 20 20 20 20 21 22 23 24 25 25 25
9 9 9 9 8 8 11 12 15 15 13 16 14 13 14 12 12 18 24 25 25 24 22 19 16 14 12 11 10 10 10 11 12 14 16 18 19 20 20 19 19 19 20 19 19 20 21 22 23 24 25 26 26 26
10 12 13 12 12 12 13 14 15 15 14 12 12 15 13 9 12 15 18 21 20 19 17 15 14 13 12 11 10 10 10 11 13 15 17 18 19 19 18 18 18 19 19 19 20 21 23 24 25 25 26 27 27 28

GFSWCAN_700_spd_090.txt.gz
Wind_Speed
22 21 21 21 21 20 19 17 16 13 13 12 11 10 11 13 10 11 8 6 7 8 7 3 3 6 10 13 14 16 15 16 10 9 5 4 3 3 2 1 1 1 1 2 1 3 2 3 14 11 9 10 9 15
26 23 23 23 22 21 20 18 16 15 14 13 11 11 12 14 14 14 10 8 8 10 7 7 5 4 6 7 7 11 12 15 15 8 6 4 2 3 3 2 5 2 3 2 2 2 9 12 14 13 10 9 3 9
31 31 27 24 23 22 20 19 17 16 15 13 12 13 13 13 13 14 10 8 7 8 2 1 4 3 4 5 4 5 6 8 12 14 10 5 3 4 4 2 6 8 5 5 2 4 6 7 10 12 5 1 6 7
28 27 27 27 25 23 20 18 17 17 15 14 13 12 11 11 13 13 9 8 7 7 5 2 3 5 3 4 1 1 2 4 6 9 10 5 6 8 6 5 7 7 3 4 6 4 1 6 4 2 5 6 6 7
28 27 26 26 25 24 21 20 19 18 17 15 15 14 13 9 9 12 12 8 7 4 6 4 5 6 6 6 5 3 4 5 4 7 9 6 8 7 6 9 7 4 7 10 5 4 2 2 3 4 5 5 4 5
27 27 27 26 26 24 22 21 21 20 17 19 18 19 12 6 13 9 13 11 8 6 6 2 4 5 6 4 3 5 5 5 7 7 7 4 6 6 5 4 2 4 9 7 7 8 5 4 5 5 5 6 6 7
28 28 27 27 25 21 22 22 21 21 21 22 22 20 17 10 12 13 8 2 5 7 6 3 3 1 3 5 5 7 8 8 8 9 4 5 8 9 6 4 3 8 7 6 7 5 4 4 4 4 4 4 4 5
28 28 27 26 25 23 23 23 23 22 24 24 24 20 15 14 12 15 11 7 3 6 6 3 2 4 2 4 5 8 9 9 9 8 8 7 8 6 2 4 5 3 1 2 3 2 4 6 6 7 6 5 4 5
28 28 28 27 25 24 24 23 23 24 25 25 22 17 14 15 14 15 14 11 8 4 3 3 2 3 3 3 5 7 7 6 8 10 9 7 4 2 3 2 2 2 4 4 4 5 5 6 7 8 8 7 7 6
26 26 28 27 27 27 26 26 24 26 27 27 21 18 19 19 11 16 19 12 11 13 17 16 9 7 3 1 2 4 3 6 4 4 2 4 8 9 8 5 3 3 4 3 4 5 6 7 6 6 6 6 6 6
28 28 27 27 27 27 28 27 28 31 33 27 25 22 10 16 12 18 14 8 7 7 11 13 10 11 8 4 4 4 2 3 1 4 3 4 5 3 4 6 5 3 3 4 5 6 6 6 6 6 6 5 5 4
29 27 28 28 29 29 29 30 34 39 32 24 27 17 14 15 8 8 9 9 7 6 8 8 5 14 14 7 5 5 3 3 3 4 3 3 3 3 2 2 3 2 3 4 3 4 5 5 5 6 7 6 6 6
27 27 28 29 30 30 31 34 39 35 35 23 24 21 13 10 10 9 13 11 10 11 5 4 6 12 13 9 6 5 3 4 3 3 3 6 4 3 3 1 1 2 1 1 3 4 4 5 5 5 4 5 6 6
27 29 29 30 31 33 34 38 41 32 34 23 25 17 13 8 12 11 13 15 14 10 6 3 8 10 10 11 4 4 5 4 4 4 5 4 4 5 3 1 1 2 1 1 2 3 2 2 3 5 6 7 9 11
28 28 29 31 34 37 38 42 36 36 34 21 15 12 16 12 11 19 10 6 10 12 8 7 12 7 10 4 4 5 4 4 5 5 6 4 5 6 3 3 3 2 1 1 1 1 2 4 6 8 10 12 14 16
27 27 30 33 36 39 43 40 33 36 33 16 16 12 12 19 16 11 22 19 9 12 12 11 12 5 7 4 5 6 3 4 4 4 5 5 6 5 4 5 3 2 1 1 2 1 4 7 9 11 13 15 17 19
28 27 27 30 37 38 40 37 37 35 33 14 19 22 15 16 18 16 10 16 13 15 15 10 7 6 5 6 5 6 6 3 3 2 3 5 6 6 5 4 3 3 4 2 3 5 7 9 12 14 17 19 20 21
19 22 26 32 37 42 42 34 35 28 25 36 12 24 24 17 19 20 18 16 17 19 18 13 7 8 4 4 5 6 5 5 6 7 8 7 7 6 5 6 6 3 2 4 5 8 10 13 15 17 19 20 20 21
20 25 29 39 43 43 39 41 33 23 28 33 21 18 22 19 14 18 19 20 19 21 22 17 7 8 9 7 4 4 3 2 3 6 8 8 8 8 8 6 5 4 4 5 8 10 13 16 17 19 20 20 20 21
22 24 30 38 44 44 13 26 40 12 19 24 26 21 21 21 15 15 15 17 19 20 22 21 17 7 3 4 7 10 9 7 7 7 7 8 10 9 7 5 3 4 6 9 11 14 16 17 19 19 20 20 20 21
23 30 34 37 37 27 11 31 25 15 21 23 22 20 21 21 19 17 16 19 18 19 22 26 24 20 15 8 7 6 10 10 9 10 10 10 9 7 6 5 4 7 10 12 14 16 18 19 20 21 22 22 23 23
22 25 38 33 18 16 15 23 21 20 22 18 11 15 20 20 20 20 18 20 26 28 25 20 16 12 14 13 11 8 7 8 9 12 11 9 8 6 4 5 8 10 12 14 17 19 21 21 22 22 23 23 23 23
22 25 26 24 16 10 17 22 18 22 17 23 19 16 17 18 20 20 19 22 22 18 18 18 17 14 12 12 11 9 11 14 13 12 10 8 5 4 6 9 11 12 14 17 19 21 22 22 23 23 23 24 24 24
18 21 19 14 10 10 18 20 18 16 18 23 21 14 14 16 17 19 20 16 13 17 17 15 16 15 14 12 10 13 15 13 12 11 8 6 5 7 9 11 12 15 17 19 21 22 23 23 23 24 24 24 24 24
19 14 9 12 14 14 16 21 20 19 16 23 20 17 13 14 14 15 14 12 12 13 15 16 17 17 15 12 15 17 16 14 12 9 7 7 8 10 11 12 14 17 19 21 22 23 23 24 24 24 24 24 24 23
10 8 11 13 18 16 17 20 21 22 18 19 19 18 15 13 12 8 13 13 14 14 15 15 16 15 15 19 18 16 14 12 10 9 9 8 10 11 12 15 17 19 21 22 23 23 24 24 24 24 23 23 23 23
6 6 11 14 17 19 20 22 21 24 22 16 19 17 13 8 9 11 11 18 19 19 19 19 18 18 17 18 16 14 13 11 10 10 10 10 11 12 14 17 19 20 22 23 23 24 24 24 24 23 23 23 22 22
5 7 10 12 13 16 16 20 20 20 22 18 19 16 11 11 12 13 16 20 23 22 20 20 20 21 23 21 18 15 12 11 11 11 11 11 12 14 16 18 20 22 23 23 23 23 23 22 22 22 22 22 22 22
7 7 10 12 14 14 16 19 14 18 18 18 21 22 18 17 12 12 17 20 21 24 23 20 19 20 19 16 14 12 12 12 12 11 11 12 13 15 17 19 21 22 22 22 22 22 22 21 22 22 22 22 23 24
6 7 9 11 13 12 14 17 16 13 15 18 20 20 19 16 14 13 13 17 22 23 23 22 22 21 19 16 14 14 13 13 12 12 12 13 14 16 19 20 22 22 21 21 21 21 21 21 22 22 23 24 25 26
9 7 8 8 9 11 10 12 15 15 14 17 19 20 18 17 15 14 13 17 23 25 25 24 23 20 18 16 15 14 13 12 11 11 12 13 16 18 20 21 21 21 20 20 21 21 21 21 22 24 25 26 26 27
10 10 10 10 9 9 11 12 13 16 14 15 18 17 15 15 14 13 13 17 22 24 24 24 22 19 17 16 14 13 12 11 11 11 12 14 17 19 20 20 20 20 20 20 20 20 21 23 25 25 26 27 28 29
10 12 13 14 13 12 12 14 14 15 16 14 16 17 14 14 14 14 15 19 21 23 22 20 18 16 14 13 12 11 11 10 10 11 13 16 18 19 19 18 19 19 19 19 20 22 24 25 26 27 28 29 30 31

GFSWCAN_700_spd_093.txt.gz
Wind_Speed
25 20 19 21 22 23 22 20 18 17 16 15 13 10 9 10 10 14 11 7 3 1 4 5 4 6 6 5 8 12 8 9 8 10 8 5 5 4 3 6 4 6 5 5 1 2 4 3 10 7 6 6 8 9
22 21 20 21 23 22 22 21 19 19 16 16 13 11 11 10 12 15 10 7 4 4 6 5 4 6 4 4 4 7 8 11 11 7 7 5 4 5 3 4 7 2 6 3 5 3 6 12 10 10 8 5 2 6
31 22 23 21 21 22 23 22 21 17 17 15 13 12 11 12 13 13 9 8 4 5 3 3 4 6 4 1 2 3 3 5 8 12 7 4 4 9 9 6 7 8 3 1 3 4 4 6 8 7 5 3 3 4
26 31 25 22 22 23 23 22 20 19 17 16 14 12 12 11 14 15 9 8 4 4 1 4 4 5 5 4 2 1 3 2 4 7 7 6 7 7 6 5 10 8 2 4 5 2 4 8 6 4 5 4 4 5
35 32 31 29 25 25 23 21 20 19 18 17 14 13 13 11 12 13 11 8 5 3 4 5 8 6 8 6 6 4 5 4 6 7 8 6 8 8 7 7 10 8 6 6 5 3 2 3 2 2 2 3 3 5
29 28 27 26 26 24 22 20 20 20 19 17 17 16 16 14 13 11 10 9 8 7 7 3 7 7 5 6 5 6 7 5 6 6 6 4 7 7 5 6 7 1 8 5 5 5 4 1 1 1 2 3 3 4
32 29 27 26 25 24 22 21 22 20 19 19 20 21 16 12 9 9 3 3 5 7 6 5 3 3 3 4 5 7 8 6 7 7 4 5 10 11 5 6 1 5 5 5 7 5 3 3 3 3 2 2 2 3
28 28 27 27 27 25 22 22 21 20 21 22 25 22 13 5 12 13 10 5 2 5 6 4 3 4 2 4 6 7 7 7 9 6 8 6 10 6 3 2 3 1 2 2 2 1 2 4 4 3 3 2 2 2
26 27 28 27 26 24 23 23 22 22 22 25 26 21 13 14 15 9 12 9 7 5 3 5 3 3 1 4 6 5 6 5 7 7 7 7 6 2 5 1 3 3 3 2 2 2 2 2 3 3 3 2 2 3
28 26 27 28 27 25 25 24 24 24 25 27 28 19 20 21 14 9 12 13 14 13 17 15 9 5 2 1 3 3 2 3 3 4 4 2 9 7 7 5 2 3 3 2 2 3 3 4 5 5 5 5 5 5
23 26 28 28 28 27 28 27 27 28 30 31 26 16 15 16 13 9 9 7 7 6 8 10 12 10 8 4 4 3 2 3 2 3 1 3 6 2 3 6 6 2 1 2 3 4 4 4 5 6 6 5 5 6
26 27 28 28 28 28 28 30 31 34 35 30 19 20 15 19 8 8 8 8 7 4 8 4 6 13 11 7 4 3 3 2 4 4 2 3 4 2 2 4 4 1 1 2 3 4 5 5 6 6 6 6 6 6
30 26 26 28 29 30 31 32 33 33 35 22 17 17 12 11 9 10 12 10 8 8 4 3 4 9 11 10 4 4 3 4 3 3 3 6 3 2 4 4 3 2 1 2 2 3 4 4 5 5 5 6 7 9
31 25 28 30 30 32 33 34 37 35 28 27 15 17 12 8 10 9 12 12 12 8 6 5 4 6 9 11 5 4 4 4 3 3 5 4 3 4 4 2 2 4 2 2 2 3 3 3 2 3 5 7 9 12
29 27 29 31 32 33 34 36 41 30 24 18 12 9 14 11 9 13 9 7 10 10 8 5 8 6 10 5 5 5 3 3 4 6 8 5 5 6 4 3 4 2 1 0 0 2 1 2 5 8 11 13 15 18
28 29 32 32 34 34 36 33 41 31 21 18 8 13 14 18 12 7 15 15 5 6 9 7 8 4 6 4 4 4 3 3 5 4 4 3 5 6 5 5 4 2 2 2 2 1 4 7 9 12 14 16 18 21
31 33 33 35 35 36 33 37 37 32 15 26 18 15 11 12 15 16 10 10 15 10 12 7 6 6 4 5 5 5 7 4 4 3 1 3 6 6 6 5 4 4 5 3 3 5 7 10 12 15 17 20 22 23
28 29 32 35 39 39 32 32 37 27 21 29 13 17 23 23 14 15 17 12 10 13 14 12 8 7 3 2 3 2 4 5 7 8 9 9 9 8 7 7 7 7 4 4 6 8 11 13 17 19 21 23 24 25
26 29 31 39 47 38 35 37 37 18 27 34 33 14 15 20 19 13 15 16 14 14 15 15 6 8 10 7 3 3 5 5 7 7 8 9 9 9 9 10 8 5 4 6 8 11 14 17 20 21 23 24 25 26
20 25 31 32 47 39 32 18 35 15 19 24 26 29 16 14 17 15 14 17 17 17 16 20 18 6 5 5 5 8 11 13 11 9 8 9 10 11 11 8 5 5 7 9 11 14 16 19 21 22 24 25 25 26
26 31 36 39 47 25 27 22 30 23 14 17 22 26 26 23 19 17 16 14 16 20 21 21 23 19 15 10 8 10 10 10 12 12 11 10 12 10 8 7 6 7 9 12 15 16 18 21 24 25 26 26 25 25
32 31 37 42 44 15 20 27 27 23 16 14 18 20 24 27 26 23 18 17 20 21 20 19 19 20 19 20 19 17 13 11 11 13 14 14 12 10 8 7 8 9 12 15 17 19 21 23 25 26 26 26 26 26
26 34 35 41 30 18 13 21 26 26 18 20 19 18 18 18 20 19 19 21 21 20 22 21 18 17 16 14 14 14 13 12 13 13 14 12 10 9 9 9 9 12 15 17 19 21 23 24 26 27 27 27 27 27
27 25 21 11 11 13 21 24 27 27 24 23 23 18 15 17 16 19 23 22 17 17 19 19 21 21 19 18 17 14 13 13 15 15 13 11 11 11 10 10 12 15 17 19 21 23 25 27 28 28 27 27 28 27
22 17 12 12 14 14 22 25 22 24 21 28 25 23 18 14 15 18 20 18 17 16 19 21 20 20 21 20 16 14 14 16 15 14 14 13 13 12 12 13 15 17 19 21 22 25 27 28 28 28 28 27 27 27
11 8 13 14 18 18 16 25 26 24 18 23 23 24 18 16 14 9 18 16 16 17 17 20 21 20 19 18 16 16 17 17 15 15 15 15 14 14 14 15 16 18 20 22 24 26 27 28 28 27 27 27 26 26
12 10 17 18 20 21 20 22 22 23 20 16 22 21 18 11 10 17 17 16 15 18 19 20 20 20 19 18 17 19 20 18 16 16 16 15 15 15 15 16 18 19 21 23 25 27 28 27 27 26 26 27 26 25
10 12 14 18 20 22 22 23 24 22 23 20 20 18 12 13 16 15 12 16 19 22 22 21 21 20 19 19 19 20 19 18 17 17 17 16 15 15 16 17 18 21 23 25 26 27 27 26 26 26 26 26 25 25
10 10 13 15 17 19 20 22 24 25 23 25 25 24 24 23 18 14 15 15 17 23 23 21 19 19 19 20 21 20 18 17 18 17 16 15 15 16 16 17 19 22 24 26 26 26 25 25 26 26 25 25 26 27
10 10 12 14 16 16 16 18 20 18 21 19 21 23 22 20 18 17 14 16 20 22 23 23 21 20 18 19 19 18 18 18 17 16 15 15 15 16 16 18 21 23 25 25 24 24 25 25 25 25 25 27 28 28
10 11 11 13 14 14 10 15 18 16 15 17 19 21 20 19 19 17 16 15 15 18 22 24 24 23 22 23 22 20 17 16 15 15 14 14 14 15 17 20 22 23 23 23 23 24 24 24 24 26 28 29 29 30
13 12 11 10 10 11 13 13 14 17 18 17 17 19 21 20 19 18 18 18 19 21 24 24 24 23 21 19 18 17 16 15 14 13 13 13 14 16 19 21 22 21 22 22 23 23 24 25 27 29 29 30 31 32
13 14 14 13 13 13 12 13 14 15 18 19 18 18 20 19 18 17 17 18 17 19 22 22 22 22 21 19 17 15 14 13 12 12 12 13 15 18 20 20 20 21 22 22 23 23 25 27 29 30 31 32 33 35

GFSWCAN_700_spd_096.txt.gz
Wind_Speed
19 20 18 20 21 18 23 22 20 19 16 13 12 11 11 11 12 15 7 9 5 6 10 10 6 4 4 3 5 10 8 15 13 10 10 10 8 10 8 12 10 13 11 10 9 6 4 11 4 4 2 3 6 9
18 18 18 19 23 21 22 22 21 19 17 15 13 12 13 11 12 14 8 8 4 2 6 7 7 5 4 4 5 10 9 9 12 10 9 6 8 13 16 6 14 9 8 3 5 4 8 10 10 6 3 3 3 5
23 22 18 19 22 23 23 22 21 19 17 14 14 13 12 12 13 14 7 5 2 2 3 4 7 4 5 3 2 3 5 5 8 12 11 8 9 14 13 10 8 10 6 4 3 7 8 10 7 6 6 5 3 2
26 20 16 17 20 21 22 22 20 18 15 15 15 14 11 12 15 14 8 6 3 2 1 1 5 10 6 6 4 3 4 4 4 9 8 8 10 12 8 8 11 10 3 4 1 1 4 8 6 5 7 7 5 5
27 27 25 18 17 19 19 20 19 17 17 16 15 13 12 12 15 12 9 6 4 2 4 6 7 9 9 8 6 6 6 6 4 4 5 5 9 9 9 8 10 12 3 5 4 1 1 2 3 3 4 4 4 5
25 25 24 25 19 17 18 18 18 18 17 16 15 14 14 13 15 11 8 6 6 5 6 3 2 5 8 9 7 7 7 7 5 7 6 3 6 9 7 8 9 5 4 3 2 2 3 3 5 5 3 2 2 3
28 27 25 25 25 20 18 18 17 17 17 17 16 15 16 18 14 12 5 1 4 5 4 6 3 2 3 5 6 6 8 4 5 7 4 5 10 11 7 6 4 2 2 3 5 4 3 6 6 5 4 3 3 4
28 27 26 22 23 22 21 20 19 18 18 18 17 21 19 15 11 10 6 4 1 2 4 4 3 5 3 4 7 7 6 6 7 4 6 7 8 8 3 2 5 3 3 4 3 2 3 5 5 4 3 2 3 3
27 27 26 24 24 23 23 22 20 18 20 20 23 24 16 10 9 9 8 6 5 3 3 5 6 5 1 3 4 5 2 4 3 5 5 6 4 3 5 3 3 4 4 4 4 3 1 1 0 0 1 1 2 2
23 23 23 25 25 24 23 21 20 21 23 25 28 22 12 11 12 9 5 11 12 12 15 16 9 5 4 5 2 2 2 2 2 4 2 3 8 6 6 3 2 4 4 1 2 3 3 3 3 3 3 3 4 4
26 23 24 27 26 26 24 23 24 25 26 28 28 18 8 7 18 11 7 6 5 5 6 5 11 13 6 6 3 4 3 2 1 3 1 3 6 3 2 4 3 1 2 2 3 4 4 4 4 3 4 5 6 6
23 23 25 28 28 27 25 26 27 27 28 28 27 12 12 15 7 6 6 6 6 3 6 2 4 8 9 8 5 3 3 2 3 3 2 3 3 3 2 3 4 3 1 2 3 3 3 4 5 6 6 6 5 6
19 23 27 30 28 27 26 28 29 27 27 27 15 14 12 11 9 9 11 8 6 6 5 4 4 7 8 8 5 2 2 4 3 2 3 5 4 2 2 3 4 4 4 4 2 2 3 5 6 5 5 6 8 9
21 26 23 24 24 25 27 29 29 30 25 22 11 14 10 7 10 8 12 11 10 8 6 5 4 3 5 8 4 3 3 2 2 2 4 4 3 3 4 3 4 5 4 3 2 3 4 5 5 6 7 9 11 14
25 27 25 24 24 26 29 32 34 27 22 22 7 11 12 10 6 9 7 7 8 9 5 4 3 4 7 6 4 4 2 3 4 5 6 6 4 5 6 3 4 4 4 3 3 4 3 3 5 7 10 13 16 19
30 29 26 23 26 28 33 35 38 31 14 18 7 12 19 15 7 7 13 8 2 1 5 5 5 3 5 4 3 5 3 3 3 4 4 4 5 7 6 5 5 4 3 3 4 1 2 5 8 11 15 18 20 23
33 30 27 25 28 31 35 37 38 29 16 6 12 11 13 14 16 11 5 3 10 8 5 4 4 5 4 4 4 5 6 3 4 3 3 2 4 6 6 6 5 4 4 4 1 3 6 9 12 15 18 21 22 23
29 25 26 29 33 35 34 30 24 22 15 11 22 13 11 10 8 9 10 10 6 8 10 10 7 7 4 3 4 3 4 4 4 7 8 7 7 6 6 6 6 6 4 2 3 6 9 12 15 17 19 20 23 25
28 24 29 34 35 33 31 25 23 13 21 16 15 13 10 12 14 15 10 9 11 10 11 10 7 9 11 7 3 1 2 5 8 9 8 7 7 7 7 7 7 6 4 4 6 9 12 16 19 20 22 25 27 29
26 28 32 34 33 34 15 10 25 21 19 18 21 21 17 8 8 12 13 13 12 14 15 16 17 12 6 8 7 7 8 10 13 12 10 8 8 9 9 9 8 7 6 6 9 12 16 18 19 22 25 26 28 30
30 29 27 30 39 21 10 16 27 19 18 21 21 21 22 22 19 10 11 14 13 15 17 19 16 16 15 10 8 6 9 12 11 10 10 10 9 9 9 9 9 7 7 10 12 15 19 21 23 25 26 28 29 30
28 36 42 36 43 16 17 22 25 26 17 12 12 15 20 23 25 23 21 20 20 19 17 18 16 16 20 21 21 20 20 17 14 10 10 11 11 11 11 10 9 10 11 12 14 17 20 22 25 26 29 31 32 32
28 36 39 41 36 9 20 26 22 23 20 15 16 15 15 18 20 19 22 24 24 20 19 18 17 17 16 17 16 15 14 14 13 12 13 12 14 13 12 12 12 13 14 14 17 19 21 24 25 29 31 32 32 32
32 42 32 28 26 15 10 26 30 30 31 26 22 21 19 19 16 17 21 24 24 20 19 19 19 19 19 19 19 18 17 15 14 14 13 13 14 14 14 14 14 15 15 16 18 21 23 26 28 30 32 32 31 31
28 20 13 16 27 24 24 20 23 25 24 27 25 21 20 18 16 19 20 22 17 17 17 17 19 20 21 22 20 18 17 15 15 14 16 16 14 15 16 16 16 16 17 18 20 23 26 27 30 31 32 32 31 30
9 8 17 15 19 19 20 23 26 28 27 27 27 29 26 22 21 11 18 17 12 14 15 18 18 20 22 20 18 19 19 17 16 18 16 16 17 17 17 17 18 17 18 20 23 25 28 29 31 32 31 31 29 29
12 8 18 18 20 22 20 22 23 23 24 22 23 23 24 18 14 20 18 14 13 15 19 20 21 22 22 20 20 20 18 17 18 17 16 17 18 18 18 18 18 19 19 21 24 27 29 31 31 30 29 30 30 29
17 18 15 18 21 22 24 23 24 24 26 26 21 20 16 15 20 18 13 15 18 18 20 22 22 21 20 18 16 17 17 17 19 20 19 19 18 18 18 18 19 19 20 22 25 28 30 30 29 29 29 29 29 29
14 17 20 18 19 24 24 25 26 27 25 25 25 23 23 25 21 17 16 15 17 17 18 20 19 16 16 17 19 18 19 19 20 19 19 17 17 17 18 19 19 20 21 24 27 29 28 28 28 29 29 29 30 31
14 14 15 18 21 24 24 25 24 26 24 24 24 24 24 22 21 20 20 20 17 16 17 19 20 20 19 18 17 17 17 19 19 18 16 16 16 17 17 18 18 20 23 26 27 27 27 28 28 28 28 30 32 33
12 14 14 15 17 16 15 15 18 20 23 22 23 23 21 22 22 21 19 17 15 12 15 19 21 22 21 20 19 19 19 18 17 16 15 15 15 16 16 16 18 22 24 25 25 26 27 27 28 29 31 32 33 34
14 13 13 13 12 14 16 13 14 18 19 18 18 19 20 21 21 19 18 17 16 16 17 18 20 22 22 20 19 18 18 16 15 14 14 14 14 14 15 17 20 22 23 24 25 25 26 27 29 30 32 33 35 36
17 16 14 12 11 12 12 14 14 14 17 19 20 19 19 20 20 20 18 18 19 19 19 17 17 19 20 20 19 17 15 14 13 12 12 12 12 13 16 19 20 21 22 23 24 25 27 28 29 32 34 35 37 39

GFSWCAN_700_spd_099.txt.gz
Wind_Speed
23 25 22 21 27 20 22 22 20 19 15 15 13 12 10 9 8 9 8 12 7 8 11 10 5 2 5 7 9 9 4 17 13 9 8 7 7 17 12 19 11 16 9 11 8 6 3 17 6 3 5 5 7 10
19 19 23 22 25 20 19 22 18 22 16 15 14 13 11 9 8 11 10 11 6 3 4 8 5 2 3 4 5 7 5 11 14 12 11 8 9 15 18 9 18 10 9 6 5 7 10 13 15 11 6 5 5 8
18 20 20 19 26 21 21 23 21 21 17 15 14 13 12 10 10 13 10 10 6 3 2 5 3 5 4 2 4 3 6 8 9 11 11 11 7 17 14 12 13 7 6 7 6 11 11 12 10 8 6 5 4 6
19 16 12 13 16 29 16 17 19 19 17 15 13 13 12 11 11 12 10 10 6 3 5 5 4 6 3 4 4 5 5 7 6 8 8 10 11 11 12 9 10 14 4 5 3 3 7 8 7 7 6 5 6 7
18 19 13 12 17 21 22 21 20 18 16 14 14 14 13 12 12 13 11 7 4 2 2 2 3 5 3 6 7 6 7 7 5 5 5 4 8 9 13 6 9 10 4 4 2 4 5 4 5 4 4 4 5 7
18 18 20 13 15 19 19 19 18 17 15 14 13 14 12 13 14 14 9 7 5 2 2 1 0 3 3 5 6 7 8 7 6 4 4 5 7 8 7 8 8 6 3 2 5 6 6 5 5 3 4 4 3 4
21 19 17 20 15 15 18 18 18 17 15 14 14 13 14 15 16 13 8 5 3 3 2 1 2 1 4 6 3 4 4 6 5 3 3 4 8 9 7 6 5 3 4 4 5 6 5 4 2 3 5 5 4 3
23 18 18 17 24 16 15 16 15 14 14 16 16 16 17 19 20 14 10 6 3 2 1 1 1 1 2 2 3 2 4 5 4 2 2 4 7 6 4 3 3 2 3 6 4 4 4 4 4 4 4 3 2 1
22 23 20 17 16 22 17 17 15 16 17 18 18 20 21 18 15 10 7 4 2 1 1 2 2 4 2 0 1 3 4 2 1 1 2 3 3 2 5 2 2 3 5 6 6 5 4 3 2 3 4 3 3 3
22 22 21 19 19 21 21 21 21 18 20 20 22 23 17 11 10 9 5 5 5 6 9 11 7 3 1 2 0 0 2 0 2 2 1 2 4 6 5 2 3 5 5 4 5 4 3 3 4 5 4 4 4 5
20 20 19 19 21 23 23 21 21 21 23 24 27 21 9 12 11 7 4 3 3 2 2 2 4 7 5 2 1 2 2 2 2 1 2 3 2 3 3 4 4 4 3 2 3 4 4 4 4 4 5 6 7 7
23 18 17 21 24 24 22 22 22 24 24 27 28 12 11 12 6 6 4 4 4 2 1 2 2 4 8 6 4 3 4 3 2 2 3 3 1 1 3 3 5 4 3 4 4 4 4 4 5 6 7 6 5 6
22 19 18 23 26 24 22 23 24 23 26 24 24 13 10 9 7 7 8 6 5 4 2 2 4 2 7 6 5 4 2 3 3 2 3 3 3 1 2 4 5 5 4 5 5 5 5 7 7 7 5 6 7 9
20 18 21 26 26 23 21 25 27 24 29 21 11 14 8 6 9 7 10 7 6 3 2 3 2 2 5 6 3 2 2 3 2 3 4 1 1 3 4 3 4 5 6 5 4 5 8 7 5 6 7 8 9 10
18 19 22 25 24 22 22 27 29 31 28 10 9 7 11 6 7 9 7 6 5 6 5 3 1 3 6 4 3 3 2 3 4 6 3 5 3 5 7 5 5 6 5 4 5 8 6 4 4 5 7 8 12 17
24 27 25 25 24 22 24 31 34 26 27 8 5 10 16 11 8 9 10 7 6 6 4 3 3 2 3 2 4 4 3 5 2 1 2 3 4 6 8 6 6 6 5 5 7 5 3 3 5 8 11 16 19 20
28 30 27 25 23 23 26 31 34 25 17 8 8 6 13 17 13 8 7 6 8 6 3 3 2 3 2 4 4 5 5 1 2 1 2 3 2 5 6 6 6 6 5 7 6 3 2 5 7 11 16 19 20 20
29 27 24 24 25 24 29 36 26 13 15 10 12 13 9 11 14 13 10 7 5 5 8 6 4 5 4 4 5 4 3 3 3 4 5 4 3 4 5 6 7 7 8 6 3 1 4 6 9 14 16 18 19 21
30 26 25 22 21 24 29 37 26 12 19 11 11 15 13 9 8 7 6 4 7 7 6 5 6 7 9 10 4 2 1 2 5 6 6 5 5 6 7 7 7 9 8 5 3 4 6 9 12 15 18 21 25 28
24 20 21 21 22 23 18 17 31 9 16 21 11 13 13 10 4 6 10 10 7 9 12 13 12 11 8 7 8 9 7 7 6 8 7 6 5 6 7 8 10 9 6 5 6 7 8 11 15 18 21 23 27 30
24 22 23 26 22 26 14 11 23 24 10 13 17 17 15 14 13 10 8 10 11 10 9 11 13 13 13 14 9 9 9 8 11 11 9 7 7 7 7 9 10 9 8 8 9 10 12 14 16 18 22 24 27 30
30 26 26 20 29 26 10 14 18 17 21 19 13 15 15 16 16 15 18 20 19 15 14 12 12 12 14 15 19 18 17 19 17 12 10 8 8 8 9 11 11 10 10 11 10 12 15 17 19 22 24 28 30 32
29 26 21 21 30 21 8 17 17 20 16 16 16 13 12 13 16 18 20 24 23 19 18 16 16 15 16 17 17 20 18 14 10 10 10 10 11 11 13 13 12 12 12 12 14 15 16 19 21 24 26 29 31 33
29 26 22 22 26 17 11 20 20 21 23 23 20 16 16 17 17 17 21 22 20 16 16 17 17 17 17 17 17 16 14 12 13 13 12 11 11 11 13 14 14 13 13 15 16 17 19 20 22 25 28 31 33 33
28 27 18 16 24 31 14 15 27 25 25 25 26 28 26 23 20 21 23 20 18 19 18 19 19 18 18 19 19 20 18 15 14 14 13 12 13 14 14 14 13 16 16 17 18 20 21 22 25 27 30 32 32 33
12 15 19 19 27 32 29 20 16 22 27 28 28 29 27 22 21 16 21 21 15 14 15 16 17 17 17 16 17 15 14 14 14 14 14 13 14 15 14 14 15 16 18 18 19 21 22 24 27 30 32 32 32 31
15 6 26 26 21 29 32 34 25 25 27 25 27 25 20 16 16 23 23 19 14 10 11 14 15 15 16 16 17 17 15 14 13 12 12 12 15 16 15 15 15 18 18 19 20 22 24 26 29 31 31 32 32 32
16 18 12 21 24 24 28 28 28 26 26 25 22 22 15 13 19 19 14 13 12 14 16 17 17 17 15 13 13 14 13 12 13 15 16 17 16 15 15 15 16 17 17 18 20 22 25 28 30 30 30 31 31 32
16 18 21 17 19 24 25 25 26 26 25 25 25 25 25 23 20 19 18 17 16 16 15 15 15 13 12 12 13 14 14 14 15 16 16 15 15 15 15 15 16 16 17 18 20 24 26 28 28 29 30 30 31 32
20 18 19 22 23 24 24 22 23 23 23 23 23 23 22 22 20 19 20 20 19 17 16 14 13 13 14 15 15 14 13 13 13 12 12 13 14 14 14 14 15 15 17 19 23 25 26 27 28 29 29 30 30 33
21 19 19 20 21 21 22 20 21 22 22 24 26 23 22 23 23 22 22 21 19 15 15 14 14 15 17 17 16 15 15 15 15 14 13 12 12 13 13 13 14 15 18 21 22 24 25 26 28 29 29 31 34 35
18 18 16 17 16 15 16 18 17 18 21 23 24 23 24 24 24 22 21 20 18 17 16 15 15 16 16 17 17 17 17 16 14 12 11 11 11 12 11 12 14 17 19 21 22 24 25 27 27 28 31 33 35 36
17 17 14 13 13 13 14 15 16 14 16 19 20 20 21 20 21 21 19 18 17 17 15 13 13 14 16 16 16 16 14 14 13 11 9 10 10 9 10 12 15 17 19 21 22 24 25 25 28 30 32 34 34 35

GFSWCAN_700_spd_102.txt.gz
Wind_Speed
21 20 25 24 25 25 25 25 24 22 20 19 17 16 14 13 11 9 13 15 16 20 12 10 9 3 1 5 4 7 5 13 9 10 9 7 9 10 10 17 11 13 8 8 5 5 3 12 4 2 11 8 8 9
24 23 24 27 22 25 22 20 22 22 19 15 14 14 14 12 10 10 11 15 11 11 11 12 8 4 2 3 4 6 9 13 13 9 10 7 12 10 15 7 12 7 12 6 6 7 8 11 14 13 10 9 8 9
29 26 26 23 26 20 26 19 21 20 15 15 15 13 13 11 9 11 11 12 9 7 8 12 10 6 2 0 2 4 5 8 11 11 10 9 5 9 7 10 11 6 5 6 5 10 10 11 12 12 11 9 9 9
23 23 22 20 25 21 24 19 18 20 13 14 13 13 12 10 10 12 11 12 8 6 7 11 8 5 3 3 1 3 4 5 4 7 6 8 5 5 8 5 7 6 4 5 8 7 10 8 9 11 10 10 10 10
23 20 15 17 23 24 22 22 19 21 15 13 13 13 12 11 11 12 12 12 8 4 8 6 5 3 3 1 2 2 3 4 3 2 3 4 6 2 6 4 7 5 4 4 5 8 8 7 7 7 7 8 8 8
20 12 15 14 19 28 18 21 22 20 16 14 15 14 12 11 13 14 11 10 7 6 8 7 6 5 4 1 3 2 2 2 3 2 2 2 4 6 3 3 5 4 5 4 7 8 7 6 7 7 6 5 4 4
16 16 19 16 17 22 21 19 19 17 13 15 15 14 12 13 14 14 10 8 8 6 7 7 5 4 4 2 1 3 0 4 2 1 1 2 5 6 3 2 2 5 7 8 8 7 6 5 5 5 6 3 2 2
14 13 20 15 17 18 19 20 19 17 15 16 16 15 15 16 16 15 10 8 7 6 6 5 6 4 2 2 2 3 3 3 2 1 2 2 5 4 3 3 4 3 5 8 7 4 5 4 5 4 4 2 2 1
16 16 16 17 19 21 20 19 19 18 17 18 17 17 17 19 16 13 9 6 5 5 4 6 7 5 3 3 3 2 2 3 1 1 3 3 3 1 5 2 1 2 4 6 5 5 5 3 1 1 2 3 4 6
21 17 17 17 23 24 20 17 18 18 20 19 18 19 20 18 14 11 6 4 2 2 3 5 5 6 4 3 2 2 1 1 1 1 2 3 3 4 3 1 3 3 5 6 5 4 3 4 5 5 5 6 7 8
23 22 20 16 18 23 20 22 18 17 21 21 23 22 20 15 11 8 3 3 2 3 4 5 5 7 5 4 3 1 1 1 1 1 2 3 3 2 1 5 5 6 5 5 7 6 6 5 6 6 7 9 9 8
21 21 19 20 20 22 22 21 20 18 21 24 25 17 17 14 5 4 4 3 3 4 6 7 5 6 8 5 3 2 3 3 2 2 3 3 1 0 1 6 9 7 4 6 7 6 6 7 8 9 9 8 6 5
17 15 17 21 23 24 24 22 22 23 24 27 20 17 13 8 6 6 6 5 4 8 7 4 2 2 7 7 4 4 3 4 1 3 3 3 2 4 3 6 8 7 7 8 7 6 8 9 9 8 6 5 3 4
19 15 15 22 23 21 22 23 24 26 26 26 11 11 7 6 6 7 8 7 8 7 5 3 1 2 6 9 5 2 2 1 2 4 4 2 1 6 5 7 8 9 9 8 7 7 10 10 8 6 4 2 4 6
20 18 18 25 24 21 22 25 25 30 27 12 9 7 7 5 8 9 9 7 6 5 2 2 3 3 6 3 3 3 2 3 5 6 4 5 3 5 8 6 7 8 9 8 8 11 9 8 7 4 2 3 5 10
19 19 20 27 26 20 22 28 29 34 25 9 8 10 13 9 7 9 9 7 6 7 6 5 3 3 4 3 3 4 3 4 2 1 2 3 5 7 9 6 6 8 7 7 10 10 8 5 3 2 1 4 9 12
19 21 28 29 26 22 23 30 33 28 21 7 7 11 16 14 11 9 10 9 7 5 5 4 3 2 3 4 4 6 5 1 1 1 0 1 3 6 8 7 8 8 8 10 12 9 6 4 4 2 4 8 11 14
23 26 28 28 26 22 23 32 28 14 13 13 11 8 5 19 13 12 11 9 6 8 9 6 6 6 4 3 4 3 2 1 1 1 2 2 3 5 7 8 9 9 10 12 10 7 7 6 4 5 6 9 12 15
28 27 26 21 17 17 22 32 22 13 17 18 14 10 8 10 13 10 9 8 7 9 8 7 7 6 6 5 2 0 1 2 2 3 4 3 4 7 9 9 10 11 12 12 10 9 8 6 7 8 9 11 15 19
27 22 19 17 15 17 18 25 20 15 19 15 14 16 13 9 10 12 12 11 9 10 11 12 10 9 6 4 4 8 8 7 3 2 5 6 6 7 9 10 12 12 14 13 11 10 8 8 11 11 13 16 19 21
27 23 19 18 17 20 9 12 29 14 16 18 14 12 13 13 11 4 4 6 14 15 9 6 5 8 10 10 11 9 9 9 7 7 10 8 7 9 10 12 12 14 16 14 12 11 10 12 13 15 17 19 22 24
23 22 20 21 24 19 11 12 24 27 16 9 12 14 15 15 16 15 13 14 18 11 9 10 10 10 9 11 13 15 16 14 13 14 12 9 8 8 9 11 13 15 14 13 12 12 13 14 15 17 19 21 24 27
21 20 21 26 26 15 8 16 17 24 24 25 22 17 16 16 17 16 16 17 17 18 18 16 16 16 15 14 14 14 15 17 17 13 10 10 10 11 13 15 16 16 14 12 13 14 15 16 18 19 21 23 26 29
22 19 19 17 20 14 11 15 19 19 22 18 23 22 20 21 20 19 19 16 12 14 15 15 16 17 17 17 16 14 14 13 13 12 12 11 11 11 14 15 15 15 13 14 15 16 17 18 20 22 23 25 28 31
25 18 8 14 16 22 14 15 22 22 22 23 21 22 22 20 18 21 24 22 21 15 14 16 19 20 20 19 17 16 15 15 15 16 13 12 11 12 12 12 13 13 13 14 15 16 17 19 21 23 24 27 30 32
16 10 12 9 18 21 30 23 15 20 24 21 19 23 24 22 23 24 29 25 17 15 16 17 16 16 16 16 14 13 12 13 13 12 11 10 9 10 12 13 13 13 14 15 16 16 18 20 22 24 26 29 30 31
16 11 22 25 19 18 22 25 29 19 14 16 19 22 22 20 19 24 23 19 19 17 13 12 11 12 12 14 14 12 12 11 10 12 12 11 11 12 13 13 13 14 14 15 16 17 18 20 22 26 28 29 30 31
17 16 11 13 28 24 22 25 28 31 33 32 27 24 21 17 21 21 18 13 10 10 11 11 12 12 12 13 13 13 14 15 15 14 12 11 11 12 12 12 13 14 15 15 17 18 19 21 24 26 28 30 31 32
24 18 17 19 18 24 31 29 28 27 25 25 27 29 29 24 19 18 17 16 14 14 13 13 11 10 10 11 13 14 14 14 13 12 12 12 11 11 11 12 13 14 14 15 16 17 20 22 24 26 27 29 30 31
26 22 20 20 24 23 24 24 26 25 25 25 25 24 24 23 22 21 20 17 14 15 14 14 13 13 12 13 13 12 11 10 11 12 12 12 11 11 11 12 12 13 13 14 15 18 21 22 24 26 27 28 29 32
33 31 27 26 25 25 26 26 25 25 25 25 24 24 23 22 21 20 20 19 17 16 16 15 15 15 14 13 13 14 13 13 14 15 14 12 11 10 11 11 11 12 13 14 17 19 20 22 24 25 27 29 31 32
21 23 24 24 23 22 21 20 22 24 24 24 23 23 24 24 24 24 22 21 20 18 18 17 16 15 13 15 16 15 15 15 15 14 13 12 11 10 10 10 10 11 13 15 17 19 21 23 24 25 27 29 30 30
18 19 19 19 18 18 17 16 17 18 20 20 20 23 25 25 26 26 23 21 19 18 17 16 16 15 14 15 15 15 15 15 13 12 11 11 9 8 9 9 10 12 13 15 17 19 21 22 24 26 28 28 28 29

GFSWCAN_700_spd_105.txt.gz
Wind_Speed
24 26 28 39 33 34 34 32 27 25 24 24 25 23 20 18 17 18 18 22 22 19 15 12 9 6 8 7 5 4 2 5 3 4 5 4 7 7 5 12 8 10 5 6 5 5 4 4 13 3 11 9 11 11
25 26 33 29 34 28 28 28 23 24 25 25 23 21 19 18 16 17 17 19 17 18 11 12 11 8 8 7 6 9 9 10 5 4 5 5 8 5 10 4 9 4 13 2 5 8 9 13 14 13 12 11 11 11
21 26 30 32 27 27 26 24 25 23 22 22 21 20 17 15 15 16 17 17 13 13 14 15 13 10 7 6 6 5 7 9 9 6 7 5 6 7 4 6 8 6 5 7 7 11 11 11 11 11 10 11 10 10
21 23 26 25 28 24 22 24 24 21 20 20 18 16 15 14 14 16 17 16 12 12 9 16 14 10 6 4 4 6 6 4 4 4 6 5 3 4 3 3 5 3 5 6 12 11 11 12 12 11 10 10 10 10
23 22 19 21 20 24 21 20 22 18 14 15 15 15 15 14 16 15 17 15 11 8 11 15 13 10 8 6 5 4 4 3 3 3 4 3 3 1 2 2 3 2 6 7 6 8 10 11 11 12 11 10 9 7
22 20 17 15 21 25 23 19 22 21 16 16 15 14 14 14 16 15 16 13 10 9 14 13 10 9 8 6 5 5 3 2 1 3 4 3 0 4 3 3 2 5 8 8 9 9 9 9 9 9 9 8 7 6
19 16 12 14 25 22 26 21 19 17 13 14 13 15 14 15 14 12 11 12 11 10 12 12 9 8 8 6 5 7 6 4 1 2 5 3 2 4 4 3 4 8 8 9 9 7 7 7 8 8 8 7 6 7
15 16 15 14 27 21 24 24 21 20 17 15 16 16 16 16 14 10 10 11 12 12 11 6 8 7 5 5 4 5 5 4 2 3 3 2 4 2 2 2 6 7 8 9 8 6 6 7 8 9 7 6 5 6
16 19 16 17 18 23 22 23 22 19 16 16 17 17 17 17 16 13 11 9 10 7 6 8 11 7 5 6 6 4 3 2 3 3 4 3 4 2 2 4 5 6 7 8 6 7 8 7 6 6 5 7 7 7
15 16 16 16 20 20 21 20 20 17 18 19 19 19 19 18 16 12 8 7 6 6 8 12 9 11 8 6 5 3 2 1 2 3 2 3 3 4 4 3 5 7 9 9 9 7 7 8 9 7 8 9 9 10
18 17 17 19 20 20 19 19 19 20 20 21 22 20 21 17 12 7 4 4 5 5 8 10 10 10 7 6 5 2 1 1 1 1 2 3 3 3 3 6 7 10 9 8 7 6 7 8 8 9 11 11 10 7
19 18 18 18 23 23 20 18 19 20 20 21 22 21 18 11 5 3 5 4 5 4 9 10 9 10 8 6 3 2 2 2 2 1 2 3 2 2 3 10 11 9 8 8 8 7 7 8 10 11 12 9 6 4
20 18 18 18 20 23 22 23 19 21 20 22 21 17 11 5 4 4 5 4 5 11 11 8 6 7 7 6 3 2 2 2 2 2 3 0 2 2 3 9 11 8 6 8 9 8 9 11 12 11 10 7 4 2
18 17 18 20 21 21 22 22 23 23 26 22 14 11 6 5 5 5 7 9 11 11 8 5 3 1 6 7 4 3 1 2 2 3 2 2 3 3 4 9 11 10 9 10 9 10 12 14 11 9 6 4 2 0
16 14 19 21 21 21 22 22 24 27 26 13 8 5 6 6 7 9 11 10 9 7 5 3 2 1 4 3 3 2 1 3 4 3 1 3 3 7 6 5 8 9 10 10 10 12 13 10 8 6 6 4 1 2
17 17 22 22 20 18 20 22 27 29 19 14 6 8 9 6 9 10 11 11 9 8 4 3 2 2 3 2 3 3 3 3 2 2 2 4 6 7 9 8 8 11 10 10 11 14 12 10 9 8 5 4 4 5
16 17 24 23 20 18 22 25 30 27 11 11 12 12 10 6 11 12 11 9 9 8 6 3 3 3 3 3 3 5 4 2 2 1 1 1 3 6 8 9 10 11 10 10 14 13 11 10 8 7 7 8 8 9
17 19 26 26 20 17 22 25 29 15 10 11 17 15 15 11 9 10 12 11 8 6 7 5 4 5 4 3 4 2 2 3 2 2 2 2 2 4 8 9 10 11 11 11 15 14 12 11 9 9 10 11 12 14
17 24 27 25 20 15 17 26 25 12 20 12 12 8 8 15 14 12 12 9 6 8 8 7 6 4 3 6 3 3 3 3 2 3 3 4 4 6 9 10 11 12 13 12 15 15 14 12 10 13 12 13 16 17
20 24 23 21 17 14 14 13 24 10 19 17 12 6 6 9 13 12 10 10 9 10 13 12 10 7 6 5 7 8 8 6 6 4 2 3 5 7 8 10 13 14 15 16 18 15 14 12 14 16 15 17 19 20
22 24 19 18 14 12 8 13 23 12 14 20 14 13 12 10 7 11 8 9 13 16 12 6 3 6 9 11 11 12 8 8 9 9 7 7 7 7 10 11 13 14 15 16 17 18 15 15 18 18 18 20 22 24
24 22 20 15 14 14 8 14 25 15 12 15 16 15 15 17 16 14 9 13 14 9 8 9 7 9 10 10 9 11 13 15 14 13 13 12 11 10 11 12 12 13 15 18 19 17 17 19 19 19 21 22 23 25
24 22 16 14 16 12 8 14 19 26 16 15 13 15 15 14 20 18 19 17 14 10 10 14 16 16 17 16 14 12 12 14 15 17 17 14 12 11 12 13 15 16 17 17 18 18 20 20 19 21 22 23 25 27
19 17 16 12 16 10 11 15 15 16 28 27 22 19 17 17 20 21 22 17 13 11 9 12 15 17 18 18 17 16 15 15 15 13 13 13 12 12 13 14 15 16 18 19 20 20 19 19 20 22 23 24 25 27
17 12 8 10 16 14 13 17 19 19 19 22 24 21 22 24 21 24 26 22 15 14 18 16 14 15 18 20 19 19 18 16 15 15 15 15 15 13 13 13 14 15 17 18 18 18 19 20 21 22 22 24 26 28
13 9 7 7 14 19 19 14 13 20 19 17 14 20 20 18 20 21 24 21 19 19 17 16 15 18 18 17 17 17 17 17 16 16 16 15 14 14 14 14 15 16 16 17 17 17 18 19 19 21 22 24 27 29
15 9 13 15 13 13 18 23 23 20 16 14 17 20 18 11 13 17 15 14 13 12 14 15 15 14 13 14 13 14 14 14 15 15 14 14 15 14 14 14 15 16 15 14 15 15 16 17 19 21 23 25 27 29
13 21 18 12 16 23 19 19 21 24 25 23 23 20 9 9 13 17 20 16 13 11 9 9 11 11 12 13 14 15 17 17 17 17 17 15 14 14 14 14 14 14 14 13 13 14 15 17 19 21 24 26 27 29
22 21 22 16 13 15 22 26 24 23 22 22 23 24 26 21 20 20 18 16 14 13 12 12 12 10 10 12 13 15 16 17 16 16 15 14 14 13 13 13 12 13 12 12 13 13 15 17 20 22 24 26 27 29
35 30 27 26 21 21 22 21 21 23 25 27 26 24 22 21 21 20 18 16 17 16 13 12 12 11 12 13 13 13 14 14 14 14 14 15 15 14 13 12 11 11 11 11 12 14 16 18 20 22 24 26 27 29
26 32 33 29 28 25 23 23 25 25 25 24 24 25 24 22 22 22 20 18 17 17 15 14 14 14 13 13 13 14 15 15 14 14 14 14 13 13 12 11 10 9 10 12 13 15 17 19 21 22 24 25 27 28
28 29 30 32 35 34 32 30 29 29 28 27 27 27 27 26 26 25 23 21 19 18 17 17 16 15 15 16 15 15 15 15 15 15 14 13 12 12 11 10 8 9 10 11 13 15 17 19 21 22 24 26 26 26
21 23 24 25 27 27 25 24 23 23 24 24 25 25 25 25 27 28 24 23 21 20 19 18 18 17 16 15 15 15 15 15 14 13 12 11 11 10 9 7 8 9 10 12 14 15 17 19 21 23 24 25 25 25

GFSWCAN_700_spd_108.txt.gz
Wind_Speed
19 16 21 35 33 38 39 37 34 33 31 29 29 25 26 25 23 21 19 18 20 18 20 16 15 11 9 9 8 8 3 2 4 4 3 3 3 3 1 7 5 8 3 2 3 4 3 9 15 5 12 11 11 12
19 16 26 31 34 33 32 32 31 29 28 24 25 24 23 21 20 19 18 20 21 17 19 16 13 11 11 9 7 7 3 3 4 4 4 4 5 4 4 1 5 3 6 2 3 6 10 15 10 17 14 13 12 12
20 25 36 33 32 32 32 31 25 23 24 25 23 23 22 20 18 17 19 21 20 17 14 15 14 12 11 10 9 6 5 5 6 4 5 3 4 4 3 4 3 4 5 8 8 13 14 14 14 14 13 13 11 11
25 29 29 27 28 33 25 22 24 24 23 24 24 23 20 19 18 19 19 18 16 17 13 18 16 13 12 10 8 7 7 5 4 4 3 3 2 3 2 2 2 3 4 5 14 13 14 14 13 12 12 13 11 10
26 31 29 27 26 21 22 25 23 23 23 23 22 21 19 18 19 18 19 16 12 14 13 22 18 14 12 10 8 8 6 5 4 3 3 2 2 1 3 3 1 1 8 10 8 10 11 12 12 10 11 11 10 9
22 23 30 22 19 21 28 22 22 22 22 22 22 19 16 17 17 19 18 14 12 8 18 18 16 13 12 11 9 8 5 4 3 4 3 3 1 1 4 5 3 3 7 5 9 10 11 12 11 9 10 10 8 7
17 16 16 20 20 18 26 22 22 20 20 20 18 15 15 16 16 17 15 15 13 14 14 14 12 13 12 12 11 9 7 5 3 3 5 4 3 4 2 5 5 3 8 9 10 10 11 12 12 11 11 10 8 7
14 11 12 16 21 27 21 23 21 17 18 18 16 15 15 16 16 12 14 15 13 14 12 7 9 11 10 9 9 10 10 9 5 4 4 4 4 3 2 2 5 6 9 11 11 9 9 9 10 11 10 10 9 8
12 12 10 23 21 26 21 21 20 16 16 15 15 15 15 16 13 14 14 14 13 10 6 8 12 10 9 8 6 5 5 5 5 5 4 3 4 3 2 2 5 8 11 11 9 9 10 10 10 10 10 10 11 11
15 15 15 21 20 24 24 21 20 20 16 16 16 16 17 18 16 13 12 11 9 7 7 14 10 11 10 9 7 5 4 3 3 4 2 4 4 5 4 4 6 8 10 10 10 8 8 8 10 12 13 13 14 14
15 14 15 17 22 24 20 19 20 17 17 19 19 17 18 17 14 7 6 5 6 5 10 12 11 11 9 8 8 4 2 2 2 1 2 3 4 5 4 6 8 11 12 11 10 9 8 11 14 14 15 15 13 10
14 14 15 17 18 19 18 19 18 18 19 19 16 19 18 11 4 3 6 6 5 5 12 12 11 9 8 7 3 3 2 2 2 2 3 4 3 5 7 11 13 14 13 13 12 10 11 12 14 16 16 13 10 7
13 14 17 18 19 18 19 18 19 19 17 16 20 13 9 3 3 4 4 6 6 14 13 11 10 10 7 5 2 1 2 2 2 3 3 1 2 3 4 13 14 12 11 12 11 11 13 14 15 16 13 10 7 4
16 16 18 18 19 16 16 18 21 21 21 21 9 8 4 4 4 6 11 15 16 15 11 9 6 5 7 6 3 1 2 2 2 3 1 1 4 3 4 11 12 12 10 11 12 12 13 15 14 11 9 7 5 3
16 16 17 18 16 16 18 21 21 24 21 10 7 4 5 6 10 12 15 16 13 11 8 5 4 3 5 3 3 2 1 2 3 1 1 2 3 6 5 7 8 9 10 10 10 11 14 15 13 12 9 6 4 3
15 15 18 21 17 14 17 22 24 22 16 8 4 7 8 8 11 13 13 13 10 7 4 3 2 2 2 1 1 2 1 1 1 4 2 4 6 6 9 7 7 11 12 11 11 13 16 15 13 10 8 8 7 7
10 13 20 20 17 15 18 20 25 20 10 8 6 8 7 7 11 12 12 10 8 7 5 3 1 2 1 2 2 2 1 2 2 3 1 1 3 6 8 10 9 11 11 10 10 15 14 13 12 11 11 11 10 11
13 18 19 18 14 14 17 20 25 10 7 12 8 7 6 7 11 12 12 12 9 6 5 2 1 3 2 1 2 1 1 2 2 1 1 2 2 1 6 10 10 11 12 12 12 16 16 14 14 13 13 12 12 14
12 17 19 15 13 10 16 20 24 10 11 14 15 7 6 7 8 10 11 10 6 3 4 3 3 3 3 2 4 3 3 2 1 2 3 3 2 2 4 6 8 11 12 13 13 18 19 17 15 15 15 15 15 17
15 22 20 15 13 11 11 8 26 11 13 13 13 7 6 7 11 9 10 8 6 7 7 6 5 6 6 6 5 5 7 6 5 4 3 2 3 3 5 7 10 12 13 14 16 18 18 17 18 18 18 18 18 20
20 24 21 15 11 9 6 7 19 14 9 15 12 6 4 7 9 12 10 9 10 10 11 7 2 4 7 8 9 10 9 8 8 8 8 7 7 8 8 9 10 11 12 14 15 17 20 20 20 20 20 19 21 23
21 19 15 13 9 7 6 9 19 13 16 14 17 13 9 9 8 10 11 10 5 6 7 6 9 8 6 8 9 9 9 11 12 13 13 13 13 12 12 11 11 12 13 14 16 19 23 22 22 21 20 22 23 24
17 16 12 8 7 9 6 11 19 20 12 14 14 15 15 14 15 14 15 15 9 6 7 8 12 13 12 13 15 15 14 13 12 14 15 17 17 16 14 12 11 12 15 16 18 20 21 22 22 21 22 23 24 25
16 18 13 6 8 8 7 10 17 22 21 15 10 9 11 16 19 20 24 21 12 10 15 12 9 10 13 16 16 16 17 16 15 15 16 16 16 16 15 14 14 15 17 19 19 21 22 21 21 22 22 23 24 26
16 11 7 9 9 12 9 14 14 15 15 19 24 22 17 17 18 21 23 23 19 20 15 15 17 18 16 16 16 18 19 18 17 17 17 17 17 17 16 16 15 16 16 17 18 19 19 20 21 21 21 23 24 25
10 7 6 5 10 13 13 11 16 17 15 12 8 13 18 19 19 18 22 22 18 15 15 17 19 18 16 17 19 19 19 18 19 19 19 19 20 19 18 17 16 16 16 18 18 18 18 18 19 20 21 22 23 25
10 6 8 12 8 10 14 16 14 9 8 9 9 10 11 6 9 16 16 5 7 9 12 14 15 16 18 17 16 15 15 15 17 17 17 17 17 16 16 15 15 14 14 15 15 16 17 17 18 19 20 21 22 25
13 16 14 9 9 13 14 13 15 18 19 20 20 16 7 4 6 7 6 14 16 13 11 10 9 10 13 14 14 14 16 17 18 18 18 17 16 15 14 13 14 14 14 14 15 16 16 16 16 17 19 21 23 25
25 17 11 12 15 15 15 17 20 20 19 18 17 17 20 18 17 18 18 15 13 12 12 12 11 12 13 14 14 14 14 15 17 18 17 16 15 15 14 14 15 15 14 13 13 14 14 14 15 17 19 21 23 25
22 23 26 24 19 18 19 19 17 17 19 20 21 21 21 20 19 18 17 16 14 15 14 14 13 13 14 14 14 13 14 15 16 16 15 14 15 15 14 14 14 13 12 11 12 12 13 14 16 18 20 22 24 25
22 20 23 26 28 27 25 22 22 21 20 21 22 23 22 21 20 22 21 19 18 17 17 15 15 14 14 14 14 15 16 15 14 14 14 14 14 13 13 13 12 11 11 10 11 12 13 15 16 18 20 22 24 25
29 29 29 30 28 26 26 29 30 31 31 30 29 27 26 26 27 26 23 23 22 21 19 17 16 16 17 18 18 17 16 15 14 15 15 14 13 12 12 11 10 10 9 9 10 12 13 15 17 19 21 22 24 24
24 25 27 28 28 28 27 26 27 28 28 28 28 27 27 27 29 30 26 23 22 20 19 19 19 19 19 19 18 17 15 15 14 14 13 12 12 11 10 10 9 7 7 8 10 12 14 15 18 19 21 22 22 22

GFSWCAN_700_spd_111.txt.gz
Wind_Speed
17 21 21 24 29 31 36 39 39 37 39 46 45 41 35 31 28 24 22 18 20 18 26 24 20 17 17 16 14 12 8 6 9 8 5 4 4 3 3 3 1 1 5 6 7 3 4 12 16 6 9 13 13 14
26 28 25 24 29 38 46 45 44 43 44 41 36 32 28 24 22 20 19 20 20 15 27 22 19 16 14 13 11 11 6 8 8 8 6 4 5 3 2 2 1 0 4 6 8 7 10 18 12 12 14 13 14 14
30 31 31 36 37 36 37 41 36 32 31 30 28 26 24 22 20 19 20 23 24 15 24 21 18 15 15 13 11 9 6 6 7 8 7 4 3 4 3 1 3 4 4 10 9 11 19 15 18 15 15 14 13 14
24 31 33 33 34 35 36 33 33 29 28 26 25 24 23 21 21 20 22 24 21 24 22 21 17 16 15 13 10 8 5 5 6 7 5 4 3 2 2 1 1 4 6 5 10 16 18 18 17 16 15 15 13 11
29 28 31 30 31 26 24 28 30 27 24 23 23 22 20 21 22 22 21 21 18 18 22 23 19 16 14 13 11 9 6 5 4 4 5 4 3 2 1 2 1 2 6 12 11 16 12 18 17 17 16 14 13 11
27 26 29 33 24 26 32 30 23 25 25 24 23 21 21 21 21 24 23 19 16 11 22 23 18 15 14 12 10 9 7 5 4 5 4 4 4 0 1 2 1 4 11 7 13 10 16 14 15 15 15 13 11 10
33 27 27 25 28 29 26 25 24 25 25 24 22 21 21 20 22 22 18 19 15 13 20 20 17 16 14 12 11 10 8 6 4 3 4 3 3 2 3 3 4 4 10 9 12 13 14 14 13 13 13 11 10 10
24 25 24 23 28 22 24 24 24 25 25 24 22 21 19 20 19 16 17 15 16 15 15 8 11 16 14 13 11 9 9 7 5 4 2 3 3 2 3 4 2 3 9 11 12 12 13 12 13 13 12 11 11 11
14 18 25 23 24 21 24 24 23 23 23 21 20 19 19 18 16 17 16 14 15 9 6 8 15 14 14 11 10 7 9 8 7 7 5 3 4 3 3 2 4 5 9 11 11 11 12 14 14 13 13 13 13 15
12 15 22 26 26 21 19 21 21 21 20 18 19 19 19 18 17 17 15 13 10 7 5 14 12 15 13 12 9 5 4 4 3 6 4 5 6 5 5 5 7 7 10 12 10 11 11 12 14 15 14 15 16 17
16 21 19 23 23 21 22 21 18 14 14 15 18 19 22 20 18 11 9 6 6 6 12 14 11 15 13 9 9 4 3 3 3 1 3 3 3 5 6 7 8 10 12 12 12 12 13 15 14 15 16 16 17 14
17 18 19 21 20 22 19 19 18 15 14 14 15 20 20 13 5 5 7 7 6 7 15 16 14 10 11 9 4 4 3 3 3 4 3 3 3 4 7 8 9 12 13 14 14 13 13 14 16 18 18 17 15 12
14 15 18 20 19 18 19 19 17 16 17 17 22 14 8 3 4 5 4 6 7 17 17 15 13 10 9 4 3 2 2 3 2 3 3 2 2 3 5 11 12 13 14 15 14 13 14 15 17 18 18 15 13 10
14 17 16 16 16 15 16 16 19 20 21 20 9 7 4 4 4 6 12 15 18 18 15 12 10 7 7 6 3 2 3 2 2 2 1 2 2 2 2 12 14 13 14 13 11 12 13 15 17 17 16 14 11 9
16 17 17 16 16 15 16 19 21 22 20 10 7 5 5 8 15 17 18 18 17 15 12 10 6 5 7 3 3 2 2 2 1 1 1 3 1 6 4 7 15 14 12 11 12 13 15 18 19 18 15 12 9 7
14 16 15 14 13 12 15 19 20 20 12 7 6 11 11 14 16 18 16 17 14 10 8 6 5 3 3 2 2 2 1 1 0 3 3 4 5 3 8 9 11 13 13 14 14 14 17 20 18 15 13 12 8 6
12 15 17 14 12 11 15 20 18 14 7 6 9 8 9 13 15 14 14 12 9 8 6 5 3 2 3 1 1 1 2 1 2 2 2 3 2 6 8 9 8 10 12 12 12 13 17 16 15 14 13 10 9 9
12 15 16 14 11 13 16 20 16 6 9 10 8 7 6 11 13 13 11 10 9 10 7 4 3 1 2 3 1 2 1 1 3 4 3 3 2 1 5 9 10 11 12 12 12 13 17 17 16 15 13 12 12 13
13 14 14 12 11 14 17 19 17 7 10 11 6 3 5 7 10 12 13 12 8 5 3 2 2 6 4 2 1 1 2 0 1 0 2 2 1 1 3 5 6 8 10 11 12 13 18 18 17 16 15 15 15 15
13 15 12 9 8 11 10 11 17 8 9 9 8 8 4 5 8 9 10 9 5 2 2 3 2 2 3 3 2 2 2 3 3 3 2 1 3 2 1 3 7 8 10 11 13 14 15 17 17 18 18 17 17 18
14 16 9 6 5 8 6 8 17 10 11 11 10 8 7 7 6 8 9 8 2 4 3 3 3 3 3 3 3 4 5 5 4 5 6 5 5 5 5 5 6 8 9 11 13 14 15 18 20 20 20 19 19 20
14 18 10 5 5 6 5 7 17 12 12 11 12 7 5 4 3 7 10 9 4 2 5 3 6 9 7 4 5 6 7 6 6 8 10 11 11 10 10 9 8 9 11 12 14 16 19 20 21 22 20 20 20 21
11 11 8 6 3 4 3 7 13 15 7 13 13 11 11 7 6 6 8 8 8 2 3 7 6 7 11 11 11 12 11 11 11 10 11 12 13 14 14 13 12 12 12 14 16 18 19 20 21 21 21 20 21 21
12 10 7 3 3 3 4 5 9 14 12 5 7 7 8 12 12 11 13 12 10 10 11 11 11 10 8 10 13 15 14 13 13 13 14 13 14 14 13 13 13 13 14 16 17 17 18 20 21 20 19 19 20 21
9 7 4 4 4 5 5 6 7 9 14 14 13 10 7 7 9 14 19 18 15 16 16 17 15 15 16 17 16 15 15 15 16 17 17 16 16 15 15 15 15 15 15 15 16 17 18 18 18 17 17 19 20 21
8 5 3 3 5 5 7 5 7 10 7 6 5 6 11 15 16 12 18 16 14 13 14 16 17 17 19 20 17 16 17 18 18 17 17 18 17 16 16 16 16 16 16 17 16 16 15 14 14 16 17 18 19 20
8 6 7 7 3 3 6 10 9 3 3 7 6 4 3 3 5 10 11 10 6 4 9 13 15 16 17 16 16 17 17 17 16 16 15 15 15 15 15 13 13 13 13 13 12 12 12 12 14 15 16 17 18 20
9 9 8 3 3 5 8 7 8 8 9 10 9 8 4 2 2 2 2 3 7 14 13 13 13 12 12 11 12 14 15 14 14 14 14 14 15 14 13 12 12 11 12 12 12 11 11 12 14 15 16 17 19 20
15 13 9 8 7 7 10 9 10 12 11 11 11 11 12 11 11 14 14 14 13 12 11 11 11 12 13 14 14 14 13 12 12 13 13 14 13 12 12 12 12 12 11 11 11 10 10 12 13 14 15 17 19 21
13 12 14 17 17 16 15 12 13 16 13 12 15 16 16 15 15 15 15 15 13 13 13 14 14 14 14 13 14 13 13 14 14 13 12 12 11 11 11 11 11 11 11 11 10 9 10 11 12 13 15 17 19 21
16 15 17 17 18 17 18 19 19 18 18 17 16 16 16 17 17 17 16 15 16 16 15 15 16 16 16 15 14 14 14 15 14 13 11 11 11 11 11 10 10 11 11 10 9 9 9 10 12 14 16 18 20 22
16 18 20 21 22 22 22 22 23 23 21 21 22 23 24 25 25 24 21 19 19 19 20 19 19 18 17 16 16 15 15 15 14 13 12 12 11 11 10 10 10 10 9 8 7 7 9 11 12 14 17 19 20 21
21 20 20 21 22 22 22 22 24 26 24 24 23 22 22 22 25 26 23 21 21 20 19 19 18 18 19 18 16 15 14 14 14 13 12 11 11 10 9 9 9 9 7 4 5 8 10 11 14 16 18 19 20 19

GFSWCAN_700_spd_114.txt.gz
Wind_Speed
19 20 27 30 40 44 52 47 49 51 54 52 58 63 61 56 38 34 37 30 27 23 30 31 29 25 26 26 21 17 17 15 16 11 8 5 5 8 5 7 7 9 8 9 8 5 5 14 16 9 5 10 12 14
18 21 30 39 42 44 46 46 47 48 48 47 46 44 42 45 42 35 31 27 24 22 31 26 22 22 23 22 18 17 13 13 13 11 9 7 6 8 8 4 8 4 11 6 11 10 6 17 16 11 12 12 15 14
21 20 29 35 39 44 47 47 47 46 46 45 44 49 47 41 31 28 26 22 23 23 33 27 26 22 19 19 18 16 12 11 13 14 11 7 5 9 5 5 6 7 7 10 9 11 11 19 15 14 16 16 15 15
29 34 34 39 44 48 53 54 53 50 47 44 40 35 30 28 26 25 24 26 24 37 32 27 22 20 19 16 15 13 9 9 10 12 11 8 6 6 6 4 5 7 6 8 6 12 19 18 18 17 17 17 15 12
33 36 42 44 39 41 42 44 43 37 34 31 29 28 27 27 26 26 27 25 24 18 34 29 22 21 19 17 13 12 10 9 10 9 7 7 7 6 5 3 4 6 9 8 10 15 15 19 18 18 17 17 15 13
30 33 35 35 34 35 34 34 33 31 30 29 28 27 26 26 28 28 30 22 24 8 34 24 22 19 17 16 14 11 10 9 9 8 7 7 6 5 4 4 3 5 10 9 10 16 14 17 16 17 17 16 14 11
31 30 33 34 35 36 30 32 32 30 29 28 27 27 26 27 30 30 25 26 23 17 27 21 17 19 17 15 13 12 9 7 7 6 5 4 4 3 4 5 3 5 11 8 12 10 16 18 17 18 18 16 15 13
30 31 37 35 27 29 31 29 28 28 27 26 26 26 26 25 23 20 20 23 17 21 23 11 13 17 18 15 12 11 8 7 6 4 3 2 3 4 3 4 3 6 9 11 14 16 16 17 18 18 18 17 15 13
27 31 28 29 27 26 28 28 28 27 25 26 26 26 26 23 21 23 21 22 19 13 8 10 18 13 18 14 11 9 8 7 6 6 6 2 1 3 5 3 4 7 9 11 14 15 16 17 17 19 18 17 16 13
23 24 23 25 26 25 27 28 28 24 26 26 26 27 25 25 24 23 20 17 10 8 8 16 18 17 19 14 10 7 5 6 2 7 5 6 7 6 7 6 6 8 11 13 13 13 14 16 17 17 17 16 15 15
25 23 21 22 24 25 26 26 26 24 22 23 23 25 27 26 23 14 10 6 6 6 14 14 16 19 17 11 11 6 5 5 4 3 5 2 3 7 8 7 8 9 12 14 14 16 18 18 17 16 15 14 15 17
22 22 22 20 18 19 23 22 21 18 16 17 22 28 27 14 7 6 8 8 7 7 17 17 18 17 15 12 5 5 4 4 2 4 2 2 5 6 8 9 9 9 11 14 14 14 15 16 18 17 17 17 18 17
20 21 22 22 21 21 20 17 16 17 17 24 26 18 6 4 5 5 5 7 9 21 20 20 16 15 11 5 4 3 3 3 3 3 2 5 4 5 9 11 11 11 13 13 13 13 14 15 17 18 18 20 19 16
19 18 19 22 22 20 17 17 19 22 26 22 10 7 4 4 4 7 10 12 21 23 19 16 13 8 8 6 3 3 3 2 2 2 2 2 3 5 6 11 12 11 13 14 14 12 13 15 16 18 21 20 18 15
19 19 19 18 19 17 17 18 21 23 18 12 6 5 6 13 17 18 20 22 21 19 16 13 8 7 8 4 3 2 2 1 2 1 2 4 2 4 3 12 14 13 13 14 13 11 12 14 17 19 18 17 15 14
15 17 19 18 18 16 19 19 22 16 13 8 7 16 19 18 18 22 21 20 19 17 13 9 6 4 4 4 3 2 3 1 1 2 4 4 4 4 6 10 15 13 13 12 12 11 14 16 20 20 18 16 15 14
12 11 14 14 15 17 19 20 20 13 7 9 13 15 18 19 17 18 18 17 14 12 8 5 3 2 6 3 3 3 3 1 1 2 2 2 4 7 5 7 10 12 12 10 10 13 15 18 20 19 17 17 16 15
12 13 13 13 14 16 17 16 14 10 18 16 14 14 16 16 16 14 14 12 10 10 9 6 5 5 4 4 3 3 3 3 3 4 3 3 2 3 7 10 9 11 11 12 13 13 14 18 20 20 19 18 16 15
12 12 10 9 12 15 17 16 12 14 15 14 12 10 12 14 14 12 12 12 11 8 7 5 4 7 6 5 4 3 2 1 1 0 2 3 1 1 3 5 8 9 9 11 12 13 15 19 20 20 18 17 17 16
11 10 10 11 14 15 10 12 11 10 11 11 7 5 8 10 13 14 15 12 9 8 8 5 5 4 3 3 2 1 1 0 1 2 2 2 3 3 1 3 6 7 8 11 12 13 14 16 18 19 18 18 18 18
10 11 12 11 12 13 7 14 11 9 12 12 11 9 8 8 10 11 11 10 7 7 5 2 3 2 1 2 2 1 1 2 4 4 5 4 3 3 2 2 3 6 8 10 12 13 14 16 19 20 20 19 19 19
11 10 11 10 10 9 6 10 12 11 11 13 12 10 8 7 7 9 9 8 8 5 4 2 1 4 4 3 2 2 4 4 4 4 7 8 8 8 7 7 7 8 9 11 12 14 16 18 18 19 20 20 20 19
10 7 5 7 5 4 6 8 11 11 7 11 12 9 8 8 6 6 6 8 9 6 5 4 3 2 3 6 8 8 9 9 8 8 9 8 8 9 10 10 11 11 11 12 13 14 15 17 18 19 20 20 20 19
8 7 5 3 3 3 5 5 7 10 8 6 10 10 8 8 7 7 6 6 8 6 6 6 4 5 6 7 7 8 11 11 11 11 12 12 12 11 11 11 11 11 12 13 13 13 14 16 17 19 19 18 18 18
5 3 3 2 2 3 2 3 5 6 8 9 7 6 6 8 8 11 12 9 9 9 10 11 12 13 12 12 13 15 16 15 14 13 14 15 16 15 14 13 12 12 13 14 14 14 15 16 16 16 16 16 17 17
5 2 1 1 2 3 4 2 2 4 4 5 6 6 8 11 11 8 13 10 8 9 9 11 12 14 15 16 16 17 17 16 16 17 17 15 15 15 14 13 13 14 14 15 14 13 13 13 14 14 14 15 15 16
4 3 3 2 2 3 3 5 3 2 4 5 6 6 4 4 5 6 8 8 7 6 7 9 11 13 14 14 14 13 14 14 15 15 13 12 12 11 11 12 12 12 11 12 12 12 12 12 13 13 13 14 15 16
6 5 5 4 3 1 2 1 1 3 5 4 6 5 2 3 2 3 4 4 3 5 8 9 9 11 10 10 11 11 11 11 11 12 12 11 11 11 11 11 11 10 11 11 11 12 12 13 12 12 12 13 14 15
8 6 6 5 3 3 1 2 2 5 4 4 6 6 6 6 7 9 11 11 11 12 12 12 11 11 11 12 13 13 12 11 10 10 9 10 10 9 10 10 10 10 10 10 11 11 11 11 10 10 11 12 14 16
7 8 9 9 10 10 8 8 9 10 9 9 9 9 12 15 14 13 13 14 14 14 13 13 13 14 14 14 14 14 13 12 11 10 10 9 9 9 9 10 9 9 9 10 10 10 10 8 9 9 11 13 15 17
6 7 9 10 11 11 12 13 13 13 13 13 13 13 12 13 13 13 13 13 14 14 15 16 16 16 15 14 15 15 14 13 11 10 10 9 9 9 9 9 9 9 9 10 10 8 7 7 7 9 12 14 16 18
6 7 9 11 12 12 14 16 17 18 17 17 18 17 18 19 21 22 20 19 18 18 18 18 18 18 19 17 16 15 14 12 11 10 9 9 9 9 9 9 9 9 9 9 7 6 5 6 8 11 13 15 17 18
13 14 17 18 17 15 14 15 17 18 17 17 17 18 20 21 24 23 20 20 20 19 19 18 18 18 18 18 17 16 14 13 11 10 10 10 9 9 9 9 8 8 8 7 5 4 5 8 10 12 14 15 16 17

GFSWCAN_700_spd_117.txt.gz
Wind_Speed
13 14 11 18 24 32 42 58 62 57 60 65 63 61 62 58 56 61 57 59 44 41 26 29 24 30 26 22 23 20 21 21 18 15 13 10 7 7 7 5 8 13 9 14 18 11 7 9 14 12 6 5 10 13
21 33 34 33 32 35 47 56 58 57 59 56 53 54 56 55 62 61 64 40 27 34 38 38 37 35 25 20 18 17 13 17 14 14 11 5 4 6 8 6 11 8 14 2 9 8 7 7 16 14 6 11 13 15
27 35 47 35 39 41 45 48 51 52 56 60 52 54 55 64 71 60 47 35 26 23 40 33 30 26 23 25 22 16 18 14 19 17 15 6 5 7 7 8 8 13 13 13 13 16 12 9 15 16 11 14 15 16
35 38 42 61 59 58 54 55 56 52 55 66 64 64 60 46 40 37 34 34 28 37 34 31 26 24 23 22 21 20 19 11 17 13 13 10 8 9 10 6 7 14 7 11 18 15 13 15 17 15 16 17 16 15
40 47 49 49 47 45 47 45 54 50 47 45 45 45 45 45 39 35 30 31 29 26 38 36 28 23 22 21 20 18 15 12 10 8 10 11 11 7 9 7 10 9 12 10 9 10 15 18 18 20 18 18 16 13
39 44 47 47 49 50 50 50 51 53 55 50 44 40 39 38 33 31 35 26 31 7 40 25 26 23 22 20 18 17 15 13 9 7 11 8 8 8 6 6 13 9 10 11 6 8 11 16 20 20 19 18 15 13
40 43 44 42 43 43 42 41 40 39 39 39 38 36 34 34 35 34 30 34 23 28 33 18 14 21 20 18 16 14 13 13 8 6 5 6 8 7 7 6 6 7 8 8 7 10 10 19 19 20 19 18 16 13
36 35 37 36 35 36 37 37 37 37 36 35 35 36 37 34 30 24 27 30 21 27 22 12 12 19 21 11 12 15 9 9 9 6 4 3 6 7 7 7 7 8 11 11 11 10 13 16 18 19 19 18 16 15
32 27 31 35 35 34 34 35 34 35 34 34 32 32 32 29 23 27 24 20 25 17 10 11 20 14 21 14 12 12 8 6 7 4 5 4 5 5 5 6 5 7 9 10 14 15 15 17 17 19 19 18 17 15
26 30 30 29 31 31 31 31 32 32 32 33 33 32 27 26 27 27 25 22 12 14 9 20 14 16 17 13 9 8 6 5 2 6 7 5 8 10 9 7 6 7 10 11 13 15 16 17 18 18 18 17 16 16
25 25 27 28 29 29 30 29 29 30 31 31 31 34 33 30 28 17 10 8 7 6 9 17 16 19 18 11 9 7 5 5 5 7 6 5 7 9 9 9 7 8 11 14 16 15 16 17 18 19 18 17 17 17
24 25 26 27 27 27 26 24 23 24 25 25 29 34 31 15 7 6 9 8 6 5 13 18 18 14 19 15 6 6 4 6 4 4 4 3 11 9 8 9 8 9 12 13 15 14 15 17 20 19 18 18 17 18
16 18 22 25 27 27 27 24 22 19 23 32 32 17 7 4 5 5 5 8 8 22 21 24 19 17 16 7 6 4 4 3 4 5 3 5 7 8 8 10 11 10 12 14 15 15 15 16 17 18 18 17 19 20
19 15 14 17 19 19 19 18 19 26 31 18 9 7 4 4 4 8 12 13 25 25 23 18 18 10 10 6 5 3 4 4 3 3 3 6 4 7 8 8 11 11 11 13 14 14 13 14 16 17 19 20 20 18
18 20 20 21 20 16 14 17 22 25 20 10 6 5 7 12 15 15 18 26 27 24 19 17 10 9 9 4 3 3 4 3 3 3 4 5 6 6 6 7 10 11 11 11 11 11 12 13 15 17 18 20 19 16
16 17 19 17 15 16 18 21 21 15 11 7 7 18 14 18 22 23 24 23 21 18 16 12 7 6 3 5 3 3 3 2 4 2 4 5 5 5 6 7 11 11 10 11 11 11 10 12 14 16 18 18 16 15
16 13 15 15 17 19 22 20 15 12 6 11 19 19 16 21 23 23 21 21 19 16 12 7 4 3 6 4 3 3 3 2 1 1 2 2 4 5 3 5 10 10 10 10 11 10 9 10 14 18 19 17 17 16
12 12 13 14 17 19 19 17 12 14 23 19 18 17 15 19 20 19 18 16 12 10 8 6 6 5 4 4 4 4 5 3 2 3 4 3 1 4 7 5 8 10 11 9 9 8 9 11 14 18 19 18 18 17
10 11 13 14 17 18 17 13 17 18 18 17 18 16 14 13 15 13 13 11 11 11 11 8 5 4 6 8 7 6 4 2 1 1 3 3 2 1 4 7 8 8 10 10 8 9 10 11 15 18 18 18 18 18
9 10 11 14 15 15 9 11 15 16 17 15 13 13 13 13 12 11 13 14 11 10 8 6 9 9 8 6 5 4 3 1 1 1 1 3 4 3 1 3 5 6 7 8 9 9 10 11 13 16 18 19 19 20
7 9 10 14 15 11 10 13 10 12 12 11 10 11 11 13 15 17 15 12 11 10 8 6 5 4 4 4 3 2 1 1 3 3 3 3 3 3 2 1 2 4 6 7 9 11 13 14 15 17 19 21 21 20
9 9 10 12 12 8 9 13 11 12 11 12 11 10 10 11 13 13 13 10 9 7 5 4 5 5 4 4 3 2 1 3 3 3 4 6 7 7 7 7 6 7 7 9 11 12 14 15 16 17 19 19 21 22
10 9 10 11 7 5 9 13 13 12 10 13 12 11 10 10 10 11 10 11 10 9 7 5 3 2 2 5 6 5 6 6 7 7 7 8 8 8 8 9 10 11 11 12 12 13 14 14 16 18 19 21 22 21
9 9 7 4 4 5 9 9 12 11 9 13 12 10 10 9 9 8 7 10 14 11 8 6 4 1 2 4 6 7 7 8 9 9 10 10 11 11 12 12 12 12 12 12 13 13 14 15 16 17 19 20 19 19
5 5 5 5 4 6 6 7 8 9 8 8 10 10 10 8 8 8 8 8 10 12 9 8 10 11 10 10 10 11 12 14 15 15 14 14 14 15 15 15 14 13 12 13 14 15 16 16 16 17 18 18 18 18
2 3 3 3 4 5 5 6 6 7 9 10 9 7 8 8 9 6 12 11 11 12 11 9 9 11 13 13 15 15 14 15 16 15 14 16 16 16 15 15 14 14 15 15 16 16 16 16 16 16 16 16 17 16
2 2 4 4 5 6 7 7 6 7 7 6 8 8 6 5 5 5 5 8 12 12 11 12 12 13 13 13 13 12 12 12 12 13 14 14 13 13 13 13 13 13 14 15 15 14 15 15 15 15 15 15 15 14
4 5 6 6 5 4 5 5 4 4 4 3 6 6 3 3 4 4 8 7 3 4 8 8 9 11 12 11 10 11 11 11 11 11 11 11 11 11 12 13 13 13 13 12 12 13 14 14 14 14 14 14 13 14
7 6 7 5 5 3 3 3 2 5 5 5 7 8 5 5 6 7 9 10 9 10 11 11 11 11 11 11 11 12 12 11 10 10 9 9 10 10 11 12 12 11 11 11 12 12 13 13 14 14 13 11 12 13
6 8 9 8 7 6 5 3 4 5 5 6 8 10 13 14 16 16 16 16 15 14 14 14 15 14 13 13 12 13 13 12 11 11 11 10 10 10 11 11 10 10 10 10 11 11 12 13 12 10 10 10 11 14
5 5 6 7 8 8 9 11 12 13 13 13 13 15 16 14 16 15 15 14 14 14 15 16 17 17 17 16 15 14 13 12 12 12 11 11 11 10 10 10 10 9 9 10 10 11 11 10 9 8 8 10 12 14
1 2 3 4 6 7 11 13 15 17 17 17 18 17 18 18 21 20 19 20 21 22 22 22 21 20 20 20 18 17 16 14 13 13 12 12 11 10 10 9 9 9 9 9 9 9 8 7 6 7 10 12 14 15
10 9 10 13 14 12 10 11 12 15 16 17 19 18 20 21 24 23 22 21 21 21 21 20 21 21 21 20 19 17 16 15 15 14 13 12 11 10 9 9 8 8 8 8 8 7 6 5 7 9 11 13 14 15

GFSWCAN_700_spd_120.txt.gz
Wind_Speed
7 15 15 15 18 28 41 54 51 53 52 59 55 59 57 68 65 64 50 46 53 48 26 27 28 37 37 38 33 31 31 28 24 19 17 12 12 15 5 8 18 22 14 16 17 12 12 13 9 11 7 4 10 13
8 15 19 7 6 33 42 42 50 53 48 55 56 57 58 67 63 62 60 57 49 45 36 30 36 40 40 27 24 19 30 24 21 19 14 12 9 9 6 5 10 9 14 5 9 12 9 7 16 15 8 8 7 13
8 20 28 30 30 40 52 53 50 53 47 49 57 58 59 62 65 60 67 56 55 33 36 37 38 33 32 35 23 16 18 13 22 19 16 10 3 3 5 10 12 16 19 16 17 20 16 12 12 14 11 9 11 14
20 24 32 38 46 57 57 47 47 50 46 52 54 55 64 63 59 58 65 61 40 34 22 29 32 32 29 27 24 20 18 17 15 19 14 12 7 8 14 7 8 15 8 16 21 23 21 17 17 13 14 14 16 17
40 29 26 34 40 44 45 47 47 49 53 55 59 59 55 59 58 61 60 49 42 37 34 35 34 32 27 24 21 21 14 14 10 16 14 11 16 12 11 12 12 15 13 13 12 7 13 15 15 17 17 17 17 15
53 53 46 39 31 36 45 47 47 50 51 44 47 49 43 49 49 49 45 35 30 18 43 31 27 24 22 21 20 18 14 13 11 8 9 12 12 10 5 7 13 15 13 11 12 14 10 10 18 19 20 20 18 16
48 54 57 57 53 48 45 44 45 44 45 44 48 49 51 52 42 41 36 38 27 24 33 25 18 20 21 20 20 20 19 18 11 8 7 9 7 8 8 9 11 9 11 11 10 6 8 11 18 22 22 21 19 16
43 46 49 50 51 54 55 55 54 53 54 48 52 45 39 34 26 24 28 29 28 26 18 14 16 21 22 17 16 15 13 13 13 6 5 3 6 7 8 11 10 10 11 10 9 10 9 11 17 20 22 21 19 16
37 39 39 40 42 44 44 45 46 47 46 45 44 41 38 30 28 34 31 29 28 15 12 17 28 21 25 15 13 15 8 9 10 6 6 6 4 5 5 6 7 9 10 9 12 13 11 13 18 19 20 20 19 16
35 36 37 38 37 37 39 39 42 44 45 45 42 36 33 32 37 32 22 23 16 12 10 24 19 27 25 21 14 10 8 5 3 6 8 9 10 14 13 10 9 8 9 10 12 13 14 16 18 19 19 19 17 16
31 31 32 34 34 34 36 37 37 37 38 39 37 36 37 36 33 17 12 9 7 8 19 15 16 27 20 12 16 5 8 7 4 7 5 4 8 16 15 13 10 9 9 11 11 12 14 14 16 18 19 18 17 16
29 29 29 30 31 31 32 33 34 36 37 33 39 40 33 19 9 6 10 10 6 7 18 19 21 21 22 15 8 6 5 8 4 6 5 4 13 12 12 10 9 8 9 11 11 12 12 14 16 17 18 17 16 14
26 27 29 32 31 30 30 29 26 25 33 38 35 23 10 5 6 5 6 8 10 24 28 28 25 21 17 9 10 6 5 4 4 5 3 7 7 7 8 8 9 10 10 11 12 13 13 13 16 18 17 15 15 16
24 24 25 27 27 25 22 23 25 31 35 21 10 7 4 4 5 9 12 13 24 29 28 24 21 17 14 9 6 5 6 5 4 3 5 7 5 6 8 9 11 11 10 11 12 12 13 13 12 13 14 16 16 16
14 17 20 20 19 16 18 25 33 27 15 12 6 6 7 9 15 16 17 27 26 26 23 19 15 14 10 5 4 4 5 4 4 4 5 5 7 7 6 6 7 9 9 9 10 11 12 13 13 14 15 16 17 19
13 15 15 13 13 13 15 21 23 16 9 9 9 14 13 16 22 27 30 27 23 20 17 12 9 6 4 5 4 4 3 2 5 3 4 6 7 6 5 4 6 8 8 8 7 9 10 9 10 12 14 16 17 18
14 11 9 9 12 14 16 17 16 9 6 10 11 14 16 23 26 26 22 19 16 17 15 7 5 4 7 5 4 4 4 2 1 2 2 4 4 4 1 2 6 7 7 7 8 9 9 9 11 13 15 16 17 17
11 10 10 13 14 17 14 13 11 12 25 18 15 16 17 22 22 20 18 15 15 13 10 7 7 9 5 4 5 5 4 3 2 2 3 3 3 1 3 1 3 7 8 7 8 9 10 10 11 12 15 18 18 17
10 11 12 14 15 15 14 11 16 20 20 18 16 16 17 18 17 15 13 10 10 10 13 11 6 5 5 8 7 6 4 3 1 1 3 4 3 2 1 3 3 5 8 8 8 9 8 8 9 12 14 16 16 16
9 10 13 16 17 16 13 12 17 14 16 17 15 14 14 14 13 12 10 9 11 10 7 6 8 9 9 7 6 4 3 2 1 1 2 4 5 5 3 2 2 3 4 5 7 8 8 8 7 9 13 16 16 16
9 9 10 12 11 9 9 13 13 15 15 12 12 13 12 12 11 13 14 12 10 9 9 11 9 7 5 4 3 2 1 1 1 1 1 1 2 3 4 5 3 3 4 5 7 8 10 9 9 10 12 14 15 17
10 9 11 13 10 9 10 13 13 14 11 12 10 10 11 14 18 15 12 11 10 9 7 7 7 6 5 5 4 3 2 2 2 3 3 3 4 5 5 5 6 6 6 7 8 8 10 10 11 11 14 16 16 17
9 10 11 12 7 5 12 13 14 13 10 11 11 10 10 13 15 14 9 8 8 7 6 6 5 4 4 5 6 5 4 5 5 6 6 7 7 7 7 8 8 9 10 10 11 11 12 11 11 14 16 16 17 20
8 9 8 4 4 5 13 10 11 11 12 13 10 9 10 10 12 12 10 11 10 10 8 7 5 4 3 3 3 5 7 8 8 8 9 10 10 10 10 11 12 13 12 12 11 13 12 12 14 15 16 17 18 20
6 5 5 5 5 7 7 9 10 8 9 11 10 8 9 8 8 7 9 10 13 13 11 9 8 8 8 8 8 9 9 10 12 13 15 16 14 14 14 14 15 15 15 14 14 14 14 15 16 16 18 18 19 19
4 4 3 5 6 5 6 8 7 7 9 9 9 9 10 9 7 4 9 10 10 11 13 13 12 12 12 13 13 12 12 13 15 15 15 15 13 14 16 16 15 14 15 15 15 16 16 16 17 17 18 18 17 16
4 4 6 6 7 8 7 6 7 7 8 5 7 9 8 5 4 5 5 8 10 10 11 12 13 15 14 14 14 14 13 13 13 12 12 13 13 14 14 13 12 13 14 14 15 15 15 16 16 17 16 16 16 15
4 6 6 6 6 6 7 6 5 5 4 2 4 4 3 4 3 4 6 6 7 7 9 10 11 12 12 12 12 12 12 13 12 12 13 12 12 12 12 12 12 13 14 14 14 13 14 15 14 14 15 14 14 16
6 7 8 6 7 7 5 6 3 3 5 6 7 5 6 5 6 6 8 8 8 9 10 12 12 11 11 11 11 12 12 12 12 12 11 11 11 12 11 12 12 12 12 12 12 12 12 12 12 13 13 14 15 13
7 7 7 6 4 2 3 3 4 3 5 6 8 10 12 12 12 14 15 15 16 15 15 14 13 14 14 14 13 13 13 13 12 12 12 12 12 11 11 12 12 12 11 11 11 11 11 11 12 12 12 11 10 10
5 6 6 7 7 6 7 10 11 12 12 13 13 14 17 17 16 19 19 17 16 16 15 15 14 15 16 16 15 15 15 14 14 12 12 12 12 12 12 12 12 11 10 10 10 10 10 10 10 10 9 8 9 11
2 2 4 4 3 3 8 11 13 15 16 16 17 17 17 18 21 18 17 19 20 20 20 21 22 21 21 21 20 19 17 17 16 15 14 13 13 12 12 11 11 10 9 9 9 9 9 9 8 7 7 8 11 13
8 8 9 9 11 12 11 13 14 15 15 15 16 17 18 19 23 23 21 20 21 22 23 23 23 22 21 21 19 18 17 16 16 15 15 14 13 12 11 10 10 9 9 8 8 7 7 7 5 6 8 11 13 14